GFSNW_sfc_rhum_000.txt.gz
RH
87 84 84 85 88 87 73 73 63 53 57 62 67 75 60 62 56 53 52 52 50 50 51 52 54 61 60 52 54 56 60 58 64 60 46 45 40 38 33 48 48 45 47 45
88 85 87 86 88 87 78 63 58 52 60 69 71 61 59 57 56 60 52 58 54 51 58 65 59 64 54 53 62 63 55 57 69 75 62 53 59 46 39 43 48 60 52 43
89 88 87 87 89 88 78 62 61 62 58 50 53 54 57 62 58 57 52 56 50 50 58 56 66 62 65 64 58 76 62 56 58 58 50 47 59 55 50 52 58 53 45 40
91 88 86 87 89 87 80 60 64 62 66 60 52 50 48 53 58 54 50 54 48 49 59 58 59 57 59 53 62 57 56 55 49 47 45 42 42 44 42 51 46 55 36 36
92 88 85 85 87 85 71 66 54 54 53 48 42 55 54 49 49 51 54 58 48 45 55 52 59 52 53 56 56 56 55 58 52 50 34 32 36 33 31 35 37 39 38 38
93 92 88 85 84 83 62 59 52 56 64 52 46 57 52 53 49 51 51 50 51 59 51 41 40 42 47 52 52 50 53 50 49 50 38 44 50 40 39 37 34 35 40 33
94 93 91 86 83 80 66 63 62 59 53 44 47 47 45 48 49 48 45 43 46 51 37 37 43 38 36 36 43 41 54 54 55 62 56 74 41 35 35 42 35 34 34 35
94 94 94 89 84 80 70 67 65 65 53 44 45 46 46 45 46 50 48 45 46 41 42 50 52 51 55 48 55 53 39 52 60 75 70 53 46 40 43 50 47 38 41 38
93 95 95 95 90 80 74 72 76 70 67 58 39 42 45 50 52 56 57 48 53 52 47 53 83 81 64 64 71 66 57 49 63 98 87 89 50 44 40 43 64 53 47 47
92 93 95 96 94 88 86 80 76 77 82 61 57 64 61 50 54 56 56 58 57 59 60 74 89 78 58 72 68 84 79 74 76 72 80 69 44 45 43 70 65 60 56 53
88 91 94 96 96 92 93 89 80 86 87 78 65 58 61 57 60 70 64 68 67 70 71 72 74 75 61 70 61 72 75 87 88 79 82 86 46 49 60 51 53 56 60 54
89 90 92 94 96 96 94 97 82 81 96 92 76 68 63 51 56 66 62 69 63 65 78 72 76 75 66 61 72 62 68 56 67 72 77 54 50 52 46 45 52 53 53 47
85 89 90 92 93 96 95 99 96 93 97 96 94 82 67 59 58 48 70 65 56 61 71 81 84 88 77 83 75 71 63 50 61 60 53 51 44 40 51 54 57 57 61 62
81 85 89 92 94 96 93 98 96 96 96 99 88 63 73 67 66 63 59 60 62 68 78 90 92 92 78 89 80 80 67 64 67 66 56 51 48 51 56 61 64 67 61 60
80 84 88 90 93 96 97 98 97 96 99 99 95 78 68 64 66 70 68 62 67 83 90 94 95 91 88 92 91 87 70 70 79 71 53 58 57 56 64 66 67 64 64 78
78 86 90 91 94 96 98 100 100 98 97 99 100 80 77 73 74 75 73 76 75 85 93 95 93 82 87 99 99 77 59 55 54 57 54 58 58 58 60 69 68 67 73 79
73 82 88 92 95 98 99 99 99 96 98 100 100 99 80 77 78 87 87 84 93 92 96 99 96 96 94 98 87 63 54 53 54 54 59 64 66 82 74 77 90 97 99 98
80 84 90 96 94 96 99 98 94 98 97 98 100 99 92 84 92 98 91 99 98 99 96 97 97 96 97 98 77 66 62 60 62 64 78 81 81 90 95 97 98 99 94 79
90 96 95 93 95 98 99 89 91 96 96 100 99 100 100 88 84 88 90 87 98 97 99 97 96 96 98 83 78 75 73 78 82 96 98 97 99 99 99 97 97 90 90 68
94 93 95 100 99 88 86 92 98 100 100 98 99 95 98 90 87 94 93 92 92 100 92 92 98 96 75 68 72 77 78 89 92 99 100 100 100 100 96 90 89 78 42 41
98 97 100 98 85 96 92 100 100 100 100 98 96 92 94 91 96 97 95 98 97 97 97 93 93 90 83 76 80 79 84 84 84 89 90 90 89 95 84 80 46 42 44 46
92 94 93 96 96 99 100 97 100 100 98 98 97 95 93 98 97 98 99 100 97 96 90 96 84 84 79 61 60 64 74 79 78 74 83 86 86 81 71 47 44 45 43 41
90 96 100 97 100 97 99 99 98 99 99 99 99 99 94 98 99 100 99 100 96 83 95 84 87 93 81 75 64 72 81 81 76 70 62 64 65 51 42 43 40 39 43 45
98 99 99 98 100 95 94 95 98 99 99 98 95 98 96 94 100 98 98 98 92 94 97 90 92 85 64 60 66 77 86 82 65 59 45 44 43 45 41 44 43 46 49 51
100 99 93 96 95 99 99 98 96 98 98 97 97 95 86 95 97 93 95 99 96 88 89 92 94 87 81 62 72 81 86 86 65 53 46 46 44 47 49 52 53 53 54 54
100 100 100 96 98 99 99 98 100 99 96 98 98 90 93 92 91 98 95 94 92 88 94 96 92 73 65 67 70 78 82 85 77 55 47 47 51 53 54 54 57 55 56 57
100 100 97 96 100 99 97 93 95 88 95 98 94 97 93 93 94 98 91 93 92 97 97 96 88 83 79 65 66 76 83 84 82 66 54 57 58 58 64 66 62 60 60 64

GFSNW_sfc_rhum_003.txt.gz
RH
91 88 86 86 86 90 85 92 65 51 66 77 92 92 73 66 66 61 57 60 64 69 72 60 74 76 68 57 61 66 63 63 72 66 50 48 46 42 40 52 55 56 54 48
92 90 88 86 85 90 97 85 71 55 61 92 93 76 69 68 68 67 61 63 59 56 63 72 70 71 62 61 63 65 61 64 80 68 57 57 61 54 46 49 56 59 54 48
93 93 90 87 87 88 96 85 68 72 72 73 74 74 71 74 64 62 58 60 54 60 65 63 72 70 68 63 59 75 60 54 56 62 55 55 64 57 55 53 63 58 56 49
93 94 91 88 86 86 95 77 71 73 78 62 62 61 63 68 69 62 55 57 54 58 68 66 66 67 64 54 60 56 55 54 52 48 44 42 43 45 47 58 57 54 38 39
94 94 93 90 86 85 82 80 70 70 70 58 56 68 65 63 61 60 62 65 60 59 67 62 63 61 60 58 56 57 54 57 48 46 40 37 37 36 37 40 43 52 49 45
94 94 95 91 86 86 85 81 73 61 68 61 64 70 64 61 58 54 52 55 61 62 54 46 45 47 51 55 54 57 56 50 51 52 48 48 51 44 42 44 40 38 46 36
94 94 95 93 87 84 93 86 85 70 65 61 63 57 57 54 56 55 49 50 56 55 41 42 40 38 37 38 45 47 60 57 61 68 62 74 45 44 38 43 43 43 41 40
93 95 95 95 90 84 86 91 86 78 68 61 56 56 56 53 56 57 58 55 54 54 46 57 57 61 58 61 68 67 51 60 67 76 79 61 50 51 50 52 51 51 52 52
93 93 95 95 92 86 88 91 94 90 70 65 48 52 53 60 68 64 61 58 61 61 56 65 84 85 72 74 79 68 59 61 66 94 87 83 60 53 47 48 61 59 58 61
92 92 94 96 94 88 94 94 91 94 90 75 70 68 61 59 68 70 70 62 55 57 63 79 91 85 66 76 74 86 82 81 81 85 87 73 56 49 49 67 61 57 61 60
89 91 93 95 96 88 95 98 92 95 96 88 70 67 68 68 72 75 73 70 69 71 75 84 84 84 74 76 73 81 83 91 91 86 88 87 55 55 65 60 63 65 63 59
88 90 92 93 96 93 92 99 92 90 96 96 90 86 83 65 71 72 72 78 75 74 86 86 85 81 81 79 80 66 68 68 81 78 75 58 56 58 59 58 60 68 67 62
85 88 89 91 93 93 94 99 95 95 97 96 92 90 75 64 58 53 74 68 61 68 82 83 86 82 85 90 87 79 75 65 74 66 67 66 62 64 60 60 63 67 69 68
81 85 88 92 93 96 92 98 96 93 96 97 94 70 81 69 68 64 59 60 66 72 82 95 91 89 82 93 87 89 76 80 79 78 63 61 61 64 65 66 67 70 70 69
82 86 89 92 93 97 96 98 97 97 95 96 97 84 74 67 70 74 64 66 72 81 88 94 96 94 87 91 96 99 81 77 88 89 69 70 69 63 68 70 69 70 70 80
81 87 91 92 94 98 99 99 99 98 97 96 99 86 80 78 80 80 81 79 80 89 95 96 95 84 83 98 90 81 78 72 68 74 68 64 64 77 76 79 74 74 82 85
79 86 89 93 96 98 99 98 99 96 96 98 100 100 85 78 82 90 89 88 94 93 95 96 96 93 91 99 98 73 75 68 64 76 76 80 85 82 85 86 97 93 94 94
78 83 90 96 92 95 97 98 95 99 97 97 100 100 92 80 96 98 92 99 96 97 96 97 97 98 97 98 88 82 78 73 74 89 86 82 85 91 95 94 94 95 98 98
85 93 95 93 96 98 98 90 93 96 94 100 99 100 100 85 93 94 93 93 97 98 99 98 94 97 99 88 84 77 79 78 81 94 96 98 98 97 92 93 94 98 97 82
94 92 97 100 99 87 87 90 93 100 99 99 99 97 99 90 94 98 94 91 94 99 93 92 99 98 82 82 79 82 82 87 92 83 80 98 99 98 94 97 87 86 85 68
98 99 100 99 86 94 95 99 98 98 100 99 98 96 98 92 94 97 94 96 99 97 94 83 95 95 85 73 78 86 90 86 86 86 90 90 91 92 93 90 85 72 45 48
90 94 94 96 96 100 96 93 98 99 92 99 98 97 95 98 97 97 99 94 98 95 92 96 91 85 81 70 67 73 73 81 82 77 84 87 88 91 92 81 54 49 47 45
92 96 100 95 100 99 95 93 92 99 99 100 100 100 96 99 97 99 99 97 95 90 97 92 88 88 87 78 66 67 78 78 69 62 57 67 90 86 76 58 51 48 45 47
98 98 99 94 97 95 95 94 95 98 99 99 97 98 97 98 100 98 96 98 92 98 99 91 88 90 77 74 66 65 68 79 78 66 57 48 48 46 45 46 45 47 50 52
100 98 93 99 94 100 100 99 97 99 98 95 98 97 92 97 96 92 97 99 97 93 89 89 94 90 82 59 64 68 75 82 88 73 61 51 48 48 48 52 54 55 57 58
100 99 99 97 97 100 98 99 100 99 94 98 96 93 95 95 94 98 95 96 94 87 94 94 96 77 71 69 64 66 76 84 89 86 64 53 52 51 54 55 62 64 61 60
99 99 98 98 98 96 98 96 96 96 96 99 95 97 89 96 97 100 95 95 90 94 98 98 93 87 82 69 62 68 78 85 88 89 71 57 54 59 64 66 65 67 62 63

GFSNW_sfc_rhum_006.txt.gz
RH
93 93 92 89 86 89 86 93 71 85 70 90 91 94 89 89 88 85 82 54 58 71 74 66 81 80 74 64 61 62 68 66 76 68 53 48 49 45 43 51 52 60 58 49
93 93 93 91 86 88 95 89 74 84 79 87 92 75 73 86 89 78 68 79 70 62 70 77 72 73 64 63 64 63 58 73 84 77 67 61 61 51 47 52 57 62 59 52
93 92 94 93 90 87 95 87 66 68 78 82 79 73 77 76 78 74 63 63 63 68 68 66 74 74 70 66 61 75 59 60 64 65 61 60 66 62 54 50 63 55 60 58
92 88 94 94 91 87 95 79 69 76 63 66 72 67 66 72 68 65 64 61 59 62 68 68 73 72 64 57 63 58 49 53 55 52 48 48 52 54 60 60 59 50 49 48
92 83 95 95 91 87 85 74 71 73 73 63 67 73 68 66 66 62 67 66 56 55 63 62 66 64 62 59 55 57 52 54 46 43 39 41 42 40 41 47 53 55 54 44
92 90 95 96 91 84 88 89 81 58 73 65 67 72 64 60 60 56 54 55 51 52 53 44 45 51 51 53 52 54 51 45 44 44 51 48 50 49 48 44 43 38 41 35
90 94 94 95 92 87 95 93 90 65 68 67 65 63 57 58 59 56 55 53 54 56 48 43 41 42 51 53 58 54 57 60 63 62 62 68 52 48 43 44 46 45 44 45
90 93 95 94 94 87 90 95 84 75 76 70 64 58 59 54 56 59 57 56 59 60 51 59 62 66 62 61 71 66 56 63 73 74 76 60 56 53 51 52 61 60 59 62
93 93 95 95 94 88 92 95 96 86 70 64 56 58 60 61 62 61 59 55 60 64 61 72 81 82 74 75 82 67 61 63 64 93 85 73 58 54 51 50 60 65 67 66
90 92 93 96 95 88 95 96 94 95 84 82 75 62 64 64 72 72 71 60 57 62 75 85 90 84 70 76 77 81 75 77 77 87 86 75 58 53 52 65 58 73 72 70
89 90 93 94 96 89 94 97 95 94 96 92 84 77 71 74 73 79 72 73 70 75 81 85 87 86 77 78 78 82 78 90 88 88 88 84 61 63 69 62 74 67 64 66
88 90 91 93 95 93 92 99 92 92 96 94 93 88 85 72 78 75 78 81 76 73 86 90 88 85 86 82 83 74 75 76 83 75 75 62 66 61 62 60 60 66 71 64
86 89 90 92 94 92 93 98 97 96 97 96 93 92 80 70 71 62 78 80 70 81 83 90 90 82 88 89 87 82 77 72 75 69 72 72 64 67 66 64 63 62 66 69
83 86 89 93 94 94 92 98 97 94 96 97 97 76 85 73 74 68 62 64 70 74 83 91 89 86 84 92 86 87 74 80 81 84 74 72 72 68 68 68 71 78 79 73
82 89 91 94 96 94 96 98 98 98 91 98 98 87 77 73 73 67 63 66 72 79 88 91 93 94 91 96 95 98 89 83 86 87 75 72 76 76 74 77 78 73 72 76
85 89 91 93 96 95 98 98 98 99 98 91 99 91 83 82 81 81 79 80 84 89 92 95 94 87 88 98 88 79 84 80 71 75 73 68 76 79 79 80 79 77 84 85
83 90 92 95 94 96 98 97 99 97 95 96 100 99 85 79 84 91 90 88 95 91 96 96 94 89 92 97 91 81 82 80 76 78 74 80 82 81 81 86 96 91 89 89
86 90 95 93 93 94 97 98 96 98 96 94 100 100 93 79 97 98 94 98 94 96 98 96 96 96 96 98 88 83 80 80 80 84 83 81 85 90 97 89 89 90 89 86
88 96 90 90 95 97 98 91 94 96 93 100 99 100 100 86 96 96 94 94 98 99 99 97 93 98 98 89 86 85 83 78 80 91 94 99 98 97 95 91 91 93 92 96
95 91 93 100 99 87 86 90 94 99 100 99 99 94 99 91 95 98 93 93 99 100 96 94 99 99 87 86 84 82 80 80 90 85 85 96 97 98 98 93 91 96 88 84
97 98 100 99 88 91 93 100 98 97 100 99 99 94 97 90 95 98 90 97 99 98 93 92 94 97 89 79 85 89 93 90 88 81 87 90 90 92 92 93 94 89 75 55
90 93 94 96 94 100 92 94 98 99 92 99 98 98 93 99 92 95 96 92 97 93 92 91 95 86 80 70 75 78 79 76 79 84 82 84 87 89 92 94 92 71 50 51
90 94 100 94 100 99 94 98 89 97 99 100 100 100 96 99 97 96 98 96 96 91 97 93 92 88 84 82 69 73 80 82 82 74 74 79 90 90 89 82 61 56 52 49
98 99 99 96 96 93 94 93 94 96 99 100 98 99 97 98 99 98 96 98 90 98 99 94 87 89 78 78 76 66 67 74 76 74 66 56 66 75 62 63 54 52 50 50
100 97 94 98 94 98 100 99 98 100 96 93 94 97 94 99 98 93 97 98 97 90 89 89 94 90 90 75 65 63 64 67 74 81 78 68 55 50 48 50 50 51 52 55
100 99 99 98 96 100 100 100 99 99 96 94 95 92 96 96 95 94 95 92 92 88 95 94 96 80 74 67 61 60 63 71 76 84 86 76 63 55 53 52 60 61 61 62
100 98 97 98 97 98 98 96 99 90 95 100 92 96 88 94 95 99 96 93 92 94 94 97 93 86 80 74 74 68 64 72 80 85 88 88 66 60 58 58 60 67 66 67

GFSNW_sfc_rhum_009.txt.gz
RH
94 93 93 91 89 88 85 96 83 88 83 99 98 96 93 71 67 88 87 72 62 70 69 72 79 87 78 63 60 66 67 64 66 66 64 51 54 44 44 56 58 65 64 53
93 92 93 92 90 88 96 94 98 83 87 94 96 96 95 88 91 85 74 64 65 72 74 83 83 78 71 69 63 62 59 74 84 78 67 71 69 53 48 55 60 65 62 51
92 87 91 94 93 86 96 95 84 98 98 87 80 77 94 94 89 75 70 73 70 71 74 73 84 81 72 67 63 72 58 67 64 59 67 65 71 62 54 53 66 61 61 57
91 87 90 95 94 89 95 89 70 78 88 79 68 70 77 90 85 77 74 73 69 66 74 75 80 73 64 60 62 56 46 54 56 57 53 61 62 63 59 55 55 52 52 54
87 90 90 96 95 87 87 82 76 76 77 65 64 70 67 72 68 75 80 74 68 68 64 64 72 66 66 61 58 58 53 59 50 49 48 44 47 48 64 64 62 58 59 52
87 91 92 95 94 84 90 92 87 62 74 68 69 72 67 64 58 56 63 57 61 65 50 46 51 53 53 57 55 56 48 48 45 49 57 54 48 48 45 44 46 43 39 35
87 90 93 91 94 84 94 95 93 64 65 70 65 65 62 67 60 58 57 52 53 50 43 42 43 45 50 55 61 54 55 57 59 58 64 59 43 50 45 44 49 42 51 53
89 90 94 94 94 88 92 96 88 75 77 75 66 60 62 55 56 56 57 54 58 56 49 54 61 63 51 56 70 60 53 58 70 68 65 56 61 53 51 52 66 59 59 59
91 92 94 95 94 89 92 96 96 83 74 67 61 60 63 62 64 60 60 54 62 57 67 72 73 74 64 75 75 60 58 59 61 91 82 69 55 53 50 45 78 68 67 73
91 93 93 95 95 90 95 95 95 92 80 84 71 59 60 63 68 68 65 58 58 67 82 89 92 86 74 80 79 72 67 70 72 79 78 68 54 54 53 65 56 74 68 74
90 92 93 94 96 91 95 96 95 95 94 93 89 79 70 74 73 75 68 71 70 78 84 87 87 82 70 77 80 74 69 81 81 85 83 74 63 64 66 64 77 65 65 66
89 90 92 92 95 91 92 97 93 94 94 91 94 90 87 79 76 74 78 82 76 76 90 92 91 86 87 82 82 81 79 70 72 71 72 65 72 65 66 62 64 70 73 72
89 89 91 93 94 91 91 97 98 96 96 96 93 94 83 77 82 66 81 86 74 86 81 89 89 80 88 87 85 83 79 75 76 74 78 78 68 69 67 72 72 73 73 74
86 87 90 93 95 93 91 97 99 96 96 97 96 80 86 78 82 71 68 72 82 85 93 93 92 88 86 91 83 85 77 80 82 82 82 79 74 77 75 74 77 78 79 78
84 89 92 94 95 92 95 98 99 98 91 97 98 88 82 84 82 72 72 72 79 90 92 93 93 95 88 97 95 97 90 83 85 83 74 73 77 75 76 77 78 80 82 80
89 94 94 95 96 92 96 96 97 98 98 91 100 89 87 90 87 88 89 89 92 96 93 96 95 88 81 97 96 81 84 83 75 74 76 70 73 77 80 80 85 92 90 89
91 93 94 97 95 96 95 92 97 97 97 92 100 98 85 80 85 91 90 88 96 93 96 96 93 91 88 96 96 79 82 83 77 78 75 79 80 83 89 92 96 91 91 94
91 94 95 92 91 93 97 98 96 95 94 90 100 100 94 80 97 98 95 97 95 98 98 96 93 93 94 91 87 86 82 81 81 83 84 84 86 88 95 94 92 92 91 87
93 94 90 89 94 97 99 91 92 95 92 99 99 100 99 87 97 96 94 94 98 98 98 96 88 99 98 86 87 86 82 80 79 94 97 99 99 97 96 95 93 91 87 87
92 90 94 100 99 88 87 88 93 99 99 98 98 94 99 92 96 99 93 95 99 100 98 94 99 99 89 88 84 82 82 81 89 90 86 95 95 99 96 96 94 85 90 96
96 98 99 99 88 89 92 100 99 99 99 99 97 95 97 91 96 98 91 98 99 98 92 96 95 96 91 82 88 90 94 88 87 82 85 82 82 84 89 91 94 95 95 93
90 94 94 95 94 98 93 96 99 99 95 99 98 98 94 99 89 97 93 93 96 85 94 93 93 91 84 78 83 83 84 81 78 84 81 82 84 87 91 92 93 93 88 59
91 96 100 92 99 99 96 98 99 96 97 100 100 100 98 99 93 98 94 96 87 92 95 92 92 92 87 87 74 77 79 78 79 81 82 82 82 89 93 93 90 83 61 56
99 100 99 98 99 95 93 93 94 95 100 100 97 100 98 98 99 98 97 98 96 98 99 96 95 89 77 82 75 63 69 74 73 72 69 64 64 80 89 88 80 65 61 53
100 99 98 98 96 98 99 98 98 99 97 94 94 96 95 100 98 92 97 98 96 88 92 93 94 90 89 81 74 66 60 62 67 75 79 77 70 63 59 53 59 59 55 52
100 99 99 97 97 99 99 99 98 99 91 95 94 98 97 98 96 98 94 94 95 90 95 95 95 85 80 66 64 62 63 67 69 75 79 82 83 72 63 56 56 56 55 57
100 99 97 98 98 97 96 94 99 92 83 99 94 98 96 93 96 99 95 92 90 95 97 97 91 81 76 72 71 73 74 69 69 77 80 83 86 82 68 62 58 63 63 67

GFSNW_sfc_rhum_012.txt.gz
RH
91 92 91 90 90 87 90 96 94 96 91 99 96 96 90 80 78 82 82 68 66 70 80 78 87 87 77 56 59 60 62 63 69 57 66 47 47 46 48 63 65 72 70 56
90 91 89 88 92 85 96 96 96 93 98 100 99 94 88 78 83 86 80 68 61 56 72 87 86 88 67 68 63 64 60 71 86 70 70 73 64 54 50 57 63 68 64 55
89 90 88 89 94 88 95 96 98 99 99 96 95 94 91 90 94 88 74 73 61 69 76 78 88 87 72 67 62 72 58 68 64 67 68 64 74 62 58 54 70 68 64 59
87 90 89 89 95 92 97 94 80 87 99 96 83 77 89 93 93 80 73 77 65 70 83 82 83 77 72 65 71 62 48 63 66 58 61 63 60 60 58 56 54 57 58 54
87 90 89 90 95 89 96 87 81 84 77 64 72 70 86 88 70 78 81 80 74 66 70 71 82 71 71 69 66 56 51 59 54 54 51 50 57 64 63 61 62 58 59 57
87 89 91 91 94 88 96 95 84 66 68 63 63 67 78 68 62 80 64 65 70 62 57 56 57 58 58 58 54 56 49 49 52 63 58 55 46 46 71 66 63 59 64 51
88 88 91 92 93 85 93 95 90 70 65 63 60 64 65 66 60 73 58 61 69 58 44 47 48 48 55 55 60 50 49 51 54 59 67 54 42 63 45 49 53 46 55 57
87 88 91 93 93 89 95 96 89 75 75 74 70 67 66 55 57 67 56 55 66 58 50 66 85 72 63 63 63 60 55 59 71 62 61 52 61 56 55 54 69 61 62 64
87 90 91 94 94 91 93 97 95 81 76 73 63 64 68 63 62 60 62 52 57 56 67 61 91 94 86 62 70 58 59 58 56 89 81 63 56 56 49 53 74 63 63 70
88 91 92 95 95 92 95 96 96 88 81 86 73 64 63 62 67 67 58 58 59 70 82 85 89 81 69 69 68 65 70 76 69 78 76 67 54 54 52 62 61 73 69 68
89 91 93 95 95 93 96 96 96 94 93 94 90 80 70 72 72 62 61 66 66 80 83 86 91 83 75 80 79 70 66 79 83 86 83 74 63 61 61 63 72 64 64 65
90 90 92 93 94 94 92 97 95 95 93 93 95 91 88 81 77 71 78 78 75 74 88 90 90 87 86 80 80 82 70 62 68 71 72 66 72 67 71 65 65 68 69 65
89 88 89 91 93 94 93 97 97 96 97 96 94 96 86 79 86 73 81 89 76 85 84 89 89 79 87 87 83 83 81 78 76 72 75 73 68 68 65 65 66 67 74 73
84 85 86 93 95 93 91 96 98 94 95 97 96 82 87 81 87 74 72 74 87 88 91 92 93 86 88 88 80 79 76 78 82 82 85 81 75 76 69 70 73 74 76 77
85 86 90 95 96 94 95 98 99 98 89 97 98 85 85 90 80 80 76 76 83 93 91 93 93 95 94 98 94 96 90 83 83 79 76 76 78 73 74 74 78 83 82 83
91 93 95 96 96 94 94 96 96 98 99 95 100 89 90 85 86 89 91 93 94 96 94 97 97 91 86 94 92 80 88 85 80 77 80 77 79 81 80 83 91 92 92 92
91 94 96 96 96 96 95 91 95 97 97 93 100 100 85 80 86 92 90 88 95 94 97 97 95 94 88 93 90 74 84 83 78 80 79 82 82 85 90 94 96 90 89 91
93 95 97 94 92 94 97 98 94 93 92 87 100 100 94 81 97 98 95 96 94 97 98 97 94 95 90 90 85 86 86 87 86 88 86 84 90 92 96 95 94 94 93 89
94 95 93 91 94 97 99 92 91 96 87 98 99 98 99 87 98 96 93 94 98 97 97 96 89 95 97 81 87 87 86 81 89 95 98 96 96 97 99 98 98 93 93 86
94 90 90 100 99 88 86 89 92 99 99 96 98 96 98 95 95 98 93 94 99 100 97 95 99 97 89 86 82 83 85 83 91 91 88 96 87 97 89 88 89 92 91 91
94 98 99 99 88 89 95 99 98 97 99 98 97 95 98 91 96 97 93 99 98 99 94 96 99 96 90 85 87 92 91 88 85 83 83 74 63 75 82 86 91 94 95 98
91 94 95 94 92 96 92 95 98 99 97 99 98 98 97 98 90 93 92 97 95 93 97 98 97 88 86 85 90 94 92 89 82 78 74 78 80 84 87 89 91 92 93 91
92 96 100 94 100 99 96 99 99 99 97 100 100 100 98 98 93 97 95 92 95 93 95 83 92 92 90 87 82 83 83 79 79 80 77 76 77 84 90 90 92 93 91 77
98 100 99 97 99 97 90 94 94 96 100 100 95 100 98 99 98 97 94 95 94 97 91 97 95 88 85 83 76 71 72 72 72 69 69 70 70 73 83 91 90 85 79 65
100 99 98 99 98 99 100 98 99 100 97 95 95 97 96 99 96 96 98 99 98 80 92 92 94 89 88 82 78 63 62 70 71 75 78 77 76 71 70 67 72 78 74 64
100 98 98 94 97 98 99 96 99 100 92 93 94 98 96 99 96 99 97 92 92 90 95 95 94 88 86 81 72 66 64 65 67 70 75 77 83 82 78 70 61 58 57 57
99 99 96 98 98 98 98 93 97 93 86 99 95 93 94 95 97 97 96 95 91 94 97 98 92 81 77 72 72 74 76 76 77 74 75 78 84 86 82 81 72 63 60 62

GFSNW_sfc_rhum_015.txt.gz
RH
88 89 91 90 90 87 90 98 92 98 94 98 96 97 87 84 84 69 69 67 78 80 63 80 87 89 77 62 64 56 50 61 76 60 57 50 46 50 49 59 62 62 57 50
88 89 90 88 90 83 96 97 96 96 98 99 98 88 89 84 83 71 83 75 65 66 74 90 87 80 64 68 65 61 54 69 80 66 60 67 55 47 46 53 56 62 57 50
88 89 90 88 90 91 93 98 98 100 99 96 98 94 91 92 89 89 87 70 62 75 83 78 90 85 75 72 60 70 56 64 66 72 66 63 65 56 52 46 59 58 54 45
88 89 90 89 91 94 95 98 92 91 97 96 97 97 91 88 95 87 87 74 63 71 95 90 88 86 71 66 74 57 53 60 63 58 60 56 59 59 55 51 44 45 47 50
88 88 90 90 91 95 98 96 90 89 78 72 98 97 95 88 91 88 80 75 63 68 83 79 88 76 71 67 62 59 54 62 53 56 58 59 64 62 52 48 55 52 51 50
89 90 91 90 92 89 98 96 92 71 70 65 75 72 85 91 89 88 72 64 70 80 66 57 62 57 59 59 57 58 53 51 58 64 54 48 56 52 64 54 59 45 54 41
89 90 90 91 92 87 88 94 92 75 62 68 64 61 75 83 74 84 64 64 65 73 50 56 44 48 52 50 54 50 59 49 54 59 56 60 48 54 56 55 53 52 49 48
89 88 89 91 93 95 91 96 95 76 65 66 65 64 63 61 71 80 76 67 72 59 55 76 82 80 57 63 64 57 55 54 65 65 59 50 59 56 56 52 60 50 65 69
88 88 89 92 93 95 90 97 96 81 78 71 67 66 61 65 67 83 78 69 78 67 77 71 96 98 86 71 66 61 55 66 70 87 71 51 48 54 49 52 60 63 62 67
88 88 89 92 94 96 92 96 94 90 76 85 77 70 63 57 66 70 70 76 79 80 84 82 85 84 73 72 69 74 70 72 63 76 70 62 52 54 51 59 53 70 69 72
87 88 91 93 95 96 95 97 97 93 89 94 94 82 71 71 63 61 60 69 61 87 90 86 86 82 73 74 68 63 63 73 75 81 77 62 60 58 57 60 69 66 64 63
88 89 91 93 95 96 96 98 96 96 92 94 97 93 90 84 78 67 75 71 69 67 84 91 90 83 85 78 76 80 66 60 68 66 68 68 71 68 70 63 64 65 64 65
88 89 88 90 92 94 95 97 98 96 97 96 94 96 87 81 89 84 76 87 74 83 85 90 90 78 87 84 81 82 82 76 77 66 75 75 73 69 66 64 65 66 65 65
87 85 85 90 92 96 95 97 97 95 95 97 90 84 88 83 86 77 76 77 89 85 88 91 92 83 86 87 79 78 75 74 81 84 86 76 73 72 73 74 74 74 72 72
86 86 88 92 94 96 96 98 99 98 91 96 98 86 87 91 85 82 78 79 86 92 90 92 92 92 92 98 92 90 88 78 78 76 74 74 74 72 73 75 80 79 78 81
88 90 91 93 96 96 99 100 98 97 96 94 100 89 90 88 88 90 91 93 95 96 94 98 98 93 89 94 93 76 87 85 74 74 78 82 81 80 80 86 89 88 89 86
89 90 93 95 98 96 97 94 98 96 96 93 100 100 86 82 87 95 94 92 96 91 96 96 95 96 88 91 88 70 85 86 86 83 76 82 83 83 88 93 92 90 94 94
90 94 96 96 93 94 98 97 93 93 90 86 100 100 96 82 97 99 95 95 94 98 98 97 93 97 94 93 83 86 87 87 87 89 84 80 90 94 96 96 96 92 92 93
94 97 94 92 94 98 98 91 90 93 85 98 96 99 100 88 98 96 92 93 98 97 96 96 92 94 96 83 87 90 92 84 91 96 94 91 90 95 100 98 96 85 90 93
96 89 89 100 99 89 84 87 89 97 98 94 98 95 99 93 95 98 93 95 99 100 98 95 99 96 87 84 83 80 86 87 89 93 99 99 99 97 98 96 87 86 89 93
95 98 100 99 88 86 92 100 95 96 98 95 96 94 97 93 96 96 92 98 98 98 95 97 97 98 92 88 90 92 93 86 85 80 84 74 61 74 80 86 89 92 93 94
89 95 95 93 89 95 89 95 99 95 96 99 98 98 98 98 92 92 92 98 94 94 93 99 99 88 86 87 88 92 92 88 79 66 71 75 74 78 81 85 88 91 92 94
92 96 100 92 100 98 93 99 95 100 99 100 100 99 98 97 94 99 93 92 96 94 99 95 91 92 89 91 93 96 92 83 77 78 77 77 79 84 85 87 90 92 93 92
98 100 99 97 99 97 92 94 95 96 99 99 97 99 99 98 96 94 91 96 91 96 97 90 94 91 89 87 88 91 90 78 78 76 73 71 73 76 82 87 89 90 88 81
100 100 98 99 97 100 100 98 99 100 97 94 97 98 96 98 96 92 97 99 90 83 92 91 94 94 91 80 70 72 74 76 74 77 74 72 71 70 71 71 79 86 82 74
100 99 98 94 97 100 99 98 99 100 90 94 94 98 97 100 96 98 97 91 91 89 94 95 96 87 81 77 69 63 66 67 66 70 73 73 78 77 78 74 68 62 62 65
99 99 94 96 98 98 96 93 99 91 84 98 96 91 91 97 98 95 95 93 92 94 96 97 93 86 82 76 69 68 68 71 76 76 75 77 83 86 84 80 80 67 60 59

GFSNW_sfc_rhum_018.txt.gz
RH
87 90 90 89 91 92 90 82 95 97 89 98 98 98 91 81 81 79 78 57 40 44 46 53 92 57 63 44 44 61 51 37 52 75 47 46 50 58 54 57 50 39 34 29
88 90 90 89 91 84 85 73 95 97 93 98 97 90 89 85 85 87 83 72 41 39 42 51 80 53 43 54 53 49 41 42 56 57 51 42 54 50 47 39 36 41 40 32
90 90 91 90 92 90 81 79 98 100 99 94 95 94 92 94 80 77 82 74 51 41 44 47 65 64 59 59 52 64 54 43 38 47 40 39 53 48 42 44 47 40 36 30
90 90 91 91 92 94 86 76 77 80 97 95 94 90 87 88 93 87 90 81 53 43 46 65 60 62 66 63 63 58 51 46 41 40 42 37 41 47 43 45 40 42 34 34
89 90 91 92 93 94 92 68 73 72 74 80 90 95 88 89 83 86 86 91 55 43 43 56 66 64 60 65 58 58 48 50 42 42 45 42 43 38 40 43 41 37 33 32
90 90 91 92 93 92 91 83 70 60 60 59 94 92 92 91 78 88 68 67 55 56 46 47 43 44 48 50 57 59 50 49 46 49 40 44 50 42 41 35 32 32 38 30
91 91 91 92 94 91 78 76 64 66 54 56 76 73 88 94 91 84 58 56 52 60 41 43 43 45 49 46 48 43 51 45 44 47 41 81 37 36 32 37 32 30 30 32
90 91 90 91 92 94 90 88 70 70 63 56 58 69 82 89 88 82 68 68 68 46 51 57 76 83 86 77 64 48 67 57 59 51 45 38 34 42 39 44 40 35 35 35
92 90 89 90 91 94 92 92 74 68 64 52 57 62 74 86 94 89 82 68 74 71 68 76 98 98 90 78 92 58 61 83 74 71 66 53 33 40 33 34 37 37 35 42
92 89 89 89 92 94 92 92 76 71 69 60 56 52 55 54 89 94 86 76 88 85 86 89 91 90 60 75 88 85 61 70 74 83 86 37 39 40 39 41 41 47 42 45
94 89 88 89 93 94 95 95 82 76 72 73 83 68 55 52 57 85 89 80 84 94 91 92 73 82 63 51 53 65 62 66 73 76 63 63 43 43 41 46 52 50 50 48
92 88 88 89 93 95 95 99 85 84 81 81 85 78 74 68 66 60 84 81 68 83 93 83 73 62 65 54 52 54 52 48 42 43 44 55 53 51 52 46 50 50 49 48
90 89 88 90 92 93 95 98 95 93 90 85 80 78 72 68 76 68 61 78 67 70 65 74 75 67 59 58 57 55 54 54 48 52 57 57 55 53 48 45 49 48 48 50
90 88 89 90 92 93 97 98 92 89 85 84 79 70 74 70 68 68 62 61 65 62 61 73 75 67 66 63 56 51 49 53 55 64 63 57 54 49 52 54 53 54 53 52
87 88 89 89 92 93 97 98 97 90 85 85 85 76 74 72 67 66 64 62 64 64 74 75 78 75 75 78 67 62 53 50 47 42 45 44 47 51 52 55 58 55 58 63
88 90 90 90 92 97 97 99 99 97 92 89 98 79 77 74 71 72 74 73 71 73 78 85 82 79 66 82 70 54 51 53 47 45 45 54 48 53 54 58 62 61 58 61
92 90 91 92 95 98 98 96 97 98 97 93 99 99 79 74 76 78 74 74 82 78 83 83 80 79 69 70 66 47 56 54 58 55 58 66 57 60 60 63 66 69 69 68
91 90 93 96 94 96 98 96 91 92 94 90 100 100 95 77 91 88 81 82 80 88 86 84 77 83 73 79 60 58 64 63 61 58 62 52 60 67 78 77 78 78 70 68
91 94 96 96 94 98 98 91 87 92 88 96 96 100 100 80 95 92 89 91 95 91 86 83 78 80 94 73 60 62 68 67 71 82 85 86 86 94 94 88 74 61 64 68
95 91 94 100 98 90 92 85 85 97 97 92 92 84 99 90 91 96 90 91 98 100 98 94 98 91 69 65 59 58 66 70 76 90 98 99 100 99 84 66 58 55 60 67
93 96 98 99 88 83 89 99 96 90 100 89 89 80 93 86 92 92 86 97 98 100 88 93 91 91 77 78 78 76 78 73 68 64 66 63 64 68 62 63 64 67 71 74
88 94 94 91 86 92 94 96 99 98 93 96 93 90 82 86 82 89 86 97 90 96 81 94 92 74 75 76 78 74 69 67 62 59 56 45 47 49 54 61 68 71 72 77
91 93 100 90 99 98 94 99 96 98 99 100 99 99 87 83 80 89 82 91 89 82 95 86 79 74 76 76 79 80 69 56 54 54 54 54 63 63 61 65 69 72 75 76
98 100 100 99 99 92 89 85 94 88 99 100 96 99 93 86 92 82 90 83 79 89 93 83 62 71 70 73 82 74 64 55 56 58 58 62 62 64 64 64 69 70 70 71
100 99 98 100 94 98 95 96 99 99 96 94 96 97 84 94 92 80 88 96 91 78 77 73 77 80 78 77 81 73 63 62 60 54 53 54 53 54 55 57 63 65 64 60
100 100 96 94 96 99 97 98 100 99 87 90 91 96 94 97 89 92 93 85 86 78 89 79 77 69 64 68 72 62 60 53 53 54 54 56 56 55 56 55 52 50 51 53
100 97 82 88 93 94 90 85 96 87 85 93 92 89 90 93 97 95 82 87 82 86 81 77 80 74 64 56 53 53 53 53 54 56 57 59 64 65 62 62 62 52 46 46

GFSNW_sfc_rhum_021.txt.gz
RH
90 84 86 88 89 95 89 96 96 91 89 99 97 97 94 85 80 82 88 77 53 38 33 40 51 48 41 35 45 82 73 79 99 93 61 47 56 52 46 45 48 34 32 31
84 87 86 89 90 89 90 96 92 94 88 98 97 94 93 88 89 87 90 84 56 32 34 44 53 51 32 46 49 56 56 55 97 98 83 66 62 57 52 41 38 39 35 33
84 90 89 91 92 85 89 92 98 100 98 88 90 96 94 95 79 86 81 62 43 36 36 34 48 55 44 46 39 64 51 45 41 51 53 64 65 62 49 44 46 40 34 29
86 92 90 91 93 90 95 95 86 69 97 94 92 90 87 95 93 84 76 87 52 41 39 38 42 45 46 46 55 47 51 47 36 31 34 39 46 51 52 52 44 42 32 31
83 92 91 91 93 94 97 93 69 73 85 73 84 93 92 95 88 88 94 92 58 39 32 35 50 48 46 56 53 49 50 47 40 42 38 35 36 36 40 41 39 35 32 30
86 93 90 92 94 91 97 96 72 56 57 60 85 83 89 86 83 80 73 75 69 44 29 27 40 40 38 43 53 56 56 56 45 47 38 41 48 36 35 35 33 32 38 31
86 91 93 92 94 88 82 78 77 82 55 38 49 83 90 89 90 82 79 74 69 45 35 38 48 46 43 43 44 43 53 51 53 59 42 74 35 29 30 32 30 29 31 28
87 88 92 91 93 93 88 85 83 76 58 38 56 81 91 94 93 90 67 60 55 40 43 50 79 85 76 73 56 49 48 60 63 58 48 36 32 33 33 36 36 28 28 26
86 92 91 92 93 94 94 93 93 92 62 41 51 52 84 96 97 93 73 61 59 77 59 66 98 99 92 97 92 61 76 61 72 64 63 59 34 34 28 29 40 25 27 29
86 87 90 92 92 94 95 96 87 95 67 45 48 49 72 81 96 96 70 64 76 83 77 78 87 96 71 95 97 92 91 92 96 89 74 55 34 33 32 39 44 34 30 31
86 86 92 92 91 92 96 96 88 89 64 58 66 57 49 60 78 94 83 78 89 89 89 80 73 81 60 62 71 68 76 90 94 94 93 84 36 39 38 46 42 38 37 38
85 87 87 90 90 93 93 99 92 77 85 80 72 66 65 65 70 82 92 90 82 91 96 84 62 67 64 48 72 48 71 46 53 54 56 48 44 45 43 40 43 43 44 44
84 86 89 90 90 93 95 98 98 92 96 84 74 69 66 64 66 67 91 96 81 77 73 92 92 68 52 62 52 49 46 43 40 41 46 47 45 48 45 42 44 42 43 44
84 86 89 90 90 92 95 97 97 88 80 80 75 61 68 63 61 69 57 85 78 85 89 88 85 72 59 56 50 45 44 45 46 48 54 52 49 46 44 44 44 46 43 42
84 85 90 90 92 94 95 98 98 87 88 80 77 68 67 61 58 63 60 53 56 56 75 76 77 69 67 65 57 53 47 41 44 39 38 38 43 45 45 48 51 51 55 56
87 88 90 92 92 94 96 99 99 96 94 84 90 73 69 66 59 60 65 65 64 64 68 76 72 69 64 80 67 46 40 39 40 40 37 40 43 45 43 48 50 49 50 55
86 87 93 92 94 94 99 95 97 95 92 91 99 88 74 67 66 68 65 64 75 73 77 78 72 71 69 67 64 46 43 44 48 45 46 51 50 54 48 53 55 56 53 53
86 90 93 93 94 96 98 97 96 97 97 91 100 100 92 73 78 80 72 75 74 83 80 78 70 72 65 72 54 43 46 49 49 48 51 47 46 51 57 61 65 67 59 57
92 94 95 95 97 98 98 93 96 94 96 98 98 100 100 78 90 82 78 77 84 82 80 74 75 69 90 72 62 55 54 57 57 68 69 68 72 82 85 80 64 50 52 54
95 90 97 100 98 96 91 93 98 99 98 95 93 80 99 88 90 96 87 91 96 100 94 83 91 84 64 59 56 52 55 57 75 90 100 100 100 98 74 54 40 44 52 56
98 97 97 99 90 88 92 100 100 90 99 89 83 73 92 81 89 91 88 97 98 100 88 91 88 78 69 67 64 58 61 66 61 55 63 64 66 60 52 51 52 54 57 60
92 93 91 91 87 95 97 99 99 95 92 89 86 83 70 84 82 91 89 100 93 99 72 92 87 68 68 67 64 61 62 61 60 55 54 54 55 47 49 55 60 61 65 70
96 92 99 86 99 99 100 99 96 95 98 100 98 98 79 76 81 91 84 100 93 76 89 86 75 73 73 71 67 64 60 56 51 47 46 48 54 53 57 61 59 61 64 69
99 100 100 100 100 90 90 82 96 87 99 99 95 94 87 76 91 78 98 79 75 89 91 80 58 67 67 72 70 62 58 52 54 54 57 60 57 58 55 59 58 60 65 71
100 99 100 100 94 97 95 100 98 98 94 93 94 96 79 93 96 74 86 94 91 78 74 73 79 81 78 77 65 54 55 53 52 51 54 58 57 57 61 60 58 56 60 58
100 100 98 92 98 99 97 100 100 98 87 90 92 98 99 97 89 91 89 83 83 81 96 82 73 69 71 75 59 55 54 52 50 50 49 50 53 53 53 50 50 51 50 53
100 99 75 87 94 95 88 82 96 78 86 100 96 98 99 84 92 89 77 84 89 94 83 72 71 77 75 67 57 56 54 51 49 51 53 55 57 54 54 59 56 48 45 46

GFSNW_sfc_rhum_024.txt.gz
RH
89 90 85 90 89 90 93 98 98 87 92 99 98 97 84 86 88 82 89 90 80 62 44 49 56 65 50 40 66 92 80 97 100 97 80 78 68 62 63 61 70 62 52 51
88 88 86 92 90 92 97 97 97 94 91 98 98 84 91 92 91 88 92 93 81 53 55 46 45 48 37 48 58 75 84 95 99 99 87 92 84 58 58 55 55 63 56 53
85 90 85 92 91 86 95 98 97 100 99 94 84 87 96 97 87 89 83 80 71 66 64 35 50 49 48 49 39 64 79 92 98 96 86 73 76 68 65 66 73 60 52 45
84 89 87 89 92 86 95 98 94 82 98 96 94 88 93 96 96 90 84 86 82 67 52 41 41 52 50 57 53 62 63 84 78 71 66 63 69 66 67 69 62 68 51 38
81 86 89 94 93 88 97 98 92 88 87 71 82 91 94 95 91 90 91 89 71 66 48 38 42 46 50 55 55 53 51 73 55 48 62 65 64 59 61 58 56 56 52 47
84 88 86 96 93 90 98 98 84 77 76 76 89 85 89 87 88 83 77 79 77 75 52 30 56 34 39 50 56 66 62 69 60 59 45 50 60 48 55 52 52 51 57 41
81 84 85 87 95 85 83 85 86 88 88 68 66 72 84 88 87 92 76 83 78 60 41 54 58 52 53 46 53 52 65 70 75 82 59 82 46 40 35 39 40 42 41 39
79 81 87 90 93 92 87 84 90 98 93 77 58 67 82 85 95 96 85 84 67 51 51 73 91 86 76 72 60 58 53 66 77 75 65 49 46 43 45 47 46 37 40 38
81 83 90 92 93 94 94 91 95 98 96 77 53 58 83 92 99 98 89 68 71 75 71 75 94 99 88 95 87 67 73 72 86 88 84 78 51 43 35 41 61 44 39 41
84 83 87 86 92 94 96 97 90 98 98 76 60 60 69 93 98 97 92 77 92 91 85 88 93 96 80 96 96 92 94 93 93 92 88 79 46 44 40 60 60 49 44 48
80 84 87 87 91 94 96 97 91 95 98 80 72 63 65 78 97 96 82 88 89 97 92 87 90 93 83 91 79 82 91 95 98 96 97 92 45 49 54 58 56 51 56 57
76 84 87 86 93 93 94 99 92 94 99 95 76 68 71 69 84 94 96 94 88 91 96 93 78 85 74 70 95 64 82 72 79 85 81 56 55 56 57 52 54 59 64 63
74 82 86 85 91 91 92 99 99 99 98 90 91 80 71 68 72 77 94 96 93 86 90 94 95 78 77 76 73 76 65 51 58 57 60 58 54 60 61 59 59 60 59 59
74 80 86 86 90 90 92 98 98 98 97 96 89 66 77 68 69 73 69 95 95 94 97 98 96 93 74 75 65 63 57 55 58 62 65 61 60 59 58 56 56 56 56 59
74 79 87 87 92 91 94 97 97 97 100 97 88 74 74 68 67 73 70 90 93 97 98 97 95 85 81 80 74 72 56 53 61 57 48 52 60 58 55 58 62 63 62 68
74 82 87 88 93 92 97 99 99 97 98 100 99 80 77 75 66 70 71 72 73 79 87 92 87 78 81 90 86 55 50 48 49 51 52 54 56 57 57 62 65 66 70 71
76 82 88 89 94 95 98 96 98 95 96 98 99 97 80 75 76 82 82 78 90 91 92 94 89 88 87 87 87 59 51 56 56 54 54 64 62 67 64 64 66 67 68 70
79 84 90 92 94 93 96 98 98 96 97 96 100 100 95 79 87 96 87 92 92 94 94 92 90 88 86 89 71 59 57 60 62 63 63 63 63 67 75 75 73 77 76 74
86 90 94 97 98 99 100 95 93 97 96 99 98 100 100 83 94 91 90 92 94 93 92 93 92 89 96 82 74 63 65 69 75 88 82 76 80 88 88 84 74 69 71 74
90 99 99 100 99 94 93 95 98 100 100 99 98 94 100 92 91 97 92 96 97 100 97 95 97 93 79 73 68 66 71 82 82 90 100 98 98 93 86 68 59 65 71 74
99 99 100 100 91 90 94 100 100 100 100 97 94 95 98 88 96 97 95 99 100 99 98 98 98 94 88 74 80 75 83 82 80 80 89 85 85 76 60 65 67 71 74 78
94 96 96 95 92 98 100 100 100 100 98 96 95 93 84 90 86 93 92 100 98 94 88 98 93 89 82 81 82 81 81 77 74 70 74 73 65 59 65 72 77 82 83 84
98 100 100 92 100 100 99 95 99 93 99 100 99 98 91 88 89 95 96 98 98 89 90 88 93 91 87 84 83 82 78 67 62 62 56 57 67 69 71 78 78 81 89 89
99 100 100 97 100 96 98 95 94 97 99 99 97 97 96 92 98 94 90 94 90 96 96 92 95 86 89 87 81 70 64 57 60 62 63 65 66 72 73 76 79 84 90 87
100 100 100 99 99 98 99 100 99 100 95 94 97 96 94 98 95 92 89 93 96 93 91 96 97 94 92 87 72 60 61 60 59 57 61 67 71 74 77 75 76 78 78 73
100 100 98 97 97 99 97 99 100 99 90 98 96 98 97 95 94 95 95 94 92 91 99 98 95 90 90 72 67 61 56 56 57 59 61 64 67 68 69 67 66 66 67 66
100 99 87 95 98 97 94 93 99 82 87 99 98 93 94 93 94 97 90 92 97 99 97 97 93 94 81 68 61 58 57 56 57 61 68 70 69 67 70 67 63 59 58 59

GFSNW_sfc_rhum_027.txt.gz
RH
85 81 88 85 87 91 97 99 98 97 94 99 98 99 85 76 79 78 88 91 94 91 76 86 78 85 66 51 63 84 91 98 99 92 78 69 71 75 78 87 99 85 64 55
79 82 86 84 87 85 97 98 99 97 93 98 98 87 78 79 82 92 94 94 89 71 72 86 61 56 48 59 69 84 92 98 100 99 96 91 94 82 74 86 85 72 68 56
82 81 85 88 84 90 95 99 98 100 99 95 91 91 89 95 86 92 88 88 83 85 84 72 74 53 55 64 59 71 83 97 100 99 90 86 96 93 86 77 84 78 63 60
80 81 86 87 85 94 95 98 96 89 99 98 90 86 92 97 98 92 90 94 89 82 89 77 67 56 55 61 60 71 89 99 94 91 80 72 74 76 78 86 80 68 55 52
76 82 85 86 88 95 96 98 98 88 89 79 96 95 95 94 93 92 94 96 81 82 84 69 51 57 61 67 61 62 74 96 87 90 65 67 70 66 73 71 68 63 66 64
72 82 83 90 90 95 99 98 92 85 88 85 94 94 94 84 86 84 81 85 84 84 76 64 57 57 54 53 63 60 67 79 87 83 68 67 76 70 70 71 66 61 70 54
72 83 82 89 88 96 91 90 84 92 93 88 87 83 79 86 87 91 79 81 86 70 61 57 67 61 60 70 64 61 78 75 81 86 64 78 49 45 55 65 58 59 56 45
74 81 81 86 88 93 87 83 91 94 95 82 80 86 77 90 87 88 85 79 72 72 62 83 91 87 76 74 71 73 62 74 83 83 84 61 52 44 49 51 52 50 53 50
73 79 81 85 86 92 94 91 94 96 95 89 72 74 89 92 93 98 93 73 81 75 76 86 98 100 91 92 84 75 73 74 88 92 88 82 56 46 42 46 62 57 53 56
71 76 77 87 88 92 97 97 90 96 97 84 86 74 84 91 96 98 95 91 92 90 90 93 91 91 82 96 97 94 92 92 96 91 94 78 53 45 46 58 53 60 57 57
71 74 78 87 87 89 98 98 92 95 98 88 79 71 74 86 94 98 94 95 97 98 96 88 96 85 84 90 88 92 87 92 96 92 97 92 52 49 51 53 62 70 75 74
70 73 79 88 86 87 94 99 94 95 98 96 87 73 71 70 81 95 98 99 91 90 92 93 91 94 87 84 96 83 95 81 86 84 75 61 64 61 61 59 62 74 75 74
70 71 76 86 86 88 94 99 99 99 99 94 95 88 78 72 79 86 96 98 94 91 92 95 93 83 83 88 86 87 79 66 73 77 62 63 60 65 64 64 68 71 69 70
72 71 74 85 87 89 94 98 98 97 97 98 89 74 84 74 78 84 84 97 96 91 96 97 95 93 80 85 70 76 72 62 65 63 75 68 66 63 65 65 64 67 67 66
73 72 75 85 88 90 95 97 97 97 100 98 94 82 80 75 78 81 80 94 97 98 99 96 96 94 84 83 77 76 59 61 63 68 53 53 58 63 60 60 65 68 71 78
71 73 74 85 88 91 99 99 99 96 98 100 100 84 82 80 76 79 80 93 97 96 97 97 97 87 84 88 81 62 59 54 51 50 56 62 64 64 65 68 72 70 71 71
73 74 78 87 90 98 98 94 98 93 95 100 100 99 83 76 81 87 86 81 91 92 92 95 92 89 87 93 92 65 58 59 61 60 57 66 66 72 68 71 74 73 75 76
74 75 80 90 91 97 99 99 98 95 98 98 100 100 97 81 94 96 92 95 96 93 96 92 93 89 89 90 76 65 64 67 66 68 68 65 70 73 77 74 75 80 82 81
79 81 85 98 100 99 100 95 93 97 96 99 99 100 100 87 96 93 92 94 98 95 96 96 93 93 96 81 77 69 69 67 80 88 81 79 80 84 84 81 78 79 84 80
82 97 100 100 99 96 94 97 98 100 100 98 98 94 99 93 94 98 94 96 98 100 97 92 99 96 82 84 79 70 74 80 80 86 95 92 91 88 76 72 72 73 74 76
99 99 100 99 93 91 94 100 100 100 100 98 96 93 98 89 96 97 97 99 100 99 96 93 99 98 90 81 81 82 87 85 82 83 86 79 78 74 68 74 75 70 71 78
98 96 97 98 96 100 99 100 100 99 98 98 98 98 93 96 93 96 97 100 98 92 93 97 97 88 84 86 87 92 89 86 89 85 86 81 67 65 70 75 79 77 83 89
99 99 100 95 100 100 97 98 99 100 100 100 99 98 87 92 92 96 96 99 98 91 94 94 92 92 89 88 90 90 86 84 81 77 65 61 69 71 74 80 80 86 90 92
99 100 99 97 99 96 91 86 94 94 99 99 96 98 94 91 95 94 91 96 91 98 99 91 96 88 92 89 82 75 78 65 64 66 67 70 72 80 80 87 89 89 92 92
100 100 99 98 98 99 99 100 100 100 95 92 94 96 93 98 93 89 91 94 97 91 88 92 97 96 94 86 78 74 66 65 64 63 68 72 73 79 87 87 84 80 77 73
100 100 99 98 97 99 98 100 100 100 93 97 95 95 94 97 94 97 94 91 91 83 96 98 98 95 88 81 74 69 60 60 62 65 68 70 72 74 76 74 73 72 67 65
100 99 93 96 98 98 96 96 98 89 93 95 96 87 79 95 99 99 94 91 90 98 99 99 97 91 82 74 66 61 60 61 62 64 67 69 66 64 64 69 67 63 64 62

GFSNW_sfc_rhum_030.txt.gz
RH
66 72 87 83 86 83 94 98 99 97 93 99 98 99 83 72 78 81 83 82 93 94 93 94 86 87 67 54 57 88 86 99 98 90 75 71 73 74 70 79 74 72 97 74
67 75 86 79 86 89 99 99 98 97 91 100 98 93 77 75 81 82 88 94 90 82 90 97 80 64 54 58 63 92 92 99 98 100 98 84 80 71 62 54 82 73 88 72
68 73 88 81 84 86 98 99 100 100 99 93 92 89 83 89 78 79 85 92 88 91 94 78 88 73 54 58 61 79 88 99 99 97 90 88 98 84 69 62 89 72 94 85
64 71 82 81 87 86 99 99 97 87 93 98 90 82 84 88 96 84 87 95 94 94 94 91 91 74 66 70 69 85 92 100 100 96 93 94 77 89 83 78 68 79 62 78
63 70 80 83 88 92 98 100 97 89 86 85 88 88 93 90 91 93 96 98 85 92 94 82 67 64 61 67 70 85 87 99 99 98 83 91 91 82 78 82 84 92 68 62
59 72 80 83 88 92 99 98 93 86 88 85 92 95 84 87 80 84 79 89 95 87 87 75 70 70 64 62 70 74 85 96 99 99 76 89 99 93 87 95 83 80 76 53
59 70 77 82 89 92 99 96 94 93 92 88 87 88 90 92 86 84 82 84 93 75 63 68 72 71 71 68 76 64 69 78 87 97 70 78 52 46 60 62 59 56 57 49
59 68 75 79 87 88 99 94 89 93 95 81 84 87 88 86 79 91 87 73 71 69 72 91 90 89 83 83 78 77 75 81 92 97 91 65 48 46 60 70 66 62 61 57
61 68 74 78 85 89 98 96 94 93 94 92 76 83 88 94 92 90 91 86 83 73 83 87 98 98 97 91 86 88 76 80 89 96 88 83 60 52 46 50 64 61 56 63
60 67 77 78 86 88 96 95 90 93 94 87 87 90 88 89 93 96 96 95 96 85 94 94 95 98 83 97 89 97 87 90 95 95 96 78 60 52 51 62 54 64 63 62
60 66 74 75 82 88 96 98 94 94 97 90 82 79 84 96 94 96 93 99 97 98 96 94 95 92 88 93 90 79 92 94 94 94 97 82 55 46 49 49 76 78 78 80
61 65 73 74 81 87 91 99 96 95 97 95 93 83 71 76 79 91 97 98 96 90 94 94 89 94 91 84 99 88 91 84 90 85 78 67 66 63 67 64 69 81 85 82
61 67 72 74 82 87 93 99 99 97 99 94 98 88 76 76 81 82 97 98 95 93 94 95 94 88 92 97 93 91 86 78 87 81 67 76 68 72 67 68 76 80 78 78
63 68 71 73 82 86 91 98 98 95 95 98 88 78 86 78 80 92 94 99 97 94 98 96 95 92 85 90 77 85 81 76 77 79 72 71 67 71 72 75 74 75 75 73
62 70 72 73 82 87 94 97 96 96 98 98 97 82 82 78 82 85 90 95 98 99 99 96 95 96 91 88 81 80 63 71 71 74 54 55 58 66 67 70 75 74 75 78
74 71 71 73 83 90 98 99 98 96 96 98 100 86 84 85 84 86 91 94 98 99 97 98 98 89 87 93 87 60 56 52 54 54 56 67 66 67 67 74 76 74 76 74
71 70 73 75 87 97 99 93 95 93 94 100 100 98 84 77 83 88 87 90 97 99 98 96 94 93 89 93 96 70 66 61 64 61 59 67 68 74 74 75 77 77 80 80
71 73 76 79 88 93 99 99 96 91 96 98 100 100 95 81 94 97 94 96 96 94 97 93 94 91 90 95 79 74 69 67 69 70 71 66 74 75 79 76 77 84 88 86
74 76 79 96 99 100 100 96 95 96 94 99 99 100 100 88 95 94 94 96 98 96 97 97 97 94 96 78 76 69 71 68 86 89 83 79 81 86 86 84 84 85 89 87
79 94 100 100 99 96 94 98 99 100 100 98 99 95 99 94 94 98 94 97 99 100 97 94 98 97 83 84 84 81 75 81 79 86 94 92 91 88 84 80 78 77 81 82
99 99 100 98 95 93 95 100 100 100 100 99 96 94 98 91 95 96 96 100 100 98 95 94 96 98 93 83 85 83 86 82 83 78 77 76 74 77 79 82 81 77 70 73
96 98 98 99 97 100 100 100 100 99 95 99 99 98 94 96 93 96 98 98 98 97 94 98 98 93 85 87 89 92 90 87 87 85 84 79 72 71 75 79 81 75 76 72
98 100 100 100 100 100 99 98 100 100 100 100 99 99 91 97 95 98 95 99 98 91 96 95 93 92 88 90 93 94 91 91 91 84 70 68 73 68 70 79 76 75 75 75
100 100 99 99 99 94 94 92 97 95 100 99 94 98 94 91 97 95 94 92 91 99 100 86 95 89 91 92 90 91 92 84 74 72 70 72 73 80 78 78 77 78 83 91
100 100 99 99 98 99 99 100 100 100 97 92 93 96 88 98 94 88 92 96 99 90 82 91 97 94 95 90 88 85 79 73 71 67 71 78 79 86 93 89 88 90 88 84
100 100 99 99 98 99 98 100 100 100 94 96 94 92 90 94 92 97 91 90 86 80 94 97 99 95 89 88 83 78 70 67 68 70 74 75 79 80 82 75 72 71 68 65
99 99 98 98 98 98 96 96 98 93 94 96 96 84 79 94 100 99 92 86 88 98 100 99 98 93 87 81 74 72 71 72 68 69 72 74 72 68 67 70 68 65 66 65

GFSNW_sfc_rhum_036.txt.gz
RH
60 56 58 67 78 84 91 95 99 96 91 100 100 99 81 78 89 84 86 81 80 84 79 75 83 94 71 67 80 91 76 96 97 83 59 67 63 88 80 97 94 89 90 58
62 56 60 68 74 82 98 98 97 97 91 99 100 90 85 83 91 89 86 87 80 77 80 97 85 77 64 67 79 89 76 97 99 87 93 80 100 96 95 84 92 82 85 56
61 58 61 65 74 80 96 99 100 99 98 96 92 93 87 96 80 86 81 81 71 85 95 87 92 85 72 67 66 68 73 92 95 88 73 79 100 98 98 97 97 81 76 53
58 56 60 68 76 82 98 98 98 91 98 99 90 79 76 92 96 87 82 93 81 76 96 93 96 92 77 70 67 70 83 99 98 94 84 87 96 99 98 98 86 91 61 56
61 56 60 70 77 86 98 98 99 95 81 87 93 83 94 80 93 85 88 93 70 77 96 90 87 75 74 76 88 90 87 99 100 97 83 95 99 96 98 95 91 79 63 60
66 56 63 68 75 89 98 96 97 96 92 94 97 92 86 82 74 86 78 79 83 90 86 84 80 74 70 82 81 87 96 99 100 93 91 98 100 97 97 94 74 70 80 57
66 57 58 66 72 86 98 96 98 98 98 91 91 83 77 81 79 81 87 79 89 74 70 77 75 75 84 86 85 77 89 98 99 98 98 96 77 79 84 91 69 64 58 57
67 61 59 66 71 83 97 97 99 99 96 80 79 86 82 78 80 83 77 80 75 85 89 94 96 95 94 88 93 90 76 88 99 100 97 87 64 90 89 96 90 76 73 60
65 64 62 64 74 81 93 96 97 100 94 87 70 80 87 94 96 96 91 88 85 93 91 97 99 93 84 86 84 89 88 83 98 99 99 98 69 61 77 74 88 80 76 76
65 65 62 63 73 78 91 97 99 99 97 93 82 87 88 86 92 96 92 90 99 92 97 99 98 81 76 95 71 97 98 99 98 99 97 82 63 63 71 82 56 70 79 77
65 65 61 60 71 77 91 95 94 99 97 94 86 80 92 94 90 96 91 97 97 98 98 98 96 97 90 95 84 73 86 92 88 91 97 84 62 56 61 57 75 78 80 74
65 62 65 63 71 76 82 99 96 97 94 93 95 85 79 73 76 90 98 94 95 91 94 94 95 96 96 92 94 90 90 83 91 86 84 68 72 62 66 68 71 84 86 90
60 66 70 72 68 70 80 98 96 96 97 95 96 91 85 89 88 87 96 98 91 98 93 95 95 94 94 96 93 92 87 86 91 86 78 76 76 72 76 76 82 88 85 81
61 67 69 71 72 72 77 98 96 97 95 97 90 86 90 84 94 95 92 95 95 97 99 98 96 95 89 93 88 91 83 88 85 84 77 78 71 75 84 84 80 79 76 73
63 64 66 69 73 74 87 94 96 97 97 98 95 92 89 92 96 98 98 96 96 98 99 99 97 96 90 95 90 92 86 81 84 79 64 65 64 77 81 83 84 80 76 76
64 64 65 67 72 75 96 100 99 97 94 96 99 96 94 93 96 95 98 97 98 99 99 98 97 90 89 95 94 79 72 67 71 70 67 71 77 75 76 79 78 77 75 72
67 70 70 68 72 90 98 99 98 93 95 98 99 99 86 84 91 95 97 97 98 99 99 99 97 95 92 92 96 70 73 68 69 71 69 74 72 78 79 77 76 74 72 70
70 72 71 72 75 82 97 96 91 94 96 99 100 100 95 84 96 99 95 98 99 98 99 96 97 94 92 98 84 83 79 79 80 80 75 69 76 79 85 78 73 78 78 75
73 80 79 90 96 99 97 95 93 95 94 99 100 100 100 91 96 96 97 97 99 94 98 97 96 95 98 86 83 80 77 73 86 92 88 86 85 89 89 83 78 80 83 80
80 93 99 100 99 95 98 98 99 100 100 98 99 95 99 96 96 98 96 98 99 100 97 94 99 95 89 84 83 83 77 84 86 88 98 97 97 92 84 78 76 76 79 81
94 98 99 96 88 100 98 100 100 100 100 96 96 96 98 94 94 94 96 99 100 99 95 97 91 95 93 86 86 86 85 86 82 82 79 77 75 82 87 90 87 81 76 71
93 96 97 98 99 100 100 100 100 95 96 99 99 97 94 97 95 97 96 97 97 97 94 97 94 93 88 87 92 90 89 86 83 84 83 82 80 78 81 84 84 78 69 64
97 99 100 99 100 100 96 97 100 100 100 100 100 100 97 97 93 97 97 99 98 92 99 97 95 91 86 88 94 94 91 89 88 87 83 80 82 78 78 80 71 64 63 62
98 100 99 99 99 99 99 98 97 99 100 100 97 98 97 95 99 96 100 95 89 99 100 90 94 86 89 94 95 93 95 90 89 88 84 83 83 82 76 70 63 63 66 66
100 100 98 100 100 100 98 99 100 100 100 98 95 98 90 99 98 89 95 97 99 96 88 90 94 93 97 95 96 96 93 92 91 86 87 85 80 78 76 70 67 67 66 63
100 100 99 99 99 98 98 99 100 100 99 97 97 95 94 96 96 96 97 96 92 85 95 96 99 97 93 94 94 92 92 90 88 83 81 78 76 79 83 72 66 62 61 61
99 98 96 98 99 99 97 94 96 94 96 99 96 90 84 93 98 98 92 89 88 95 100 100 99 97 94 94 92 92 89 87 82 78 78 78 74 71 69 73 69 65 63 64

GFSNW_sfc_rhum_039.txt.gz
RH
67 62 61 60 66 82 86 97 99 93 90 99 100 100 82 82 89 81 82 77 77 78 80 82 76 77 80 68 81 88 78 93 99 84 68 67 65 73 80 97 94 91 82 62
66 63 58 62 67 77 98 98 98 97 87 99 100 94 86 88 87 84 81 86 80 79 84 89 76 74 64 74 80 87 80 97 96 83 84 80 96 80 71 94 95 95 92 58
65 65 59 61 69 77 96 99 100 99 97 95 86 98 96 95 81 86 80 84 73 81 86 80 83 78 69 71 72 69 68 96 90 87 65 65 98 98 98 99 97 78 88 60
66 67 58 61 68 78 98 98 100 94 100 99 84 85 80 93 94 89 84 90 77 78 86 85 89 74 78 75 69 68 85 100 91 79 76 82 96 98 97 99 89 94 60 67
64 66 59 62 71 80 98 99 99 93 84 93 88 88 83 80 92 90 96 87 85 76 87 74 91 82 81 78 80 75 88 98 99 97 81 82 100 95 98 96 87 92 80 76
64 67 62 61 69 83 97 96 96 98 90 96 98 94 89 81 82 86 77 81 83 78 78 72 71 73 77 77 81 88 89 97 100 95 79 84 95 97 98 95 87 80 94 70
66 65 64 61 66 78 97 96 98 98 99 96 90 83 82 82 80 90 88 80 82 74 75 72 83 80 83 83 81 77 86 92 99 96 93 94 70 83 87 94 83 77 69 60
63 65 65 62 66 74 96 95 99 97 97 91 86 82 83 80 84 85 81 83 72 81 86 94 92 92 98 94 86 88 85 86 99 99 97 79 66 66 88 94 82 80 70 63
66 66 66 61 62 71 92 94 95 100 98 92 77 92 89 93 93 94 88 81 90 93 93 97 100 97 86 88 94 92 93 84 91 99 99 97 71 66 74 78 87 74 69 68
65 66 63 67 64 72 89 95 97 99 99 93 82 90 93 87 91 93 92 94 99 94 98 99 99 92 83 95 71 98 98 92 95 96 99 86 68 65 80 76 74 66 74 73
66 61 66 69 71 72 84 93 94 99 98 94 88 79 92 93 90 96 94 95 98 98 99 99 98 95 92 96 87 72 87 96 94 91 96 92 65 61 64 55 65 69 71 79
62 61 63 69 71 72 77 97 84 91 98 91 95 90 85 76 74 88 96 92 92 92 98 98 95 97 97 94 94 91 87 81 87 81 79 65 73 64 62 70 73 74 79 79
61 60 60 63 63 71 76 98 95 99 98 94 94 90 89 87 83 78 94 98 88 97 95 95 94 99 95 98 96 91 88 86 91 86 76 80 69 68 75 80 83 86 86 80
63 66 64 64 65 68 75 96 93 99 98 97 89 89 92 87 93 94 92 94 98 96 99 99 97 94 86 93 87 91 85 88 86 84 76 77 74 70 81 82 78 76 71 70
63 62 64 66 66 68 80 91 95 94 100 98 94 90 91 92 97 98 98 98 96 98 99 99 98 96 89 95 93 94 89 84 84 79 66 67 68 74 77 82 80 73 69 69
63 67 67 69 68 69 92 98 99 98 99 97 99 95 96 97 97 98 98 98 97 98 99 98 95 90 92 96 97 79 78 74 70 70 71 78 79 76 76 80 80 71 68 65
65 69 71 72 67 86 96 96 97 90 95 99 99 97 92 90 95 98 99 98 98 99 98 99 98 96 94 97 96 72 74 69 70 69 72 78 75 77 77 76 74 69 65 60
68 72 76 77 74 80 95 92 90 90 99 99 100 99 94 86 98 99 96 99 99 99 99 98 99 97 96 99 86 82 78 81 82 78 75 68 77 79 80 73 71 74 73 65
71 80 75 92 94 99 98 95 93 97 96 100 100 100 100 92 96 96 99 97 99 96 98 98 97 96 99 88 84 85 83 78 80 90 86 84 84 86 84 80 78 74 76 70
77 91 97 100 99 87 97 99 99 100 100 99 99 94 98 96 96 98 96 98 99 100 97 96 99 98 86 87 84 85 81 84 84 92 99 100 98 92 82 74 72 70 70 68
95 97 99 95 86 99 99 100 100 99 100 95 90 96 98 95 96 94 97 99 100 99 94 97 96 96 92 88 88 89 86 87 85 82 79 77 74 77 82 82 77 72 67 65
91 97 96 97 98 100 100 100 100 99 97 98 98 97 95 96 95 97 97 97 98 96 92 96 94 90 87 88 93 92 89 85 84 85 85 82 79 76 78 77 75 70 65 59
96 98 100 99 100 100 99 99 100 100 100 100 99 99 96 95 93 97 97 96 94 94 98 94 95 91 86 88 94 94 91 88 90 91 88 84 84 78 76 74 68 62 61 59
97 99 98 99 99 99 100 99 98 99 100 100 99 99 97 96 98 97 100 96 91 98 99 93 94 84 88 93 95 93 93 91 92 92 88 86 83 79 71 67 62 61 62 60
100 99 98 100 100 100 99 99 100 98 100 100 97 98 90 99 99 91 95 97 98 97 90 93 95 93 98 95 96 95 94 94 94 91 88 84 78 74 74 67 63 60 60 58
100 100 100 98 99 98 97 99 99 99 100 98 99 98 96 97 96 96 99 100 96 86 95 96 98 98 94 95 95 93 94 94 93 88 82 78 76 75 75 68 64 61 57 55
98 99 95 99 99 99 99 93 94 92 98 100 98 93 91 94 99 99 94 91 90 95 99 99 99 98 94 94 94 94 94 94 90 81 76 78 71 66 66 71 67 63 61 62

GFSNW_sfc_rhum_045.txt.gz
RH
66 66 64 65 63 68 83 97 99 82 70 94 100 91 90 79 57 56 51 45 46 50 50 55 55 54 48 39 42 57 51 69 86 72 44 40 42 55 59 87 71 71 72 56
66 66 65 66 64 71 97 98 99 77 81 100 100 82 94 78 64 60 54 56 45 40 50 60 49 47 43 44 46 50 53 80 86 80 63 47 62 52 49 67 82 94 90 57
64 65 65 65 65 73 96 98 100 97 94 81 84 93 96 89 65 63 52 52 44 47 53 47 56 54 56 50 45 64 54 66 90 75 59 54 100 72 69 99 98 70 71 54
64 64 66 66 65 76 96 99 99 94 98 84 89 68 91 72 71 60 52 56 50 49 59 58 57 51 64 60 61 56 60 94 71 67 57 56 63 70 69 97 96 98 67 68
64 65 68 65 66 76 93 99 99 96 66 59 77 70 89 72 70 62 57 54 48 45 51 45 54 53 57 63 61 63 70 86 76 94 60 56 71 55 55 74 95 93 95 93
65 66 66 65 68 76 95 94 92 98 77 59 59 55 50 53 57 57 47 48 53 55 53 44 44 44 48 61 64 74 83 96 98 84 55 51 77 69 75 91 89 92 90 57
65 66 63 68 71 74 89 87 95 98 96 79 58 53 48 50 51 56 55 47 49 59 49 49 51 54 64 71 67 68 77 89 90 77 56 75 42 47 59 74 79 68 70 61
67 66 62 69 72 74 85 78 96 96 99 78 70 59 52 49 54 58 58 53 49 52 64 76 70 74 80 70 79 72 73 94 83 78 64 48 40 49 56 79 85 67 68 58
67 64 62 65 65 66 79 94 95 97 98 76 51 59 52 58 57 64 62 60 53 63 79 88 95 77 55 59 77 68 71 79 95 78 86 72 48 48 55 64 96 58 76 72
60 62 62 62 62 64 79 94 90 98 98 75 58 61 60 55 55 65 64 78 81 70 94 96 97 79 45 57 58 91 92 97 95 83 85 54 35 44 61 64 80 62 76 75
60 60 61 65 64 64 74 92 90 97 98 83 69 57 57 53 58 63 79 83 88 98 95 96 95 77 56 50 44 66 80 88 91 97 97 81 41 46 59 51 61 57 85 75
61 61 61 64 62 64 68 94 87 90 98 93 75 67 64 59 59 69 69 70 78 79 93 97 85 74 53 48 50 42 59 58 80 62 54 36 42 47 44 48 52 53 61 87
62 61 58 60 62 62 70 86 94 87 96 87 83 66 63 60 56 56 70 77 70 81 76 91 88 91 60 59 52 46 47 42 54 53 41 43 40 41 48 56 56 57 64 61
62 62 60 67 68 66 66 86 88 93 98 94 67 64 66 66 67 68 72 72 82 86 95 96 91 85 62 56 61 58 49 54 53 50 44 42 48 52 54 58 58 55 57 59
64 63 62 65 69 69 65 72 88 84 98 97 81 66 70 74 79 89 89 90 93 97 98 95 86 82 87 68 70 64 49 49 54 47 46 47 50 54 57 57 62 56 57 59
64 63 66 70 72 70 74 98 97 92 94 99 91 78 79 83 91 96 98 97 97 96 95 86 86 61 67 78 73 46 39 40 43 47 47 50 56 56 53 56 56 53 54 55
62 66 71 75 75 79 89 91 95 92 91 98 97 90 89 92 94 97 98 97 96 98 90 92 84 94 81 68 65 42 43 44 44 46 50 56 56 57 54 58 60 58 52 48
66 70 78 80 76 69 82 86 87 83 93 99 100 96 82 90 95 98 97 97 96 98 95 95 95 84 85 92 64 50 46 46 46 48 48 52 54 57 60 53 53 55 53 51
69 74 74 72 78 91 95 90 93 91 99 97 99 100 98 95 92 97 99 98 98 96 97 96 97 93 98 75 60 56 55 59 58 60 61 63 66 73 72 67 62 58 56 53
73 78 96 98 96 88 92 100 100 100 99 96 98 80 80 82 93 96 94 99 99 100 97 93 99 87 69 57 60 60 60 58 64 77 93 94 97 87 80 74 64 59 56 55
75 86 93 88 85 99 98 99 100 97 100 92 85 84 77 79 92 94 92 96 100 100 92 89 91 74 65 62 64 65 66 62 62 59 64 71 72 77 80 80 70 50 48 48
83 91 93 95 96 100 100 100 100 100 94 88 89 87 81 84 84 99 97 100 96 100 74 88 90 66 68 64 67 71 66 61 59 58 66 80 65 68 68 65 55 50 46 44
85 96 100 98 100 100 100 99 100 100 100 100 99 98 89 85 88 96 94 100 98 78 93 86 75 75 60 68 73 74 69 64 64 65 62 59 65 60 62 58 51 47 44 42
91 100 99 97 100 100 100 98 100 94 100 100 98 99 98 89 99 88 100 87 85 97 96 92 60 65 63 68 73 75 74 70 70 71 67 67 64 63 56 53 46 44 45 49
99 100 97 98 94 100 98 100 99 95 92 100 97 99 88 100 98 88 95 96 97 88 87 84 82 77 79 73 75 73 71 70 70 69 68 66 62 59 54 48 45 46 49 49
100 100 100 91 99 100 99 100 100 92 91 99 99 100 100 100 96 97 100 90 92 93 98 85 76 73 73 73 77 75 71 68 68 66 65 62 59 57 52 48 48 48 48 49
100 100 86 90 97 96 87 82 82 83 97 100 100 100 100 97 99 98 90 95 97 94 88 80 82 88 85 82 76 76 75 72 68 66 64 61 58 53 53 55 53 50 48 48

GFSNW_sfc_rhum_048.txt.gz
RH
66 65 64 65 64 73 83 96 100 88 83 97 100 98 79 91 84 55 48 46 48 55 53 60 54 60 50 43 45 57 52 75 95 81 55 53 56 67 69 92 86 89 98 73
66 64 64 67 63 73 98 98 98 85 89 97 97 83 94 92 90 59 52 50 43 42 53 67 52 52 45 47 48 58 58 86 86 77 70 53 71 62 60 68 84 87 91 69
64 64 68 66 66 74 96 98 99 97 96 94 78 85 98 95 69 60 50 48 42 48 52 47 56 61 56 54 49 62 56 73 93 96 77 74 94 74 68 85 98 76 77 67
65 65 67 67 73 77 95 99 97 95 96 98 78 83 90 84 71 60 53 56 46 49 56 53 54 63 66 60 67 58 66 92 82 78 67 62 69 75 77 91 85 95 69 69
65 67 65 67 76 79 93 99 99 96 90 85 76 80 94 77 66 66 56 58 48 49 54 52 55 54 61 71 67 66 68 94 85 93 66 64 79 68 67 67 70 95 93 95
68 67 65 69 74 80 94 93 92 99 81 83 80 77 81 66 64 57 47 51 57 58 60 51 51 52 49 55 69 68 84 91 97 90 65 61 78 68 66 88 84 89 98 78
69 66 64 65 70 74 95 90 96 97 89 82 60 52 53 61 64 62 53 51 58 66 54 53 55 59 68 72 72 59 75 84 90 96 74 91 53 58 65 74 77 77 79 67
60 62 63 62 64 65 84 91 97 97 97 73 65 56 54 61 62 61 59 60 60 60 68 75 76 83 78 73 69 70 71 92 99 87 68 59 55 59 66 77 84 76 78 79
60 59 60 62 67 65 73 95 97 98 99 82 68 64 63 73 72 71 75 64 64 70 84 83 87 92 65 85 80 70 74 87 99 96 92 84 56 58 59 70 97 69 84 82
61 61 61 62 67 65 75 95 93 99 98 84 74 72 68 66 68 76 80 80 82 77 92 90 96 82 57 70 83 93 97 99 99 95 93 72 43 64 73 94 82 70 82 84
61 62 61 60 62 64 73 90 91 99 98 87 72 66 76 62 69 79 87 89 87 96 94 93 92 92 69 69 74 79 84 92 92 92 96 92 54 60 72 66 71 70 88 81
61 62 61 62 64 63 62 94 87 88 99 92 84 77 71 70 69 79 80 81 84 86 93 97 92 87 74 72 69 59 77 71 76 79 74 50 57 57 59 60 65 66 71 91
62 61 60 60 65 68 68 86 91 95 98 96 96 82 69 64 66 69 86 88 76 84 84 93 92 88 83 84 74 68 59 54 71 72 58 56 60 58 64 69 70 63 74 85
62 61 61 60 62 66 68 86 88 92 98 99 85 67 76 72 73 76 80 80 88 87 93 94 95 93 83 82 79 78 68 62 66 67 57 60 60 65 66 66 64 62 67 73
64 63 62 61 68 71 75 77 81 82 98 98 89 74 78 81 85 90 90 85 93 97 99 97 89 86 92 86 86 90 65 70 74 69 60 62 75 71 65 64 66 62 67 76
66 64 63 68 72 73 83 97 97 90 94 99 97 86 87 91 92 90 94 95 96 96 96 88 89 72 84 95 88 58 56 54 53 63 62 66 68 64 60 61 63 61 65 68
66 65 70 74 79 86 91 95 95 90 92 99 98 97 94 93 95 97 98 98 98 99 95 91 88 90 88 89 85 56 52 56 69 59 61 71 68 73 63 62 64 61 58 58
66 68 74 78 77 77 85 88 84 87 96 98 100 99 92 93 97 97 98 98 98 96 96 93 92 94 95 98 81 68 64 73 69 60 62 66 67 66 69 66 60 62 60 59
69 71 78 78 81 90 95 91 94 94 99 100 99 100 99 98 96 98 99 97 98 93 98 95 98 93 98 86 79 75 68 76 76 75 74 74 77 78 74 74 68 59 58 58
74 86 98 99 96 86 92 99 100 100 100 99 98 89 93 95 95 98 98 99 98 100 97 97 99 95 74 76 76 75 76 75 80 89 95 91 95 86 76 66 60 56 56 53
83 86 93 93 87 99 99 100 98 99 100 96 93 90 93 88 97 97 97 99 100 100 96 96 98 94 84 74 74 78 81 79 77 78 83 86 80 74 75 71 63 62 53 50
89 92 91 97 98 100 100 98 100 100 100 97 96 95 92 94 93 99 98 100 99 100 84 93 96 89 82 78 80 85 84 78 78 73 76 81 75 78 75 73 66 53 48 47
93 99 100 98 100 100 100 99 100 100 100 100 100 99 96 94 98 98 98 100 100 93 99 98 94 81 69 79 85 88 82 74 72 74 71 82 80 73 68 66 62 48 46 45
93 100 98 95 100 99 100 99 100 100 100 100 99 100 98 95 100 96 100 98 94 99 99 96 91 84 82 81 83 83 87 78 78 79 76 78 77 73 60 54 47 46 48 50
99 100 96 99 99 100 100 100 100 100 99 100 100 100 96 100 100 96 99 98 98 96 96 100 96 91 90 89 88 85 82 80 80 80 78 75 68 63 59 52 47 49 51 53
100 99 100 98 99 100 100 100 100 98 97 100 100 100 100 99 99 100 96 93 91 99 99 98 94 93 93 89 87 87 84 82 81 80 77 72 69 62 57 52 52 51 52 53
100 94 94 97 98 100 100 90 96 96 98 100 100 97 90 99 100 99 94 96 100 100 98 98 93 95 93 91 88 86 85 85 82 78 77 74 67 60 59 60 62 57 54 53

GFSNW_sfc_rhum_051.txt.gz
RH
66 64 66 64 67 73 84 97 100 89 92 96 100 100 86 96 93 82 77 64 61 64 68 72 63 76 62 47 54 66 58 79 95 86 64 60 70 76 70 93 82 96 94 84
65 65 67 66 70 76 98 98 97 89 91 99 97 92 95 96 88 78 60 56 52 53 60 71 59 59 50 46 49 56 63 83 86 85 71 65 82 69 72 75 91 94 96 76
67 66 66 70 73 76 94 96 99 95 96 93 97 98 100 98 78 78 56 50 46 52 62 65 69 68 60 56 55 66 58 78 87 91 85 81 89 76 76 82 99 84 85 65
68 67 66 70 75 78 93 99 99 98 99 97 96 93 96 91 77 65 56 53 52 55 62 64 69 70 73 67 62 59 68 94 89 83 77 77 79 82 78 87 74 92 63 62
68 67 66 67 74 77 96 97 100 96 96 89 89 96 96 94 68 73 63 60 53 58 66 60 70 71 76 78 76 71 76 93 85 95 73 76 85 73 74 74 70 68 66 74
60 64 65 64 67 76 97 95 91 98 94 89 97 96 91 82 69 60 54 59 73 76 72 62 61 57 60 68 77 72 82 86 96 95 71 73 88 74 74 75 78 68 92 76
60 60 62 63 67 70 94 95 97 99 94 88 79 66 67 72 69 72 65 69 77 70 57 58 61 71 76 75 74 74 85 77 95 98 88 90 62 60 62 72 74 78 76 74
60 60 60 62 68 66 83 94 99 98 96 89 79 67 69 73 70 74 79 73 71 67 74 77 83 87 80 86 82 75 69 82 95 91 91 68 58 69 69 80 84 74 78 69
60 61 61 60 62 66 74 96 97 99 99 90 94 80 69 79 86 83 85 76 71 75 88 86 89 93 76 91 88 71 77 80 96 97 96 90 62 64 70 76 94 77 76 83
60 60 61 61 62 62 75 95 92 99 98 91 93 87 85 78 78 84 85 84 82 84 91 93 97 90 70 93 93 96 96 97 98 84 97 78 55 63 78 90 80 73 80 89
59 60 61 61 58 61 78 87 90 97 98 92 86 79 92 85 80 89 89 86 89 93 95 92 88 94 83 79 85 83 86 93 95 89 97 92 53 80 79 66 76 79 86 85
60 60 59 60 60 65 70 93 84 88 99 94 91 85 80 84 83 88 84 86 86 87 93 95 93 89 88 85 87 82 83 78 88 82 75 53 58 61 75 69 73 81 78 92
61 60 59 59 59 60 68 90 89 95 98 96 98 91 73 75 76 72 85 88 78 86 86 92 94 96 84 95 85 82 73 58 76 76 62 60 55 77 73 75 78 75 74 92
61 61 60 61 60 64 67 91 88 91 96 99 90 75 85 83 81 85 85 84 89 88 92 92 94 94 89 94 89 90 77 70 69 71 63 76 75 72 79 76 69 70 71 85
64 63 63 61 62 68 82 88 86 83 96 98 97 86 88 88 89 92 91 87 92 97 99 98 96 89 88 92 94 97 80 78 78 77 58 66 76 81 73 73 72 72 74 92
66 65 62 65 72 73 86 96 96 87 93 99 99 86 94 95 94 89 88 94 94 95 97 95 90 79 84 96 93 70 70 65 61 64 67 70 75 71 70 68 69 69 76 86
67 65 66 71 76 93 92 94 96 90 92 99 99 98 96 94 96 98 99 98 98 98 97 94 92 87 86 94 85 64 56 63 59 60 64 80 76 75 66 67 67 65 64 64
67 69 72 78 76 85 87 84 79 83 96 98 100 99 95 94 97 97 98 99 99 99 96 93 92 90 90 94 82 81 75 71 74 75 73 72 72 73 72 69 66 68 64 62
70 74 77 84 78 93 95 91 93 96 98 100 99 99 96 96 95 97 99 95 98 94 98 93 96 91 99 86 83 82 74 74 77 83 78 78 80 80 77 72 69 67 64 64
76 88 97 99 96 86 91 99 100 100 100 99 99 92 96 96 96 97 98 99 98 100 97 98 98 96 80 77 80 80 82 84 83 82 93 90 93 84 80 74 63 56 57 55
87 93 92 94 86 98 98 100 100 99 100 97 95 93 92 90 97 96 97 99 100 100 99 99 100 98 82 77 81 85 89 88 86 85 78 83 84 82 75 67 59 56 52 50
90 92 92 98 98 100 98 100 100 99 99 98 97 97 94 95 95 99 99 100 100 99 96 99 99 95 76 78 84 86 85 88 84 74 75 81 77 69 68 67 62 55 50 51
97 99 100 99 100 100 100 99 100 100 100 100 100 100 98 94 97 99 99 100 99 98 100 99 100 85 76 83 86 86 88 87 78 78 81 80 80 76 75 78 69 50 46 46
99 99 96 93 99 99 98 100 100 100 100 100 99 100 99 96 100 98 100 98 95 99 99 99 98 93 87 87 85 86 87 91 81 82 84 92 79 74 70 72 64 52 48 51
98 98 96 99 99 100 100 100 100 100 100 100 100 100 98 100 100 98 98 99 98 97 99 99 97 95 95 90 87 87 88 87 85 81 79 79 74 64 58 52 48 48 51 52
99 99 99 99 99 100 100 100 100 99 99 100 100 100 100 98 99 99 96 94 94 100 98 98 96 92 90 88 88 89 86 84 84 80 78 71 68 62 56 51 55 53 53 55
99 92 94 99 99 100 100 93 98 94 99 100 100 100 95 98 99 99 96 97 100 98 96 98 94 94 93 90 90 91 92 90 86 81 80 76 68 61 60 69 71 68 57 54

GFSNW_sfc_rhum_054.txt.gz
RH
68 66 65 68 71 77 86 96 99 86 90 95 98 100 99 97 96 86 87 68 69 78 75 76 77 78 70 54 58 72 68 83 95 91 71 65 72 80 76 92 79 97 90 76
68 68 66 68 71 76 97 97 97 88 89 99 99 90 98 97 95 87 70 60 58 62 70 74 70 69 55 54 58 68 65 81 95 89 74 70 86 80 74 77 89 95 94 72
68 68 66 66 70 75 94 97 97 94 96 96 98 100 100 97 81 89 59 58 53 60 72 69 75 68 68 57 52 67 64 78 84 89 80 84 90 84 82 85 98 91 88 66
60 62 66 66 70 74 94 98 98 97 95 94 96 93 96 77 78 62 64 61 62 65 80 72 80 72 67 64 65 63 66 91 90 85 78 81 79 79 82 89 75 90 72 70
60 61 64 66 70 72 94 98 99 92 97 89 95 94 95 84 72 71 70 83 63 67 73 71 78 76 80 77 66 70 73 88 83 92 76 82 91 82 80 77 72 71 68 69
60 61 62 64 70 76 97 95 91 99 85 91 96 95 92 86 76 69 69 66 74 78 75 70 64 62 63 69 75 83 79 90 92 94 76 79 92 81 78 76 75 65 79 60
59 60 61 62 69 73 95 95 98 98 95 94 83 77 83 78 76 79 76 74 77 74 62 61 62 72 76 71 75 71 89 79 93 97 89 94 62 65 65 69 64 64 63 69
60 60 58 62 62 66 84 94 99 98 95 96 86 88 80 77 79 85 85 81 78 70 74 82 88 87 76 85 73 73 70 80 92 88 99 74 63 76 74 82 76 72 74 71
60 60 60 60 62 62 77 96 96 99 99 92 95 95 72 86 88 89 87 80 77 76 89 88 90 86 83 86 91 76 80 83 95 95 98 87 68 69 76 80 94 74 75 76
60 59 60 59 60 60 81 92 90 99 98 86 93 94 85 76 78 91 91 86 81 84 93 95 97 89 74 93 84 98 99 99 99 92 88 83 57 59 81 90 75 76 82 88
59 58 59 59 59 62 84 88 88 96 98 90 84 82 93 87 86 90 87 83 87 93 90 86 90 94 88 87 83 90 93 96 94 91 96 94 55 84 82 66 74 81 88 84
62 59 60 58 58 60 68 93 84 90 98 94 92 86 82 89 85 90 87 85 85 85 92 92 92 82 90 87 94 83 89 78 90 80 77 56 60 66 61 72 79 80 86 91
63 60 59 58 58 58 65 93 90 95 97 96 99 93 80 82 88 80 88 92 76 84 87 91 93 94 92 90 91 88 81 63 78 77 67 66 60 63 76 81 82 79 82 90
59 64 60 60 60 59 65 93 89 91 94 99 89 81 88 82 85 86 85 80 90 88 90 91 93 97 88 89 87 92 83 66 68 82 64 64 79 76 80 81 74 70 74 92
59 62 62 58 58 60 78 92 90 83 96 98 95 86 87 91 89 93 90 87 92 96 96 95 94 90 90 93 96 98 84 81 88 84 62 61 64 78 78 79 74 72 84 95
65 64 64 61 64 72 88 96 96 85 90 99 99 84 93 97 94 95 92 93 94 95 95 95 90 78 86 95 92 68 69 73 63 71 66 72 80 79 73 70 73 76 88 87
68 66 65 67 72 92 91 94 98 87 92 99 99 97 94 95 96 97 99 97 98 97 98 98 93 90 87 93 96 67 54 62 66 63 66 79 73 74 68 69 72 70 76 81
68 69 74 77 77 87 95 80 76 89 96 97 100 99 91 94 98 98 97 99 99 99 96 97 96 90 92 98 88 81 81 74 79 80 81 79 79 73 74 74 70 73 74 71
68 75 77 85 84 96 93 92 91 92 96 96 99 100 96 97 96 96 99 96 99 96 98 96 95 95 98 89 82 76 75 83 86 76 76 81 84 81 79 74 74 71 71 69
73 89 97 90 92 92 93 99 99 100 99 99 99 95 96 97 95 96 96 99 98 100 98 98 98 98 82 68 70 76 88 92 92 92 88 88 92 86 83 77 69 64 63 61
91 95 96 92 86 100 99 100 100 99 100 98 96 94 91 91 96 96 96 99 100 100 100 99 100 99 90 73 83 87 92 93 93 92 90 83 76 86 76 71 62 58 55 54
87 90 91 98 99 100 100 100 99 98 98 98 97 95 92 93 96 99 99 100 100 99 99 99 99 99 87 86 88 90 81 86 87 86 85 81 80 75 67 64 60 56 52 51
97 99 100 99 100 99 98 97 98 100 100 100 100 100 98 95 97 100 99 100 99 98 100 99 99 93 83 86 87 86 78 85 85 85 87 77 75 67 66 64 57 53 59 60
99 98 98 98 99 99 98 99 100 100 100 100 99 100 99 96 100 98 100 98 97 99 99 99 97 92 90 88 84 85 91 91 86 85 83 96 88 79 80 74 69 69 64 57
98 100 97 99 98 100 100 100 100 100 100 100 100 100 98 100 100 98 98 98 98 98 99 99 98 92 92 88 85 87 99 97 91 86 80 83 76 79 79 76 69 53 55 56
98 99 99 98 99 100 100 100 100 99 99 100 100 100 100 96 99 100 96 94 94 99 99 97 96 90 89 88 87 89 91 98 91 82 78 79 76 66 63 64 61 56 53 56
96 96 97 98 99 99 100 95 98 91 99 100 100 99 93 99 99 99 97 96 99 98 98 98 94 95 94 92 89 88 90 89 87 82 82 77 68 63 65 72 76 80 72 67

GFSNW_sfc_rhum_057.txt.gz
RH
65 67 67 66 68 76 84 96 96 85 91 94 99 99 99 98 95 81 91 63 70 80 70 69 73 73 72 58 61 70 72 84 97 88 75 67 74 79 78 90 83 98 92 73
62 61 62 66 70 73 97 97 97 88 89 100 99 97 97 96 95 89 82 65 62 58 69 74 71 73 59 59 61 69 65 83 96 86 73 72 84 81 74 81 87 99 96 66
62 62 64 66 70 71 95 97 97 93 96 95 99 100 100 94 91 90 70 63 59 65 78 72 76 77 74 62 56 66 62 79 84 89 76 84 94 89 84 86 97 92 88 73
60 63 63 66 72 72 93 98 96 98 98 95 94 88 81 80 82 72 69 66 66 73 80 78 84 77 72 67 72 69 69 89 89 81 77 81 80 80 90 87 82 89 81 75
60 60 62 64 70 73 96 98 99 92 97 86 83 86 91 81 83 83 81 82 76 75 74 71 81 75 78 78 69 77 74 91 89 91 76 82 90 82 79 84 78 80 72 73
61 60 61 63 64 78 97 95 93 98 86 95 92 95 92 86 83 70 72 71 77 81 82 72 65 66 70 69 75 86 76 91 92 96 78 81 89 84 82 79 79 67 80 59
62 60 58 61 63 70 96 96 98 98 96 96 92 89 85 87 78 85 84 80 81 76 64 65 65 73 73 72 80 71 85 87 88 95 89 94 64 63 68 71 64 64 55 52
62 59 59 58 60 62 84 94 99 98 91 96 89 93 85 81 84 89 91 85 82 78 73 82 83 80 76 82 76 79 69 81 91 94 96 78 69 81 76 78 76 63 59 56
62 60 59 59 59 61 82 95 96 99 98 90 96 97 90 91 90 89 87 80 80 76 89 86 87 84 82 92 93 78 74 86 96 96 95 88 65 79 77 72 87 67 70 71
59 61 58 59 58 59 88 91 89 99 99 86 85 97 96 88 88 93 92 86 83 81 93 94 96 85 76 90 86 97 99 99 99 84 87 78 61 55 80 83 74 66 81 83
61 61 64 60 59 60 83 95 88 97 98 90 88 85 97 95 85 85 83 82 83 92 88 89 92 91 87 91 86 91 85 91 96 97 97 92 57 83 84 62 71 71 85 87
57 63 64 59 58 57 66 95 85 88 98 96 92 87 84 89 90 88 90 84 84 83 90 92 90 82 86 90 95 86 92 81 87 80 77 57 55 66 57 66 72 76 84 89
60 63 64 60 58 56 63 80 90 92 98 94 98 93 82 83 83 83 92 91 78 83 87 90 92 90 93 94 90 89 82 68 82 80 64 62 56 63 67 68 77 81 76 90
65 60 60 63 58 57 60 92 90 90 96 99 89 80 90 87 86 88 87 84 89 88 89 90 90 91 88 93 90 93 84 70 67 72 72 62 63 71 65 72 80 76 72 90
65 61 65 63 57 60 68 89 93 81 96 99 94 80 85 92 90 91 90 88 91 95 95 93 93 89 89 90 96 98 89 85 91 86 72 69 72 67 70 80 78 72 77 95
68 70 66 64 65 63 90 87 97 84 84 99 100 82 96 98 96 97 96 93 94 94 95 94 90 79 84 97 94 79 69 76 72 76 73 71 70 76 77 77 73 77 85 92
69 68 67 67 69 88 90 88 98 83 84 98 98 98 95 94 97 98 99 97 97 96 97 98 94 92 87 94 90 73 70 78 71 68 72 77 80 77 75 74 76 78 91 89
71 68 70 78 78 81 97 84 81 92 97 98 100 99 87 94 98 98 97 99 99 99 96 96 96 92 95 98 87 87 83 74 80 83 82 82 82 83 80 81 76 85 90 90
69 72 79 85 83 95 92 92 94 93 98 100 100 100 95 97 97 96 99 97 98 96 99 92 96 97 98 83 72 72 74 81 82 84 82 76 76 80 80 78 79 79 80 83
71 88 99 93 94 92 94 99 99 100 99 99 99 91 97 98 98 97 97 98 99 100 98 97 98 97 82 77 74 80 82 87 89 96 92 90 90 84 79 80 75 72 73 71
90 95 98 95 87 99 99 99 100 99 100 98 92 97 92 93 96 94 94 99 100 100 100 99 99 99 96 76 85 86 93 89 94 94 93 91 90 88 79 75 67 65 65 59
87 90 91 98 98 100 100 97 99 94 98 96 98 95 91 92 96 99 99 100 99 99 99 99 97 99 91 90 93 92 90 78 86 83 86 91 90 89 79 70 63 60 55 52
97 99 100 98 97 99 98 98 99 100 100 100 100 100 99 96 98 98 99 100 99 98 100 99 99 93 85 92 93 88 79 87 86 84 81 90 80 72 72 66 60 57 59 58
100 98 98 99 99 99 100 99 99 100 100 100 99 100 99 97 100 98 100 98 98 99 99 98 97 95 91 90 87 87 89 97 92 88 84 94 87 77 69 60 57 64 72 76
99 100 98 99 96 100 100 100 100 100 100 100 100 100 98 100 100 99 99 99 98 96 98 99 99 93 92 88 86 89 97 98 98 96 88 88 79 82 82 77 75 72 72 76
100 100 99 98 98 99 100 100 100 99 98 100 100 100 100 98 99 99 97 97 93 98 99 97 97 93 92 90 90 88 88 96 97 94 82 83 90 78 77 71 67 60 60 63
99 99 95 97 98 97 99 96 98 91 99 100 100 99 100 99 99 99 93 95 97 98 98 99 95 94 95 97 92 90 88 86 90 88 85 80 76 80 78 77 85 84 81 64

GFSNW_sfc_rhum_060.txt.gz
RH
61 63 63 65 70 72 86 96 93 83 90 94 99 99 99 97 92 87 74 65 74 82 75 77 80 78 71 59 61 72 71 87 96 90 76 71 74 80 77 89 88 97 93 64
61 63 63 65 68 70 97 98 97 87 88 99 99 96 95 92 90 90 67 68 60 62 74 74 72 70 63 61 60 68 67 84 97 90 75 72 85 82 74 80 88 97 88 53
62 61 64 64 67 71 94 97 98 94 94 93 96 96 98 89 92 76 66 66 63 72 79 75 77 77 74 66 59 65 61 79 83 89 75 84 94 90 80 83 96 92 92 71
63 60 62 64 66 72 93 98 97 97 99 96 96 85 85 89 94 75 72 75 71 74 82 81 85 81 75 70 73 70 68 90 87 77 78 82 82 85 88 87 85 89 79 79
63 62 59 64 66 73 95 98 99 90 95 82 94 88 90 90 86 83 86 88 80 74 77 78 84 78 82 82 76 78 74 95 90 91 76 83 91 82 85 85 81 84 76 78
58 61 60 61 63 76 97 96 93 98 85 95 93 97 92 88 82 76 81 77 80 84 84 78 69 70 75 73 77 85 80 91 95 94 84 85 91 86 82 85 85 76 90 62
60 60 60 60 62 70 95 95 99 97 97 94 92 92 89 94 90 90 88 83 80 79 68 70 65 69 73 76 82 70 83 86 90 92 88 95 61 65 68 72 68 70 63 52
62 60 60 59 58 61 88 93 99 96 93 95 82 95 89 84 82 92 93 88 85 83 74 78 78 79 80 80 83 76 63 79 86 92 94 76 74 80 77 76 80 64 62 53
58 59 62 58 58 58 92 94 96 99 98 89 93 95 94 94 91 87 87 81 80 77 87 84 85 84 79 87 91 79 84 89 89 97 90 90 62 78 74 77 94 63 62 60
59 62 60 63 56 57 89 94 89 99 99 79 81 89 95 93 90 92 92 90 85 81 92 92 95 88 79 92 90 95 97 98 96 88 92 76 60 61 75 93 78 64 76 81
63 57 63 65 58 57 82 94 90 95 98 91 90 90 98 91 94 84 83 80 82 90 86 88 92 91 85 91 85 89 90 92 96 94 99 94 58 83 80 63 69 75 82 85
70 59 63 62 64 55 62 93 82 86 97 94 90 87 81 85 89 94 91 84 85 84 90 93 90 85 89 90 94 88 92 86 80 83 78 59 54 65 60 64 67 77 85 86
68 65 62 60 64 59 58 79 83 95 97 90 97 95 84 76 81 78 98 92 83 84 90 90 92 84 93 95 95 90 85 77 80 81 64 68 56 57 61 72 78 79 81 84
66 64 62 62 65 60 62 88 89 94 98 99 91 74 89 89 87 88 89 86 90 88 91 90 86 83 89 92 88 93 88 81 78 78 75 70 73 65 67 70 72 78 77 87
65 64 64 65 67 60 72 88 86 77 96 99 98 83 78 88 91 93 91 90 91 95 93 92 89 90 88 95 96 99 92 87 91 89 72 79 76 67 69 74 77 75 78 91
67 67 69 67 66 66 89 89 96 90 93 99 100 84 96 99 95 96 96 94 94 94 93 90 89 80 79 96 97 76 82 73 66 69 80 78 78 82 79 79 77 77 80 87
63 70 70 68 68 88 94 82 98 83 90 99 100 99 92 95 95 97 97 96 97 96 94 95 90 90 87 91 91 72 90 89 85 83 76 82 76 83 77 78 78 79 90 91
70 72 69 72 77 82 96 86 79 91 96 97 100 98 86 95 99 99 98 99 99 99 95 96 96 96 92 98 84 86 79 81 84 84 80 84 85 80 81 82 80 87 91 93
74 70 76 85 84 94 93 82 87 94 98 100 98 100 96 97 97 96 100 97 96 95 99 96 97 95 96 84 74 73 76 83 90 84 85 84 86 80 77 75 75 84 88 92
69 88 95 94 95 82 94 99 98 99 98 98 99 92 96 98 99 99 96 98 97 100 94 96 98 84 83 78 76 79 82 86 94 97 94 92 94 90 83 76 70 71 79 85
92 96 99 93 84 100 98 100 100 99 100 96 94 95 95 94 98 95 96 99 100 99 99 100 97 99 95 80 82 84 92 92 84 87 93 95 95 94 92 85 74 69 68 70
86 89 91 97 99 100 100 98 100 100 97 94 98 97 93 95 96 97 99 100 100 99 99 100 99 99 86 85 87 91 90 80 86 85 86 84 86 94 94 92 77 67 63 60
97 99 100 99 99 99 99 97 99 100 100 100 99 96 98 97 98 99 100 100 99 99 100 98 98 97 94 88 92 93 80 94 97 91 82 82 90 78 82 82 67 59 56 58
100 100 98 99 98 93 99 99 99 100 100 100 99 100 99 97 100 98 100 98 99 99 100 97 98 97 90 90 89 92 98 96 98 99 93 88 87 78 65 61 60 62 66 72
99 100 98 99 96 99 100 100 100 100 100 100 100 100 98 100 100 99 99 99 97 96 96 99 99 95 94 89 89 91 98 96 96 99 98 95 92 88 82 73 70 71 78 80
100 100 99 94 99 96 99 100 100 99 99 100 100 99 100 98 99 99 98 98 95 95 99 99 97 94 93 94 91 93 96 98 98 95 92 93 93 95 87 76 69 72 79 80
98 98 96 99 98 97 99 98 99 95 99 99 100 99 90 97 99 99 94 95 95 98 98 96 95 94 95 96 94 89 89 87 92 93 86 85 79 78 90 84 89 79 66 64

GFSNW_sfc_rhum_063.txt.gz
RH
65 61 62 65 66 72 85 96 91 79 90 97 100 100 98 95 92 89 85 70 74 82 76 74 79 77 73 62 61 74 72 85 96 89 72 67 68 76 70 86 85 90 86 49
65 62 61 66 68 72 97 99 97 86 90 100 100 88 86 89 91 85 69 71 65 66 73 74 75 75 66 61 63 65 63 83 94 86 77 70 81 74 69 74 84 95 74 45
65 64 62 65 67 72 94 97 97 94 96 94 97 100 95 90 83 80 71 69 68 74 81 76 76 83 73 64 68 64 60 76 82 85 70 81 94 86 76 83 91 82 85 58
62 64 61 63 67 72 93 98 98 95 99 97 92 92 93 92 95 77 77 74 76 72 82 82 89 79 76 72 70 68 66 90 84 72 76 76 78 86 81 86 81 84 68 72
63 60 62 61 68 72 96 99 98 94 94 92 93 91 93 93 91 87 88 88 84 76 81 82 85 77 82 80 77 75 73 98 85 89 75 81 88 79 83 75 75 75 72 72
62 59 61 61 63 77 98 97 92 99 86 95 94 96 93 93 86 83 87 85 86 86 86 80 70 72 73 72 76 83 78 89 90 92 80 83 93 85 82 83 81 71 87 65
63 59 60 60 60 77 96 95 98 98 94 90 88 91 93 94 93 90 86 85 81 80 72 74 68 72 76 75 78 69 81 85 87 93 84 94 58 63 68 71 70 73 66 55
66 56 58 59 58 61 88 94 98 98 93 89 82 91 94 85 84 94 93 88 86 86 75 78 77 80 77 81 88 75 62 77 88 89 95 71 81 77 78 76 80 63 62 53
70 60 60 59 57 58 91 95 96 99 98 90 92 92 95 97 93 87 87 83 79 77 87 82 84 81 74 90 93 78 80 76 84 98 93 82 59 70 71 72 95 62 58 62
70 58 61 65 57 57 88 94 90 99 99 81 84 87 98 93 93 93 91 90 85 79 89 89 94 83 76 89 88 95 95 96 90 95 97 77 54 54 65 92 84 63 71 74
67 67 60 65 59 55 81 91 90 95 98 92 90 88 96 93 93 95 85 80 83 89 86 87 90 89 84 87 83 86 89 94 92 92 98 89 57 70 81 66 68 67 76 80
66 68 62 59 61 61 60 92 78 81 98 93 90 86 80 73 75 98 94 85 88 86 93 94 92 85 87 90 85 86 90 80 75 74 74 57 53 67 59 59 62 73 80 82
65 67 67 62 61 63 64 85 83 88 95 79 89 95 84 83 74 75 98 92 87 86 89 90 91 79 91 95 90 88 86 79 78 80 64 69 55 57 57 60 70 78 78 76
65 64 63 60 60 63 63 88 89 87 95 99 86 72 86 87 79 79 82 86 89 87 93 90 88 78 88 92 85 92 86 82 82 83 75 72 75 70 69 67 70 73 72 77
66 62 63 61 68 68 75 88 90 82 94 98 97 86 78 84 89 91 88 94 92 94 91 91 88 89 90 96 96 95 92 85 92 90 73 75 75 72 68 70 72 72 74 84
68 65 62 69 69 67 90 88 93 87 84 99 99 89 94 100 97 98 98 95 93 94 93 89 88 81 79 97 96 79 84 82 76 74 74 77 74 82 80 76 78 77 74 79
66 64 69 72 68 88 94 88 93 85 88 98 99 99 87 96 96 98 99 96 96 96 92 93 89 88 86 94 93 76 89 88 82 89 83 86 81 82 80 78 73 78 89 88
72 72 73 69 73 84 96 95 84 86 95 98 99 99 95 97 99 99 98 99 99 96 94 95 95 95 91 98 86 84 81 82 86 88 85 87 87 86 78 77 79 84 86 92
73 73 69 85 92 96 93 79 83 92 97 100 100 100 99 98 97 97 100 96 99 95 99 97 93 94 98 90 76 74 79 89 86 89 86 86 88 87 84 78 73 76 78 90
70 88 93 93 94 75 86 98 99 100 99 99 99 97 99 99 98 99 94 98 98 100 95 96 98 98 88 78 77 79 82 82 88 96 94 93 96 94 89 86 78 71 72 76
92 95 98 93 83 99 98 100 100 99 100 97 96 97 97 95 97 97 96 95 100 99 98 99 99 99 95 80 81 81 85 89 93 86 86 88 93 97 97 93 86 79 72 72
85 88 90 97 99 100 100 99 100 96 91 98 98 96 93 95 97 96 99 100 100 97 99 100 95 97 85 82 84 85 85 80 91 91 89 83 83 85 89 93 95 92 75 68
96 99 99 94 96 99 99 97 100 96 100 100 100 100 98 96 97 98 99 100 99 99 100 95 97 98 95 94 93 94 84 93 93 96 96 86 88 82 72 82 89 82 69 63
99 100 94 99 98 97 97 98 98 99 100 100 99 100 99 98 100 95 100 98 99 99 99 96 99 98 97 89 89 95 93 94 97 97 96 94 95 90 75 64 61 64 61 68
99 100 94 98 95 99 100 100 100 100 100 100 100 100 97 100 100 99 95 100 95 94 95 98 99 96 92 88 96 97 98 97 96 98 96 94 98 99 94 84 71 70 76 79
99 100 99 94 99 98 98 100 100 100 99 100 100 100 97 95 99 99 95 98 96 92 99 98 96 95 94 88 92 95 95 97 98 98 96 88 94 98 99 96 86 81 85 86
88 92 95 99 99 97 98 98 99 98 99 99 100 99 91 99 99 95 97 96 93 97 100 94 92 94 94 94 91 88 87 83 90 91 93 95 88 75 77 91 92 86 74 72

GFSNW_sfc_rhum_066.txt.gz
RH
68 61 63 64 67 72 79 82 95 66 73 92 98 99 94 86 77 77 78 58 56 58 53 55 56 62 55 49 47 51 55 62 88 78 58 53 51 54 47 73 76 66 60 31
70 61 63 64 68 72 88 84 82 66 78 100 94 74 73 73 67 63 55 55 50 50 53 58 56 58 52 49 49 47 47 66 88 82 64 60 67 58 52 58 74 85 52 34
68 61 62 64 67 72 82 84 97 79 80 78 86 96 94 75 67 61 57 54 49 51 54 51 62 61 59 55 53 62 49 58 78 65 56 64 98 70 61 93 87 58 53 38
66 61 63 63 69 72 81 87 94 87 95 81 79 74 74 70 78 60 57 56 60 53 58 59 66 63 58 56 58 50 47 78 70 60 61 63 68 75 69 88 70 87 44 42
67 62 62 62 69 71 79 88 98 84 78 71 72 79 79 76 75 71 67 67 64 55 57 58 60 56 55 52 53 51 54 86 71 82 64 66 78 66 67 64 56 55 52 52
67 60 62 62 63 66 84 84 84 91 72 74 74 93 88 84 74 71 68 64 61 64 67 62 50 50 50 52 55 60 58 70 75 82 67 69 76 68 66 65 58 54 66 45
68 64 60 60 60 68 83 86 97 86 77 72 78 80 80 76 81 75 71 65 60 57 53 53 45 48 51 51 55 50 59 62 68 72 64 73 50 49 54 58 53 54 49 46
67 63 62 59 59 63 64 82 93 94 84 71 72 76 82 67 64 74 75 67 66 64 58 56 61 59 58 67 60 55 49 56 74 73 66 54 68 62 59 63 73 48 48 45
67 69 61 62 60 60 60 84 83 96 92 68 73 81 80 86 74 64 68 61 61 60 66 64 68 70 57 72 77 64 61 56 59 83 80 63 57 63 55 53 96 57 49 52
64 68 61 61 62 61 66 82 79 94 97 69 72 83 86 84 80 80 72 72 66 61 70 71 73 62 59 62 64 73 72 77 74 65 71 50 40 43 47 80 82 56 53 56
66 66 68 60 60 63 62 74 82 81 93 73 73 70 74 80 87 84 73 69 70 72 70 70 68 63 64 66 65 64 64 71 72 71 73 73 41 61 66 60 52 48 54 55
66 65 67 68 58 60 64 80 66 66 85 72 72 65 62 68 68 80 87 76 75 66 71 74 72 61 65 63 65 66 68 53 50 51 50 44 42 48 43 45 50 54 60 58
66 65 66 65 57 59 63 70 72 76 81 71 70 67 55 59 61 58 83 77 76 76 74 72 74 59 58 59 57 65 61 58 56 59 48 47 41 42 49 47 56 59 57 55
66 65 64 63 62 59 64 81 75 74 77 85 63 55 74 63 70 66 66 74 78 78 82 82 75 65 64 58 60 63 53 60 59 59 51 47 52 52 54 60 60 61 57 54
67 67 66 64 65 68 72 77 76 65 79 89 80 59 56 59 80 77 79 80 87 88 85 82 76 77 70 72 76 75 62 52 55 49 43 51 47 50 61 65 63 68 60 57
69 70 69 64 69 68 84 81 88 80 75 81 87 68 79 88 91 92 91 90 91 90 86 77 75 68 62 78 74 54 60 60 51 53 62 60 57 60 63 64 60 59 57 56
70 71 66 68 72 82 82 68 84 82 78 83 90 91 84 89 96 98 98 94 94 89 86 78 73 76 74 77 75 51 56 58 64 63 63 63 64 63 61 64 61 63 63 62
73 73 73 73 70 76 94 84 80 78 86 92 98 92 98 96 97 99 96 98 98 98 89 92 86 80 76 90 64 60 66 63 63 68 67 67 63 64 65 64 65 68 64 65
75 74 72 80 82 88 81 76 81 86 92 99 99 100 100 89 97 92 98 95 97 91 96 83 80 78 94 79 72 69 66 69 70 69 72 75 77 75 75 74 70 69 67 65
73 79 93 92 85 73 89 93 99 100 99 99 99 97 100 97 94 98 97 90 92 100 86 87 98 98 78 72 71 73 75 77 78 80 80 82 85 81 77 76 74 72 70 69
88 92 89 87 82 97 98 99 100 99 100 95 97 93 98 98 99 98 90 98 99 99 88 98 98 88 90 72 73 75 79 80 80 80 76 77 80 84 82 79 74 74 74 73
84 83 85 93 97 100 100 100 100 99 94 94 98 97 89 95 93 89 94 100 97 97 97 100 91 86 78 73 76 78 77 78 81 86 92 87 81 79 84 87 85 77 73 74
91 93 100 96 98 100 96 95 100 100 98 100 99 100 96 88 90 92 94 100 100 99 100 90 82 91 86 79 78 79 78 80 82 88 92 87 89 87 84 70 63 61 71 71
98 99 96 98 96 94 92 94 95 96 100 100 99 99 97 96 98 91 100 98 99 100 97 91 93 97 92 84 93 97 89 84 88 97 98 97 96 96 95 84 63 56 55 59
100 100 90 94 90 100 100 100 100 99 99 99 99 100 91 99 100 98 100 100 96 88 85 85 90 87 88 95 96 94 97 95 96 96 95 95 95 96 98 99 93 76 71 69
99 96 93 84 96 93 98 100 100 99 98 99 100 100 100 96 96 99 90 94 89 86 97 89 84 78 76 85 93 95 85 85 91 94 96 98 96 97 99 99 99 96 99 96
81 92 75 91 94 85 88 98 99 97 99 99 100 99 93 98 98 95 92 94 90 92 91 85 83 82 76 76 76 73 69 69 76 80 86 85 84 88 93 93 95 98 97 74

GFSNW_sfc_rhum_069.txt.gz
RH
69 64 64 65 68 74 68 70 94 59 60 86 95 86 75 78 64 68 69 52 43 44 41 44 48 52 47 43 39 44 46 57 84 71 52 48 45 47 42 73 68 60 62 35
70 65 64 65 67 72 75 64 65 55 64 98 89 65 61 60 55 52 48 47 42 38 43 51 48 50 44 43 43 41 42 62 87 74 58 52 60 49 43 49 78 82 51 38
70 65 65 64 66 70 65 67 97 61 56 63 77 86 85 60 55 48 46 43 39 39 43 39 52 54 51 50 46 62 46 50 74 65 58 59 96 60 54 89 86 49 47 32
67 64 64 64 67 71 68 71 88 77 85 73 67 61 57 54 60 48 44 45 46 43 46 47 56 53 51 48 52 43 40 71 62 52 51 53 64 68 61 92 66 85 37 33
66 67 63 65 68 72 64 91 97 81 70 58 60 68 69 64 60 60 54 52 48 41 46 52 51 47 45 44 43 43 44 79 62 83 53 56 70 58 58 60 51 46 42 42
66 71 64 64 64 64 67 67 77 89 66 60 63 80 80 75 63 58 57 56 49 54 59 48 40 40 40 42 45 47 47 59 69 76 60 59 72 60 57 56 49 46 58 40
67 68 63 63 62 63 67 84 94 86 72 57 62 68 67 67 68 68 58 53 50 51 45 43 38 40 42 42 45 42 50 52 58 61 57 73 51 43 47 51 47 45 42 38
65 72 64 62 62 61 54 78 92 93 86 58 57 60 66 57 54 62 61 58 52 51 53 54 54 53 52 54 49 45 41 46 60 68 55 45 60 56 52 58 64 44 45 40
65 67 66 61 64 64 52 72 70 93 94 59 60 66 62 77 59 55 59 52 51 54 56 56 64 70 50 60 69 53 50 46 56 72 76 60 61 60 48 49 85 50 44 48
65 67 68 66 62 64 58 66 66 86 84 53 60 66 71 68 72 69 59 59 59 54 59 67 66 54 44 54 55 64 62 61 68 60 65 48 41 43 43 81 85 53 48 49
67 67 67 69 65 60 62 62 62 63 73 55 47 55 68 62 76 77 70 64 65 65 69 64 58 57 47 52 47 50 53 57 61 60 64 68 50 57 54 61 48 47 50 51
70 68 67 66 68 62 66 68 55 52 75 58 47 48 49 53 58 78 76 75 63 55 62 62 58 53 51 48 60 49 58 45 47 46 50 43 36 44 38 41 48 52 55 52
72 68 66 66 66 60 62 64 63 65 70 61 54 54 42 37 42 55 78 67 66 65 63 65 60 57 47 52 50 48 48 47 48 53 40 39 36 36 46 44 51 55 53 52
72 69 67 66 64 64 62 76 66 70 71 86 54 38 57 52 50 48 52 58 72 73 72 71 61 56 50 48 53 52 48 51 48 47 42 42 41 40 49 53 55 60 56 52
73 69 68 67 66 64 70 67 61 64 78 78 70 48 34 31 47 73 68 63 77 87 82 75 63 62 58 52 61 51 44 46 52 44 39 39 45 47 51 56 59 60 63 56
75 71 70 70 66 68 73 74 77 74 78 98 80 48 57 60 58 75 75 73 80 91 92 70 63 55 57 67 64 43 41 42 39 39 50 50 51 51 56 58 60 57 55 54
78 76 72 71 67 81 76 66 79 76 78 89 82 77 60 61 84 95 94 84 92 89 76 74 66 65 68 63 64 41 40 43 46 51 55 56 51 54 54 55 56 57 56 55
79 75 71 74 76 73 85 68 79 74 75 77 94 80 90 82 95 92 89 97 96 94 74 82 70 63 68 74 52 45 42 50 57 56 59 60 58 56 56 59 59 62 60 56
78 71 78 70 84 91 70 77 79 82 77 98 98 99 100 92 96 78 96 94 99 92 94 80 74 67 81 60 55 52 56 59 59 61 62 64 67 66 66 65 66 64 61 61
80 80 89 99 80 87 83 95 99 100 98 99 98 85 99 97 96 90 97 94 97 100 86 83 95 86 56 61 62 61 65 67 70 75 77 78 78 71 64 66 65 65 65 65
90 97 96 88 82 91 98 100 99 96 97 93 86 82 93 96 99 99 93 100 98 100 86 89 90 83 82 69 70 68 71 72 74 75 74 71 69 73 75 72 68 68 69 69
91 94 89 91 97 100 100 97 99 98 87 89 98 97 95 95 94 99 98 100 99 96 88 98 87 74 71 67 67 71 72 73 75 74 82 83 83 80 80 82 82 76 71 66
87 88 99 93 96 100 98 92 100 99 91 100 99 100 98 94 95 96 95 100 96 98 100 87 73 83 76 70 69 72 70 72 73 80 89 92 89 86 92 94 75 61 58 58
98 99 96 95 92 87 87 93 100 99 100 100 100 100 99 96 96 91 100 94 100 100 96 90 97 100 98 96 98 99 88 80 84 88 91 96 98 97 97 98 97 81 62 57
100 100 90 84 73 94 99 100 100 100 98 100 99 100 98 100 100 99 99 100 96 88 82 85 92 95 97 99 98 92 98 91 90 93 97 98 97 95 97 99 99 98 93 77
100 100 94 76 93 96 97 99 100 99 98 98 100 100 100 99 98 98 91 89 84 89 98 90 81 78 82 90 98 99 87 85 88 89 86 88 94 98 99 98 96 99 97 97
86 87 72 77 91 83 77 80 98 92 98 94 99 100 99 99 96 93 90 92 95 99 90 82 78 76 71 73 70 65 58 57 68 68 76 77 77 76 82 89 93 97 98 98

GFSNW_sfc_rhum_072.txt.gz
RH
69 67 66 67 69 74 70 82 97 71 72 94 99 88 71 78 61 67 69 58 48 46 44 52 52 63 55 44 47 54 55 72 94 79 57 53 56 62 59 93 83 86 89 59
67 68 66 66 69 73 80 74 77 72 76 99 97 72 72 58 58 52 51 48 45 41 46 59 54 59 47 49 54 55 53 79 91 80 72 62 72 60 53 72 90 90 90 60
67 71 66 66 68 71 80 74 98 78 66 71 80 87 78 62 59 54 46 45 42 43 47 46 57 59 59 57 48 65 57 65 88 91 79 77 89 71 67 90 94 78 77 46
67 71 67 67 70 74 77 77 88 82 87 83 69 72 65 56 64 55 48 51 47 46 53 52 60 58 59 55 59 52 58 79 78 60 57 61 78 78 76 90 81 85 58 44
67 69 66 68 71 74 71 93 97 82 82 58 60 66 66 72 62 63 55 56 47 48 59 60 58 55 56 56 55 56 53 84 79 91 58 61 78 65 67 72 66 60 52 51
67 71 68 67 66 68 74 71 76 95 75 62 64 79 68 75 64 61 56 62 60 60 61 52 48 47 49 52 57 56 58 76 84 90 68 68 84 70 66 67 60 57 70 53
67 70 66 64 64 64 71 83 95 93 85 67 60 62 63 63 63 74 55 59 56 60 50 51 49 51 50 51 57 51 60 64 74 87 77 92 65 52 54 59 54 54 50 47
68 67 69 64 64 66 68 72 87 91 85 66 65 63 65 64 60 63 59 60 60 58 65 67 61 65 56 54 57 57 52 60 76 89 77 58 73 62 61 64 68 51 53 50
71 67 68 69 62 66 69 72 77 94 92 70 55 67 66 79 78 71 66 59 60 67 72 70 77 78 55 63 60 62 57 60 74 86 91 79 76 60 53 51 89 54 49 52
73 69 69 68 68 61 74 75 73 88 89 58 58 72 76 73 79 77 69 69 73 68 78 79 82 68 53 65 63 79 72 69 82 78 85 65 65 59 53 89 91 57 60 61
76 72 69 68 70 68 73 75 72 76 77 62 47 41 65 67 79 86 83 84 83 83 87 81 73 69 55 65 63 62 63 69 65 67 80 81 60 61 70 71 60 58 63 66
79 75 70 67 67 66 69 82 64 58 80 72 56 54 51 50 56 78 82 86 79 76 85 81 75 67 69 64 67 66 76 60 63 60 65 52 57 51 49 51 60 68 66 67
83 78 72 68 66 66 66 77 74 80 83 67 64 62 48 45 44 50 90 83 79 83 86 95 81 77 64 72 67 65 60 57 65 66 54 53 49 54 56 58 67 68 64 65
85 81 73 68 67 66 66 83 79 86 83 88 63 39 49 43 46 47 55 74 68 80 91 94 86 78 60 67 68 75 69 64 64 60 54 57 53 53 64 65 69 72 67 64
87 84 79 69 68 68 74 84 79 79 89 86 78 58 48 44 45 50 53 64 71 92 96 94 88 77 73 70 80 76 60 65 72 68 59 57 69 65 63 69 73 72 75 72
88 90 81 72 70 66 87 86 86 81 82 99 92 60 53 49 56 49 77 80 82 88 96 92 82 65 72 84 84 54 50 48 50 60 65 64 66 66 68 72 74 73 71 68
87 89 81 71 70 86 96 85 88 77 87 99 88 84 62 64 71 78 89 83 91 90 88 90 88 82 79 83 80 53 50 53 56 64 65 72 68 77 69 70 70 68 69 69
92 82 81 81 76 84 95 79 77 81 96 88 96 87 77 84 92 94 89 95 93 93 90 89 90 83 90 92 66 58 57 58 64 67 69 74 74 72 72 77 76 82 77 72
85 80 80 84 86 97 90 78 79 88 94 95 90 96 95 92 92 85 96 94 98 93 97 83 85 85 88 78 67 63 68 74 78 72 73 76 76 78 81 82 81 83 80 77
88 90 96 100 91 83 83 93 99 98 100 99 95 82 96 96 98 99 97 97 99 100 96 92 97 92 66 75 75 77 78 79 79 86 88 88 85 77 72 82 82 82 83 82
96 99 99 96 82 94 98 100 100 98 98 94 88 81 90 94 100 99 92 100 100 99 99 99 99 89 88 82 82 75 76 76 83 79 78 77 79 82 84 86 76 75 76 82
94 96 93 94 94 99 100 99 98 98 85 92 96 99 99 98 97 100 99 100 100 99 93 99 95 92 85 80 81 74 74 75 76 77 82 84 83 83 85 86 87 82 70 64
92 94 100 99 99 99 99 96 98 98 99 100 99 99 98 97 98 98 99 99 99 98 99 92 84 94 85 80 77 82 75 77 83 85 85 87 93 89 94 96 96 90 77 62
93 95 97 97 98 95 97 96 98 99 100 98 98 100 100 98 100 99 100 99 99 98 99 95 99 100 99 98 98 96 97 85 88 92 89 92 96 97 98 99 99 99 96 84
96 99 97 97 90 98 95 98 98 99 99 95 98 99 100 100 100 99 100 99 98 95 95 98 100 99 98 99 100 100 100 100 99 97 96 94 99 99 99 99 96 97 96 98
99 100 97 87 96 96 96 96 98 99 98 99 100 100 98 99 100 98 99 98 99 99 100 99 97 97 98 98 99 99 99 97 94 93 90 88 90 94 98 98 99 98 98 98
96 96 86 91 92 82 77 75 96 90 98 99 99 99 99 99 98 96 94 99 100 99 97 97 89 90 93 94 94 90 66 62 76 75 82 83 76 82 86 94 95 96 99 98

GFSNW_sfc_rhum_075.txt.gz
RH
68 71 69 69 70 75 84 95 96 81 88 95 99 98 81 74 69 74 75 81 67 60 56 65 73 74 61 50 52 61 60 81 99 93 77 72 76 90 76 93 94 86 93 63
68 71 69 70 69 74 97 96 94 80 77 97 88 78 72 72 67 67 60 58 54 50 55 72 66 65 55 55 58 62 58 83 95 90 74 66 75 72 68 72 87 89 87 65
68 71 69 70 69 73 96 95 97 90 88 80 82 90 83 70 69 66 56 55 53 53 57 58 69 69 65 58 53 65 60 75 82 88 78 80 88 73 72 80 89 86 80 60
69 71 69 69 73 77 91 96 95 86 99 90 76 73 69 71 69 64 61 58 59 59 63 65 72 68 68 59 58 54 61 80 78 69 63 74 82 79 81 83 76 80 60 52
69 71 69 68 72 74 91 97 98 94 96 87 66 73 74 70 66 73 74 81 73 68 78 76 74 62 65 66 61 62 63 86 80 90 63 66 81 73 77 71 66 68 63 57
70 70 69 67 68 76 96 93 91 96 85 86 71 78 74 73 75 66 64 72 78 75 70 68 65 57 59 61 65 65 68 80 89 91 72 75 86 76 76 78 71 64 72 53
72 69 70 69 67 72 92 78 96 96 93 83 78 70 70 64 69 78 62 70 74 67 62 66 62 64 59 56 60 58 67 75 83 92 82 94 60 60 60 67 63 63 57 51
73 70 69 70 65 66 91 91 98 95 96 84 69 72 73 75 69 72 70 70 71 71 78 72 65 69 58 62 65 67 64 71 84 89 90 69 74 68 66 69 69 57 57 52
76 73 68 68 68 63 88 92 91 99 95 78 64 66 74 87 90 81 71 68 67 74 81 80 84 83 58 65 58 64 63 69 81 88 93 87 84 64 58 60 85 63 55 54
80 77 71 68 68 69 85 91 82 96 87 86 64 84 80 80 85 90 77 78 80 78 87 93 91 76 59 73 72 84 80 80 87 86 93 71 78 68 56 89 84 66 60 64
83 80 75 70 68 70 82 89 82 82 97 84 68 54 63 73 82 91 87 85 88 91 91 92 83 84 63 76 70 76 72 76 77 68 75 85 59 60 65 72 65 62 68 74
87 85 79 73 68 67 76 95 75 66 86 82 64 60 56 59 62 81 89 91 84 86 89 90 85 75 78 77 67 72 75 64 63 65 68 55 65 61 57 61 67 72 70 72
88 88 86 77 71 67 73 95 84 85 95 89 76 76 60 53 55 52 92 91 87 91 90 98 95 87 70 80 77 77 74 61 67 62 60 58 55 64 63 62 71 71 68 64
82 82 85 84 77 69 67 94 87 90 98 98 77 48 54 48 47 58 54 70 75 82 90 98 97 88 66 71 69 77 67 68 69 68 59 63 56 71 72 71 72 76 77 71
81 83 82 86 82 79 78 92 91 88 97 95 87 65 59 54 59 53 56 58 70 88 97 98 95 87 79 78 81 82 67 69 75 76 58 65 80 74 72 73 76 75 78 76
84 85 82 89 82 73 90 91 94 87 87 98 91 76 69 57 59 64 58 66 82 89 95 95 87 77 71 90 94 65 56 56 55 61 69 69 71 74 76 76 78 81 81 77
86 88 88 86 87 90 96 90 90 79 92 98 97 89 70 65 66 74 80 84 91 91 89 92 93 91 85 90 91 60 56 55 61 67 66 71 75 82 76 74 78 73 80 74
88 86 85 80 78 81 96 87 81 86 94 95 100 94 88 92 94 96 93 96 94 93 92 92 95 92 93 97 80 62 64 58 72 77 75 73 73 73 77 82 82 85 84 81
84 82 80 88 90 96 94 80 82 92 94 97 94 100 97 91 96 93 95 92 99 91 94 92 94 91 98 85 81 76 79 79 78 84 81 80 82 84 86 86 85 88 88 87
81 88 97 98 96 81 83 92 99 100 100 99 96 91 94 94 94 99 99 98 98 99 94 96 98 96 78 80 82 85 86 84 82 84 88 89 88 85 80 80 82 88 89 90
96 99 93 96 83 94 96 99 100 97 99 96 95 91 95 92 100 100 98 100 99 94 95 94 96 96 92 90 91 87 84 78 79 79 80 83 89 88 88 85 81 85 82 80
92 91 93 92 96 97 99 98 99 99 95 92 98 99 99 99 97 100 98 100 100 99 96 99 93 89 92 90 90 88 87 82 80 80 85 87 87 91 93 92 91 90 82 73
94 94 92 95 98 99 99 97 97 99 100 100 100 98 99 99 99 99 100 100 99 99 100 95 93 93 88 90 88 87 80 83 89 92 89 87 90 90 96 98 97 96 96 85
93 94 98 97 99 97 96 91 99 98 97 94 98 98 100 99 100 99 100 99 99 99 99 98 98 99 100 99 97 92 97 92 90 89 87 93 95 97 97 99 98 96 95 94
91 93 98 99 92 99 98 99 97 97 96 92 97 97 99 97 100 99 100 99 98 98 99 100 100 100 100 99 100 100 100 99 100 100 97 92 93 92 93 94 98 97 97 96
100 93 97 93 94 94 95 94 97 98 98 93 100 98 97 97 97 100 98 99 98 99 100 100 98 99 99 99 99 100 100 100 97 93 87 87 87 93 94 94 96 95 98 98
99 97 92 97 96 94 92 70 85 92 99 99 99 96 97 98 98 99 97 99 99 99 97 99 92 94 97 99 98 99 87 71 81 75 80 81 71 74 79 87 95 95 96 97

GFSNW_sfc_rhum_078.txt.gz
RH
70 72 72 70 70 76 87 94 94 82 88 90 97 96 78 77 73 85 83 87 90 65 62 76 79 78 65 56 58 68 69 78 94 83 79 64 78 84 84 95 99 94 90 71
71 72 71 70 69 74 97 96 95 82 78 96 95 74 74 71 71 68 67 67 59 58 63 75 75 68 55 55 56 57 59 87 98 98 93 84 99 87 74 79 88 90 89 67
71 72 70 70 70 74 94 95 93 90 92 90 88 89 80 69 65 70 68 62 60 58 60 66 73 72 65 61 53 66 62 78 79 88 75 84 90 90 92 83 91 83 85 58
71 71 71 70 73 73 86 97 95 92 98 93 90 84 76 65 70 63 68 63 77 79 67 70 76 72 69 58 58 58 57 79 77 72 75 77 78 81 83 81 70 82 61 59
72 71 72 70 74 72 94 97 98 91 99 93 96 81 77 68 67 75 79 82 78 75 84 80 80 69 75 70 60 64 70 89 79 88 69 74 82 78 80 72 65 68 68 63
73 71 72 70 69 79 97 97 90 93 87 94 93 87 79 77 71 72 67 72 85 79 72 72 72 74 64 66 66 68 72 84 88 91 80 78 85 77 84 81 71 62 71 54
75 72 70 70 68 80 95 94 89 85 90 93 86 77 74 76 72 76 64 65 81 68 71 73 78 73 62 62 72 63 76 82 86 92 84 97 56 67 64 71 68 65 59 54
77 74 69 69 68 67 93 95 97 89 96 93 70 71 71 75 73 77 73 71 70 76 80 75 67 71 69 71 72 72 67 78 87 91 92 67 72 71 74 76 74 64 63 56
82 79 72 68 67 67 90 95 95 97 98 80 80 78 75 89 94 85 78 66 72 79 85 88 88 85 68 70 65 70 70 75 82 92 93 88 76 71 63 69 90 68 60 58
84 84 79 71 69 68 88 92 87 95 98 85 73 75 72 61 86 88 83 84 83 76 89 99 98 83 65 76 73 83 82 78 86 88 93 78 64 77 68 89 76 69 62 62
86 86 85 79 73 69 85 89 88 85 97 87 72 60 67 70 80 87 88 87 89 94 94 96 89 89 72 78 75 78 74 84 86 83 79 83 66 64 71 70 67 68 74 76
88 88 88 84 78 71 80 95 80 76 85 82 72 69 63 59 59 78 83 96 88 92 93 92 93 88 80 79 76 75 71 65 71 69 69 53 63 64 60 64 68 74 67 74
87 84 82 83 86 80 80 87 90 94 97 87 92 82 59 59 62 55 76 81 85 86 95 98 96 96 81 88 81 78 75 71 66 66 62 61 65 65 64 62 72 76 69 67
75 74 74 82 89 84 80 93 90 92 97 99 83 51 58 56 60 64 61 62 65 78 88 97 93 96 72 78 71 77 68 69 71 71 65 63 62 70 72 75 74 74 76 73
73 77 79 81 89 84 87 91 95 91 96 97 93 78 69 61 65 60 61 68 74 90 97 98 95 91 82 85 83 80 72 71 76 76 61 63 74 80 73 74 77 76 77 78
83 85 85 86 85 85 93 91 92 90 94 100 98 80 80 62 60 67 66 68 79 90 98 98 90 79 78 92 93 70 64 61 58 60 68 71 75 76 80 78 80 80 81 82
86 86 86 84 84 93 96 88 92 82 88 95 96 92 70 61 75 77 89 75 88 89 89 88 89 89 84 93 92 66 59 59 63 68 69 80 81 81 79 77 78 75 82 80
86 86 82 84 78 82 95 90 81 86 92 92 98 92 84 87 98 95 91 94 92 93 92 93 98 92 92 98 89 76 71 64 76 81 79 75 78 78 83 84 82 86 86 87
84 82 80 88 92 97 92 80 85 90 90 98 90 100 98 88 88 97 95 93 99 92 94 94 90 92 98 88 84 78 76 75 79 87 84 83 84 86 87 86 87 89 88 89
80 89 93 96 95 80 80 91 96 100 100 98 94 87 96 91 95 98 99 96 99 99 89 93 96 93 82 84 85 90 89 88 87 86 89 90 91 88 89 90 85 83 86 90
94 98 96 95 85 93 91 96 94 96 96 92 86 95 96 96 99 99 98 100 99 97 98 89 89 87 97 92 92 90 88 87 88 85 84 85 84 88 88 86 84 84 85 85
91 92 90 92 93 88 94 94 95 93 96 92 96 98 99 99 98 100 98 100 100 99 95 100 91 92 94 91 92 91 90 91 90 84 86 87 88 91 91 90 90 93 93 88
91 90 95 96 92 96 91 98 97 96 100 100 99 93 99 99 99 99 100 100 99 99 100 98 96 94 93 92 93 90 88 86 88 93 92 89 90 91 96 98 97 94 94 87
90 94 99 96 97 92 95 97 98 98 99 98 96 96 98 99 100 100 100 99 100 98 98 96 99 100 100 99 99 98 99 98 92 90 89 93 94 95 92 92 90 92 90 88
96 90 97 100 93 98 99 99 97 97 98 98 98 96 98 98 99 99 99 99 98 98 98 100 99 100 100 99 100 100 100 100 100 99 95 92 91 93 94 93 89 96 97 96
98 93 93 92 94 95 99 97 98 94 98 98 99 98 99 97 99 98 99 98 98 99 99 99 97 99 100 100 100 100 100 100 99 95 87 84 82 84 95 92 91 93 96 98
99 99 94 99 98 95 96 82 87 91 98 92 98 97 92 96 98 100 98 99 99 100 99 98 94 95 98 99 98 99 99 96 87 75 74 80 67 72 72 83 91 94 95 96

GFSNW_sfc_rhum_081.txt.gz
RH
73 72 70 70 70 76 87 94 91 89 89 92 98 94 79 76 78 88 88 91 92 80 71 84 80 90 87 65 70 86 71 85 98 95 85 74 83 84 88 95 97 92 92 72
73 72 71 70 70 76 97 96 96 85 78 94 95 77 72 77 76 74 78 77 78 66 71 80 75 69 62 60 58 68 70 88 98 92 84 87 90 79 71 78 91 97 90 72
73 72 72 70 70 73 93 94 93 86 92 93 92 89 83 73 72 76 69 74 70 74 67 71 79 72 70 61 56 66 62 80 80 87 75 89 100 95 85 87 94 88 90 69
73 73 73 70 70 72 84 97 98 88 95 94 96 93 83 77 75 67 73 76 82 84 84 76 81 74 68 59 60 64 60 84 81 75 78 78 83 86 94 92 82 85 73 66
74 73 73 70 71 69 95 96 97 95 98 96 95 87 85 78 74 82 78 86 81 86 84 80 83 77 78 70 64 65 71 90 79 86 71 77 81 80 89 89 83 77 69 68
75 74 73 71 71 75 95 97 92 92 86 94 92 92 72 73 66 85 75 83 87 87 77 71 75 78 77 71 76 71 74 86 83 85 80 79 79 78 85 80 74 68 73 56
75 75 72 71 68 80 94 95 96 95 79 74 66 71 70 76 70 78 82 80 79 72 80 80 83 85 76 70 77 66 78 79 83 94 84 88 54 74 66 71 71 69 61 53
78 76 72 69 68 72 92 96 96 96 88 84 76 78 68 71 76 79 78 79 80 77 82 81 71 73 69 76 78 77 71 84 90 93 93 72 72 75 77 79 71 65 62 57
84 82 79 72 67 71 90 95 95 96 96 79 82 86 84 90 82 75 86 71 79 79 90 97 92 95 78 80 77 75 74 78 83 94 93 85 73 78 64 69 85 75 64 62
86 87 86 81 73 70 86 91 88 94 97 87 82 83 81 76 82 84 70 89 88 88 93 99 99 90 70 77 74 88 82 80 82 88 94 79 62 77 70 90 74 75 68 65
86 87 88 87 81 73 84 80 89 88 96 91 79 68 69 75 82 91 78 73 97 95 98 99 94 94 78 79 75 77 77 88 91 83 83 84 69 75 75 70 76 78 78 75
86 88 88 86 86 79 81 92 83 79 87 90 73 66 63 64 70 82 81 88 69 92 96 96 96 91 83 80 84 78 75 67 77 68 68 52 61 71 64 65 67 80 68 80
79 78 76 76 80 84 84 88 86 89 97 92 89 78 69 72 74 67 86 75 73 86 95 98 97 98 86 90 82 79 76 70 66 66 62 62 63 74 69 67 74 80 73 74
68 68 69 75 80 86 85 95 90 92 97 99 88 61 69 57 66 73 67 66 69 68 70 95 98 99 80 83 77 80 68 72 71 72 65 64 64 72 74 79 75 77 76 74
71 74 78 80 79 85 91 92 91 90 90 94 91 79 76 61 68 73 73 74 79 88 85 96 99 96 87 91 89 82 70 72 76 76 61 60 63 76 77 79 82 80 78 77
80 83 85 86 85 83 91 88 90 95 90 100 95 80 79 67 64 72 73 78 83 90 96 94 96 86 87 93 94 72 68 63 61 60 63 73 82 79 80 80 81 81 79 82
84 85 87 87 82 92 92 86 88 80 88 98 91 93 75 67 79 84 91 79 89 89 88 90 88 87 87 97 96 71 63 62 63 65 75 83 84 81 80 78 78 76 83 83
85 86 85 84 77 81 93 92 82 87 96 92 95 94 82 86 93 97 93 92 92 97 93 93 95 92 89 98 86 82 85 73 71 81 83 77 84 84 85 86 83 86 87 89
83 82 79 89 93 96 93 85 85 93 92 96 98 100 96 86 90 94 97 93 99 92 98 98 90 96 98 85 82 78 79 80 80 88 86 85 86 88 87 86 87 89 89 89
82 88 92 98 93 79 82 88 97 99 100 95 97 92 98 94 96 97 100 97 99 99 94 89 96 95 80 93 91 93 90 91 88 88 91 92 92 88 88 90 89 89 88 87
94 97 90 96 83 91 94 96 96 92 89 84 88 94 94 95 96 96 95 98 100 99 93 98 97 92 94 92 92 92 91 91 91 88 86 85 84 87 88 87 87 88 88 89
89 92 90 91 88 89 94 95 95 92 94 92 96 96 96 98 98 99 96 99 100 98 97 100 97 85 94 92 93 94 94 92 93 84 86 87 89 91 90 92 95 96 93 89
91 84 92 88 95 94 90 98 92 93 98 97 98 96 92 97 99 99 100 99 98 98 100 98 99 99 99 98 99 98 86 86 91 89 86 86 91 91 94 96 92 86 85 82
89 93 100 93 99 88 95 95 96 94 95 99 98 98 94 95 98 99 100 99 100 98 98 96 99 99 99 100 99 99 99 98 91 90 88 93 95 93 90 83 88 90 93 96
97 92 93 99 94 98 99 99 97 97 99 97 96 97 98 99 100 99 99 99 98 98 98 99 99 100 100 100 100 100 100 100 100 99 96 92 86 86 93 95 95 95 96 97
95 94 97 88 98 97 100 98 98 98 91 95 98 98 99 97 99 98 97 98 98 98 99 99 99 99 100 100 100 100 100 100 99 99 88 82 81 81 90 86 90 93 98 99
100 100 92 98 98 95 98 93 90 95 94 92 98 94 95 96 98 95 96 95 99 99 99 100 99 96 94 99 99 99 99 99 96 83 71 76 65 68 70 87 92 94 95 94

GFSNW_sfc_rhum_084.txt.gz
RH
73 71 70 70 70 77 84 93 91 94 92 94 98 95 82 76 82 88 90 94 93 92 78 95 98 99 92 84 75 90 83 87 98 97 91 79 87 87 87 94 95 91 94 79
74 72 71 69 69 79 96 94 95 88 86 94 96 84 76 78 80 77 84 88 88 75 75 83 84 84 63 68 82 79 71 88 98 98 89 89 94 88 83 84 92 95 94 77
74 74 72 69 70 74 92 90 87 85 92 94 96 98 92 82 68 81 75 79 74 79 74 75 85 97 80 66 60 68 61 80 82 87 74 85 99 95 86 85 98 89 92 77
74 74 72 70 69 72 77 95 96 84 92 91 98 98 93 88 80 74 71 79 91 89 86 79 81 72 81 67 60 63 65 87 82 78 77 90 92 93 92 90 80 85 82 74
74 74 73 70 69 65 94 87 91 95 97 92 97 90 92 79 76 83 94 88 95 82 86 85 83 74 72 67 60 65 72 87 78 88 82 84 85 87 92 87 78 88 78 76
75 74 74 71 70 68 88 97 93 96 80 84 85 90 72 70 72 65 74 73 97 97 82 70 78 80 80 76 71 70 75 85 82 81 81 77 74 76 87 88 87 82 91 66
76 75 73 71 72 76 88 96 96 88 71 75 61 71 74 71 73 82 65 67 94 92 87 76 85 87 84 77 78 69 76 77 81 95 83 82 53 74 70 76 78 75 72 61
80 78 73 70 71 72 90 97 93 93 85 75 75 77 76 77 71 74 63 85 86 88 95 88 84 83 79 80 77 80 73 84 91 93 93 69 70 80 79 80 69 68 69 62
82 83 82 76 70 73 91 96 95 96 94 81 75 89 89 93 91 86 70 65 84 92 91 98 97 98 85 86 75 79 77 79 84 94 92 80 69 79 73 73 84 75 70 65
87 86 86 84 76 75 83 92 88 93 95 87 86 91 90 78 92 97 84 81 95 92 94 99 98 87 71 82 83 90 86 80 91 80 91 81 64 71 75 88 72 75 74 72
86 85 87 88 85 79 83 86 86 79 91 92 82 78 82 84 89 92 85 79 90 97 99 99 99 97 83 79 75 81 82 90 92 83 91 88 60 77 81 66 71 74 81 76
84 82 83 84 86 85 82 94 80 74 86 91 79 72 70 69 73 80 80 90 82 96 99 98 99 98 99 85 85 78 75 70 77 77 78 57 58 73 72 67 68 76 71 83
80 78 75 73 79 85 82 90 88 91 96 91 91 75 67 78 80 73 91 86 81 92 91 99 99 97 92 98 91 75 77 68 69 70 68 65 61 73 74 76 72 78 80 80
70 68 68 75 77 84 83 94 91 90 96 95 86 67 74 67 71 81 77 73 73 77 80 93 97 99 89 85 80 84 68 73 74 75 68 68 64 73 77 81 74 78 80 79
70 73 78 80 80 85 90 94 92 89 90 95 93 82 73 71 70 72 79 83 86 90 90 96 95 95 93 93 92 88 75 71 74 74 63 63 64 76 81 82 84 82 79 79
82 85 85 86 89 84 90 90 91 96 90 93 97 82 82 72 60 79 84 88 88 89 95 96 97 88 96 93 96 74 73 68 65 61 66 73 85 85 83 80 81 81 79 79
84 86 88 86 78 90 90 85 87 88 91 94 96 91 76 69 72 86 92 86 92 93 92 95 90 91 85 91 84 74 76 71 66 64 80 84 85 85 83 82 82 80 86 86
87 87 85 79 77 83 94 94 82 86 90 84 94 92 82 80 95 93 94 94 96 90 94 94 95 90 94 96 84 81 84 82 85 77 84 81 87 86 87 87 84 86 89 89
85 81 79 88 91 95 97 85 85 93 92 96 94 99 97 85 88 92 96 94 98 92 97 95 94 94 96 84 86 86 90 88 82 89 87 87 88 90 88 87 87 89 90 90
82 89 91 98 92 78 83 88 96 98 98 88 92 93 95 89 93 95 92 98 95 99 92 91 98 97 88 95 92 94 91 92 90 89 90 91 92 89 90 93 92 92 93 92
94 96 91 99 85 94 92 97 96 92 85 83 86 90 96 93 97 95 92 99 96 99 94 98 98 94 94 89 93 94 94 94 93 91 90 86 85 91 88 90 93 91 91 92
88 91 92 92 87 85 83 96 97 85 94 92 94 94 97 97 99 99 95 99 98 94 98 99 98 91 96 98 96 96 90 89 90 84 88 89 90 90 92 96 96 90 85 84
88 86 94 88 95 92 94 98 89 95 94 98 98 96 86 94 99 99 99 99 95 99 99 98 99 98 97 99 99 99 97 88 90 92 88 86 91 89 91 93 88 91 93 92
88 91 100 93 99 88 94 93 94 93 93 97 98 91 92 92 100 99 99 90 98 98 98 97 98 98 98 99 99 99 99 99 99 98 87 89 90 91 89 86 84 88 89 97
94 89 89 99 92 98 98 98 98 97 97 99 93 92 96 98 99 99 99 97 98 98 98 99 98 99 100 100 100 100 100 100 100 100 99 97 81 73 86 95 92 92 96 96
95 95 97 89 98 98 100 95 99 98 94 97 97 97 99 98 98 99 96 98 97 98 99 99 99 98 99 100 100 100 100 100 100 99 96 81 81 84 92 89 91 92 97 98
99 100 92 96 98 96 99 97 93 96 92 96 98 96 94 97 94 93 94 97 99 99 99 100 99 99 98 98 99 99 100 99 98 88 70 72 66 62 65 78 88 92 93 96

GFSNW_sfc_rhum_087.txt.gz
RH
74 73 71 69 70 76 82 94 86 96 84 97 98 97 84 73 82 89 82 91 87 98 89 94 99 100 98 74 70 90 83 88 97 92 88 82 86 85 76 89 95 88 84 59
74 73 72 69 69 81 94 90 94 90 86 97 98 90 86 80 78 82 90 91 87 79 73 96 92 98 73 79 76 83 77 88 97 96 86 89 99 86 78 82 88 93 86 66
73 74 73 69 68 75 89 81 84 80 92 95 95 94 89 93 72 84 87 85 85 82 78 70 90 100 83 81 80 74 67 80 82 86 71 84 99 92 81 83 96 90 86 66
72 74 73 69 67 68 73 91 96 92 90 84 96 87 85 72 74 70 70 89 96 99 96 77 80 99 97 85 74 71 70 95 79 78 74 88 88 91 92 91 80 84 67 70
73 73 73 69 66 65 90 82 88 94 94 91 90 83 82 73 66 75 73 89 81 95 98 99 99 86 99 97 76 78 70 84 76 86 80 80 84 85 89 87 82 81 80 79
75 72 73 69 67 63 86 98 94 89 73 78 76 83 71 73 73 68 68 71 83 92 98 96 96 77 74 70 78 78 74 80 82 84 78 73 70 73 88 88 86 75 85 62
77 73 73 72 70 71 86 96 94 82 72 73 66 72 76 78 75 84 70 72 87 92 84 82 90 91 85 70 72 65 73 74 77 91 78 80 50 70 71 81 80 81 78 70
80 77 73 73 69 70 90 98 90 88 86 75 74 76 84 84 77 78 70 68 88 84 94 97 86 87 80 82 84 77 69 78 88 86 87 63 67 75 76 75 66 67 74 69
83 82 79 74 74 72 92 96 94 94 91 81 76 89 91 94 97 90 76 68 78 91 98 96 96 97 86 90 87 79 77 76 80 89 89 73 59 76 66 67 78 66 69 68
84 84 85 82 76 73 78 92 82 92 94 87 86 89 90 84 90 97 86 83 95 95 99 98 98 89 78 86 85 89 86 81 87 77 81 75 62 61 70 81 70 74 72 69
87 87 88 88 84 81 81 95 84 78 95 91 84 80 87 89 93 97 84 84 88 91 97 99 98 96 90 82 80 86 84 88 92 86 88 85 56 78 80 64 67 72 77 71
89 86 85 86 89 85 79 96 82 74 94 92 81 77 70 71 75 87 91 89 92 97 92 95 98 95 99 91 86 80 78 72 78 76 75 58 56 70 67 63 69 72 70 79
86 83 82 80 85 86 82 91 91 91 96 94 86 78 76 83 79 73 91 90 81 79 91 94 96 98 88 98 98 80 78 71 71 72 65 64 61 62 69 74 71 72 78 77
80 76 76 77 81 82 79 94 90 93 96 97 84 69 81 77 78 82 78 75 80 76 89 95 96 95 95 95 86 87 71 76 75 76 68 65 62 65 72 80 73 73 77 76
70 71 77 80 83 81 89 94 93 89 89 92 93 78 79 73 68 77 81 82 90 94 91 96 98 91 92 95 94 95 80 74 76 71 65 67 66 73 79 78 81 79 76 77
77 79 81 85 84 81 91 93 92 96 92 94 96 82 83 78 64 77 90 86 92 94 96 96 95 89 98 91 96 78 75 71 69 66 69 67 79 86 81 79 80 78 80 80
83 86 88 88 82 93 92 82 87 89 89 91 95 88 76 75 80 86 93 90 93 93 94 97 92 86 91 90 84 70 79 81 81 72 72 81 86 85 86 81 83 82 87 87
85 86 82 76 78 82 92 96 83 84 90 86 98 91 79 80 90 97 90 94 96 95 96 95 95 90 93 95 79 83 83 85 81 85 84 83 88 87 88 87 83 87 89 89
87 80 76 82 88 96 94 85 85 92 87 98 95 98 95 84 90 95 97 94 98 89 96 95 95 96 93 88 94 93 94 95 93 89 89 88 89 90 88 87 87 89 92 92
78 85 87 97 94 85 83 89 95 98 96 86 88 94 98 92 96 93 98 99 98 99 90 94 96 96 92 95 94 95 93 91 91 91 91 92 93 89 92 94 94 95 96 95
92 94 98 98 84 94 90 94 94 90 86 82 89 93 98 90 99 96 93 100 99 99 96 98 98 96 97 96 99 92 94 94 93 92 92 93 88 92 91 94 94 90 88 90
87 91 92 94 91 85 88 96 96 81 92 94 96 95 97 95 99 99 98 100 100 95 98 100 92 98 98 98 99 99 97 88 90 89 93 92 95 92 94 92 87 87 84 85
87 86 93 87 94 97 93 100 93 91 97 98 97 98 91 96 100 100 99 99 96 99 100 98 98 99 96 98 99 99 99 99 99 99 98 92 89 88 89 89 85 86 92 95
87 92 99 91 98 94 92 90 93 93 98 98 98 98 97 95 99 98 100 90 99 98 98 98 99 98 98 98 99 100 100 99 99 98 94 80 78 85 90 92 91 90 94 96
92 88 89 99 91 98 98 97 98 98 96 99 98 96 90 96 99 95 99 98 98 97 97 99 99 98 99 99 100 100 100 100 100 100 99 98 90 68 82 87 82 84 93 92
94 93 95 94 97 99 99 95 96 98 97 98 97 94 99 94 98 98 96 98 96 96 99 99 99 98 99 99 100 100 100 100 100 99 98 88 85 79 88 86 85 88 95 96
98 100 94 96 98 96 98 86 95 96 94 96 99 95 91 96 96 96 92 96 95 98 99 100 99 99 98 97 99 99 100 100 99 98 80 64 68 59 66 77 85 88 90 96

GFSNW_sfc_rhum_090.txt.gz
RH
74 73 72 70 68 76 76 72 83 87 80 88 89 75 60 70 60 65 75 85 98 98 88 86 99 100 95 47 51 65 60 92 94 97 74 60 88 67 55 74 82 69 60 38
74 72 71 70 67 76 72 59 74 74 84 91 76 56 61 67 53 62 64 87 89 95 98 80 83 100 86 56 58 66 65 87 95 98 90 87 94 79 60 62 75 82 52 38
73 71 72 70 65 78 57 48 85 54 60 59 64 77 65 55 44 60 47 90 71 76 94 62 76 100 92 73 62 74 72 69 76 67 56 68 100 77 63 88 90 62 57 41
72 71 73 69 64 71 49 59 80 72 58 54 58 69 58 55 60 51 52 56 59 99 92 92 93 98 97 89 82 81 68 86 67 66 63 65 71 74 73 94 68 85 46 52
72 71 71 69 63 65 62 58 73 68 57 62 53 55 52 59 61 61 59 66 65 88 95 100 99 98 100 100 89 94 76 81 64 78 63 65 70 68 68 66 60 57 55 52
72 73 71 68 62 54 56 80 75 59 58 51 49 59 59 61 62 53 54 59 74 81 92 71 74 80 92 75 90 74 68 70 70 78 63 57 59 52 66 67 64 57 70 48
74 75 72 68 68 61 54 71 71 50 49 45 50 59 63 64 64 73 58 55 66 64 62 68 67 76 77 62 56 55 58 56 60 64 57 52 43 48 53 57 57 59 55 52
75 75 74 70 68 67 62 75 66 63 55 50 55 62 65 63 60 66 62 54 57 66 87 94 72 64 63 64 62 57 53 55 65 63 54 48 59 58 55 56 55 51 53 49
79 77 76 71 69 71 64 71 65 73 60 52 56 65 67 68 62 56 61 53 58 84 97 87 79 76 58 67 68 57 58 55 57 69 67 52 53 53 49 50 66 54 54 50
84 82 80 78 73 70 66 72 71 70 68 60 64 62 64 65 67 69 64 63 87 67 85 89 84 63 56 60 59 64 62 64 69 60 64 48 44 51 52 65 65 55 59 54
86 85 85 82 80 73 68 76 72 64 66 67 66 63 69 68 68 62 56 63 71 82 82 86 92 76 65 61 54 58 54 58 60 63 64 66 42 57 62 52 54 59 61 52
87 88 89 87 84 80 74 84 71 63 68 73 65 62 60 60 58 66 68 69 76 91 80 76 85 79 96 73 58 55 57 48 47 49 44 42 40 51 47 49 55 57 58 60
89 89 88 88 87 83 77 78 77 74 77 70 58 59 56 66 61 54 62 65 70 69 70 80 84 98 90 76 73 67 51 49 47 53 46 45 43 42 44 51 56 58 59 57
89 83 82 85 87 82 73 81 77 79 80 66 59 55 61 58 65 65 62 62 63 63 61 72 77 91 94 88 70 65 50 53 54 51 47 44 46 49 48 58 64 60 60 59
86 84 82 86 86 80 84 83 79 76 76 64 64 58 60 58 60 65 66 69 74 73 72 74 75 74 86 83 74 67 52 52 49 48 49 50 46 57 58 60 64 63 61 63
80 81 82 86 84 78 83 81 76 82 76 79 64 64 61 55 58 66 72 74 75 74 75 71 68 64 70 78 73 57 54 54 52 55 50 50 50 64 64 65 65 64 64 64
82 85 86 85 79 89 85 67 78 80 75 78 74 60 57 57 67 73 74 75 75 73 71 76 70 64 76 75 61 60 58 57 56 58 63 58 64 64 68 66 70 71 69 70
86 88 86 79 79 79 90 84 79 74 77 70 83 69 60 64 72 88 76 78 80 82 74 77 75 64 68 69 59 64 65 66 62 66 66 66 69 70 73 70 69 73 72 72
89 84 76 80 83 90 91 83 80 83 72 85 80 85 84 68 74 79 96 79 89 78 86 80 80 78 86 63 78 75 78 80 79 78 72 72 74 77 75 73 73 73 78 77
79 77 86 97 92 85 82 84 86 84 81 76 77 77 82 76 80 80 80 98 89 96 76 78 96 78 78 87 93 83 81 83 83 88 78 81 84 79 77 78 77 78 82 82
88 92 98 96 85 87 85 89 88 80 83 76 73 74 78 82 88 86 81 96 94 95 84 89 86 82 92 96 98 99 98 96 83 80 80 81 77 74 78 83 82 78 79 80
86 90 93 97 93 84 84 90 88 80 80 80 83 81 83 85 88 89 87 94 98 85 96 99 80 88 83 86 98 99 99 99 98 89 94 89 85 82 82 78 77 80 77 76
85 90 97 87 89 94 94 97 93 93 87 87 90 92 82 93 93 92 89 94 88 97 99 85 84 88 85 90 93 96 98 99 99 99 99 98 96 87 79 77 71 68 70 75
90 95 98 93 96 88 85 77 84 80 88 89 90 86 81 81 89 89 94 79 96 92 95 87 85 93 94 95 94 97 97 99 99 99 95 89 65 69 75 76 63 61 67 75
95 94 90 97 84 94 89 92 94 92 89 87 87 84 76 92 89 84 90 94 92 84 86 85 87 97 98 98 100 100 100 100 100 100 100 98 96 78 83 78 62 61 68 68
96 94 95 87 92 99 95 97 98 91 88 86 83 87 88 84 86 95 92 90 90 84 94 87 87 92 95 94 99 100 100 100 100 100 100 89 83 75 76 78 73 67 70 74
96 98 82 87 90 92 86 80 80 82 81 90 97 99 98 88 93 90 80 88 85 93 94 94 91 84 81 82 85 99 100 100 100 99 97 91 66 56 60 60 68 72 70 74

GFSNW_sfc_rhum_093.txt.gz
RH
76 74 74 71 67 77 80 55 76 76 70 80 71 64 48 61 42 43 60 82 96 98 98 89 100 97 75 38 35 56 76 91 94 98 71 51 65 72 52 74 66 61 62 40
76 74 73 71 67 79 47 34 62 67 72 79 70 41 47 39 42 52 44 74 74 56 98 95 94 100 78 51 44 74 77 86 96 99 90 85 86 74 69 51 78 78 62 42
76 74 73 72 67 74 56 35 85 46 40 40 47 56 54 46 40 46 47 51 53 59 62 80 93 100 86 55 53 80 75 94 97 77 65 64 96 75 55 86 86 46 48 37
74 73 72 70 66 76 49 42 69 46 46 44 42 46 47 49 53 44 41 47 52 99 77 57 78 100 97 82 78 80 84 98 61 55 54 55 68 68 61 97 63 83 44 42
73 71 70 68 65 71 42 39 59 42 37 44 41 44 44 52 54 52 49 57 58 73 81 93 95 93 100 100 89 95 68 80 59 75 56 56 65 57 59 58 54 51 49 49
72 72 67 65 68 65 43 54 53 42 47 40 40 46 50 54 54 47 47 55 60 72 70 56 60 64 73 90 94 81 60 60 66 76 55 52 66 57 59 57 53 53 65 47
73 74 67 66 63 61 42 49 43 39 34 32 39 50 52 52 55 64 51 49 55 52 54 64 64 63 65 60 56 49 52 50 53 53 48 58 43 39 44 51 46 47 50 46
75 77 71 68 67 64 51 52 47 40 33 35 47 50 53 49 48 54 53 47 48 55 81 71 59 60 58 54 50 48 46 48 53 58 44 46 56 53 48 52 54 48 50 45
80 78 72 70 69 64 56 59 53 51 35 40 46 50 53 51 47 48 52 47 52 74 89 68 67 66 51 54 57 49 50 49 54 58 63 47 50 47 44 44 63 50 51 48
83 80 75 72 69 66 59 64 62 52 44 49 50 46 50 52 52 52 49 57 78 63 75 77 83 59 49 54 52 53 54 54 61 51 57 43 39 46 46 68 83 54 54 48
84 83 80 77 73 70 61 67 62 60 48 58 56 55 55 54 53 51 49 60 68 76 71 71 74 78 58 58 46 49 50 52 53 53 59 60 38 53 58 50 47 53 54 47
85 86 82 82 76 72 65 69 57 51 56 63 56 53 54 56 53 59 52 60 68 75 73 69 72 77 86 64 63 46 52 44 53 48 47 39 35 40 38 43 46 53 54 52
87 89 86 84 82 75 67 66 65 58 59 59 51 52 49 52 53 47 64 55 62 62 62 68 74 84 72 64 78 62 44 42 44 47 43 40 39 38 40 40 51 56 54 53
87 85 87 89 86 77 67 68 65 63 62 54 54 47 52 50 52 56 54 56 53 55 53 65 66 79 88 78 83 65 50 48 46 44 42 41 44 48 44 50 56 56 54 56
86 87 88 90 85 76 71 70 67 64 69 53 54 51 52 48 50 55 58 60 63 62 63 67 66 60 70 76 70 61 44 51 53 75 47 48 43 42 53 53 58 57 57 59
88 88 89 89 81 75 70 76 72 68 64 68 59 55 54 47 54 59 61 66 65 64 65 61 56 48 56 64 63 50 48 47 51 54 47 48 46 50 57 58 60 57 57 58
88 89 89 82 77 88 79 67 76 69 63 69 69 55 51 50 62 66 67 66 67 68 64 67 61 54 67 65 56 61 48 49 50 49 56 51 57 62 62 60 63 64 63 64
86 89 83 80 79 76 83 74 73 65 67 63 82 64 58 58 70 83 70 73 70 69 64 64 66 56 55 63 43 54 59 60 54 60 62 61 58 62 67 64 64 66 67 66
88 84 77 80 79 87 86 80 75 74 71 79 76 88 88 63 66 71 91 79 90 72 77 68 67 66 76 54 61 68 71 75 76 72 69 65 67 67 69 69 68 67 71 71
82 72 77 95 92 85 83 79 80 80 78 72 72 64 80 67 69 77 83 94 87 95 73 72 90 72 53 78 88 92 88 85 83 87 79 79 76 74 69 69 70 71 74 75
80 84 96 97 83 83 78 89 84 78 86 72 63 62 71 73 81 77 71 90 90 89 85 84 76 69 76 79 80 91 98 96 96 90 77 74 77 75 73 76 73 70 71 72
83 86 89 93 88 82 83 86 86 84 74 72 75 73 73 80 80 84 81 86 96 81 90 98 76 66 73 73 83 84 97 97 98 97 96 98 97 90 78 73 71 71 70 66
81 80 94 83 90 90 90 92 91 88 81 83 88 91 74 85 90 87 86 95 81 81 95 75 70 84 76 76 84 87 85 92 97 98 99 98 97 96 97 95 68 55 56 61
83 98 88 89 94 82 84 75 86 80 84 86 79 83 76 72 92 82 86 68 86 90 91 79 78 92 86 82 89 90 88 96 97 99 98 91 67 69 67 63 50 50 54 64
98 98 85 93 86 93 91 93 92 86 80 80 79 80 69 87 87 76 87 93 82 71 77 79 84 98 98 94 99 99 100 98 97 100 100 100 98 94 95 91 67 53 58 60
99 94 93 87 92 96 94 97 96 89 78 73 76 84 82 82 81 88 86 81 83 80 95 85 83 93 97 88 92 100 100 100 100 100 100 100 98 96 86 84 84 81 72 70
98 97 83 91 94 91 85 76 82 72 73 87 90 96 85 83 87 85 74 83 84 97 91 82 78 74 68 72 68 80 95 100 100 100 100 99 99 96 81 68 78 79 74 67

GFSNW_sfc_rhum_096.txt.gz
RH
80 77 75 73 69 75 83 75 96 78 77 96 88 86 50 55 40 44 51 80 89 76 88 97 100 93 72 40 36 57 84 98 97 90 67 57 66 73 76 97 77 95 91 64
81 77 74 72 70 80 71 61 78 77 79 92 88 49 45 38 44 50 49 63 56 57 87 99 94 100 72 62 44 94 84 95 99 99 94 83 90 75 74 75 89 86 95 62
82 77 75 74 72 70 89 57 95 70 73 50 59 68 59 48 47 43 42 46 52 71 64 68 93 100 82 67 68 78 79 94 99 98 81 81 96 77 70 92 96 66 95 52
78 76 75 74 71 71 85 60 86 62 73 60 50 50 48 49 54 44 42 50 60 94 82 70 83 94 96 75 77 79 83 100 96 63 59 66 77 83 73 87 76 84 60 51
76 75 75 72 70 76 74 62 73 55 45 47 47 51 52 53 55 51 48 59 60 73 82 87 92 84 94 99 80 88 84 96 72 87 58 62 78 68 66 68 63 61 59 64
76 76 74 71 71 76 63 64 61 58 52 47 52 59 54 53 53 48 46 55 64 70 67 61 58 64 69 79 90 89 74 94 84 94 65 62 82 68 68 67 63 63 75 60
78 74 71 69 72 76 60 59 53 59 50 45 45 47 50 51 53 62 50 50 58 60 61 70 74 71 67 68 72 78 70 64 67 81 73 84 60 47 54 60 54 56 54 53
79 75 71 69 70 72 67 64 60 61 47 46 47 50 53 53 51 59 52 49 56 63 80 89 71 74 67 62 60 60 58 69 74 84 65 64 68 62 60 67 67 56 60 56
80 76 73 71 71 66 71 76 70 69 52 54 44 53 58 62 60 61 57 53 61 73 88 82 81 86 62 73 72 58 56 63 78 82 84 72 71 59 51 56 85 60 62 63
83 80 78 72 72 70 74 81 75 75 66 59 57 59 60 60 66 68 60 66 85 76 88 76 82 73 58 69 65 72 72 72 82 78 82 64 56 56 57 88 92 68 67 62
84 78 76 73 74 72 76 82 73 80 70 70 58 56 61 65 65 71 65 73 84 89 84 78 73 82 80 85 60 66 60 72 74 73 80 80 56 66 75 62 66 66 71 63
85 80 77 75 71 71 70 85 61 60 78 78 60 59 58 60 62 73 64 72 76 75 78 84 79 86 90 69 75 68 68 63 72 64 66 50 49 51 48 49 53 71 69 67
88 83 79 76 73 70 73 80 77 72 73 73 68 63 60 54 58 56 84 74 61 63 71 78 81 91 92 79 85 82 62 54 62 58 57 54 55 54 54 55 72 71 68 68
86 82 82 78 77 71 71 84 79 78 74 75 76 51 62 56 57 60 63 68 61 65 72 71 72 84 87 83 91 88 70 64 61 60 58 64 60 59 64 64 67 68 66 68
88 85 87 84 75 75 78 82 82 76 85 75 74 57 60 53 56 62 66 67 71 67 78 81 78 70 82 78 77 86 58 70 84 92 63 63 61 58 67 68 73 75 70 74
88 89 91 84 80 76 82 92 87 76 80 85 81 69 63 58 62 68 70 66 67 71 69 70 70 58 72 86 70 68 65 59 57 66 64 67 65 63 72 73 71 70 70 71
90 92 88 83 79 89 93 89 90 70 78 85 86 79 63 65 68 76 80 76 72 72 69 82 70 72 83 82 79 71 66 68 65 68 69 70 70 79 75 73 74 72 77 75
93 89 82 77 77 78 89 84 75 75 79 78 95 87 78 67 86 87 80 75 74 79 82 74 81 72 77 82 58 72 78 76 68 76 75 76 72 71 82 78 74 78 81 76
87 81 73 78 86 94 94 78 77 85 87 96 92 94 98 77 80 86 91 84 94 82 84 75 74 72 80 72 80 89 91 87 86 82 79 78 82 81 84 85 84 82 81 81
75 74 85 98 98 83 80 87 89 94 92 86 93 81 98 84 76 85 92 93 92 99 85 83 91 78 74 90 82 82 87 93 90 97 89 88 88 84 76 81 76 77 80 82
90 93 98 97 80 89 86 94 94 92 97 88 83 84 95 84 84 83 72 91 96 94 95 92 90 72 89 89 85 82 91 97 95 91 94 86 90 94 89 79 76 76 76 81
86 90 90 95 95 90 92 94 92 91 89 84 92 91 94 86 78 81 88 88 96 89 90 97 77 83 86 85 89 86 88 88 89 92 97 99 98 99 97 97 98 97 78 68
91 91 98 90 96 96 96 94 96 96 90 94 93 92 86 91 84 90 82 86 95 86 96 89 75 93 87 86 80 83 84 87 88 90 91 86 94 95 98 97 98 95 81 64
92 94 98 94 99 91 90 90 95 95 91 88 92 94 80 77 85 76 90 73 88 98 98 87 97 96 93 83 84 92 90 90 92 92 87 88 87 94 82 70 64 60 70 78
98 96 83 97 95 98 99 99 96 94 84 89 93 95 82 82 84 75 85 97 81 72 88 96 99 99 95 92 91 97 100 98 96 94 90 90 96 98 99 98 87 74 77 85
96 93 97 88 94 99 98 98 98 92 89 95 95 93 96 92 84 88 81 77 90 90 99 99 97 97 98 93 89 89 94 99 97 98 96 91 97 97 98 97 98 98 97 89
97 99 87 96 94 96 96 89 89 82 92 98 96 93 89 94 85 83 85 91 94 100 99 97 90 89 89 91 90 93 90 87 90 97 96 93 94 96 100 98 94 90 87 79

GFSNW_sfc_rhum_099.txt.gz
RH
82 82 78 76 74 74 90 96 97 90 91 91 97 88 61 56 51 52 64 82 88 87 80 99 91 90 89 72 45 88 95 94 90 89 91 66 80 78 84 96 92 98 92 70
86 83 78 76 73 81 91 86 97 92 91 89 94 60 57 50 56 56 57 66 68 68 91 99 80 100 80 73 77 94 85 96 96 93 87 79 84 80 78 85 90 96 98 69
86 84 80 77 73 79 93 74 93 90 96 65 70 77 69 62 57 54 51 58 69 78 82 79 89 99 87 79 78 82 87 86 98 93 80 86 97 82 80 90 95 98 94 63
87 84 82 79 75 74 91 78 92 74 88 72 61 65 57 63 65 54 54 63 80 84 93 76 88 93 93 73 75 82 86 98 93 85 72 76 82 84 82 88 74 86 76 56
86 84 82 80 77 80 83 67 72 67 59 51 57 64 65 66 64 61 62 70 64 72 85 90 90 82 98 96 82 89 90 94 84 90 64 71 87 80 80 76 70 70 62 68
85 84 83 80 80 72 87 78 73 60 62 58 65 69 63 64 62 58 53 64 72 70 77 76 67 68 69 76 92 85 82 93 93 98 69 63 83 73 75 71 65 64 79 67
84 83 81 79 82 77 76 77 70 62 57 60 58 59 59 60 62 70 60 59 68 72 73 82 88 90 79 73 73 87 89 81 82 90 75 83 62 53 59 65 60 59 59 60
83 81 75 75 80 80 78 79 67 67 60 58 59 60 61 61 66 68 64 60 66 76 85 95 94 96 93 84 85 77 89 79 90 87 84 68 73 65 64 67 75 62 67 66
86 80 75 74 78 78 83 89 86 72 62 64 54 64 64 77 80 74 67 61 68 79 90 97 84 93 85 86 82 68 64 73 86 90 87 77 77 65 60 61 92 76 70 65
84 81 80 77 78 74 82 88 86 72 79 76 63 72 74 67 76 82 70 74 87 84 91 74 94 84 66 80 83 87 84 81 88 86 89 70 65 66 63 78 82 69 68 66
83 81 78 75 76 73 82 89 80 74 89 85 67 66 70 75 77 81 72 82 85 94 88 76 72 85 87 91 72 75 69 83 85 84 82 81 62 67 81 72 69 70 73 69
82 81 78 78 74 70 78 83 69 70 84 87 71 69 70 69 72 80 76 84 84 82 87 85 82 84 90 74 80 71 75 70 77 74 77 53 51 55 55 51 56 80 73 79
81 80 77 73 71 68 77 90 84 79 85 87 80 76 70 61 66 66 81 87 66 70 74 82 86 90 88 83 93 81 72 66 70 64 70 72 70 68 67 68 76 76 75 72
83 82 79 76 74 69 74 88 90 79 80 88 87 61 75 66 66 68 69 73 68 70 82 81 82 86 86 82 93 92 80 66 73 82 76 73 61 68 75 72 73 74 75 81
85 86 82 78 77 78 84 92 92 82 75 88 88 72 70 63 69 72 70 73 78 87 90 93 82 76 83 82 81 94 80 82 92 96 86 83 71 66 73 76 77 78 79 81
92 90 83 82 78 76 85 81 86 82 87 86 88 78 73 67 70 74 78 74 74 80 84 82 66 65 76 93 69 71 73 72 72 73 72 69 67 77 75 77 76 76 81 81
94 91 84 82 80 92 93 84 89 74 84 85 90 88 71 77 77 84 79 80 75 74 73 86 78 79 85 93 93 78 84 83 84 83 72 77 77 83 78 80 79 78 83 80
93 89 81 77 74 78 91 93 80 78 83 84 93 95 84 77 80 90 79 85 79 84 78 79 89 81 84 89 72 89 92 88 91 92 88 84 76 75 79 83 80 84 86 81
87 82 76 81 91 96 98 75 80 89 84 92 93 92 97 83 79 91 92 84 94 85 84 79 73 85 87 78 79 93 92 89 88 82 89 88 88 87 84 85 86 87 88 84
77 79 88 99 99 80 81 86 88 93 92 89 96 93 97 90 75 87 94 94 91 97 88 81 90 93 73 92 90 86 80 85 88 96 86 85 88 87 89 80 79 80 82 79
93 97 99 98 80 88 89 97 95 98 96 92 92 91 98 87 86 86 74 96 96 87 94 93 90 89 91 93 90 88 87 90 93 93 87 90 96 95 96 84 89 90 94 98
91 90 90 95 93 95 92 96 97 94 87 94 94 95 96 93 83 80 86 82 93 84 88 96 90 78 91 91 91 90 87 88 87 86 90 91 96 98 98 99 98 98 99 97
93 93 100 94 99 98 90 91 99 98 94 98 97 99 90 91 84 79 78 84 93 93 92 90 89 93 91 91 89 85 85 85 88 89 89 85 86 91 94 93 91 92 88 68
94 97 98 96 99 96 90 86 93 94 94 91 91 97 93 89 88 76 85 78 89 90 99 93 94 95 93 92 89 88 87 86 91 90 87 84 88 96 87 77 66 61 69 72
99 98 90 99 96 99 99 99 98 97 84 93 94 95 81 86 82 81 91 90 88 85 89 92 98 97 95 90 89 90 96 98 97 94 94 93 91 87 89 93 89 78 82 91
98 95 98 92 96 100 99 98 98 90 87 95 93 96 96 90 87 84 90 90 89 87 94 98 99 99 96 92 88 86 86 90 94 98 96 94 94 96 95 97 99 98 98 97
98 99 94 97 94 95 98 90 88 89 90 97 95 89 86 93 94 94 88 90 91 98 99 99 94 94 96 96 94 94 93 90 89 96 96 96 94 97 98 98 96 95 94 91

GFSNW_sfc_rhum_102.txt.gz
RH
96 89 83 79 76 81 92 95 98 94 91 91 95 89 62 56 56 56 78 81 82 90 87 89 89 98 91 78 69 96 91 85 98 88 81 73 75 81 92 92 92 98 92 75
96 88 84 80 77 84 94 89 97 94 82 92 94 64 56 53 61 59 62 66 73 65 86 96 68 94 75 84 79 89 85 92 93 88 83 78 90 86 85 87 90 99 93 77
94 87 84 81 79 80 78 76 94 93 94 73 75 76 64 67 58 58 54 66 72 77 87 86 94 98 83 82 86 81 84 91 93 84 70 84 97 90 88 87 94 98 97 88
93 86 84 82 81 84 68 83 86 77 87 76 73 70 61 66 65 58 59 74 74 85 87 76 89 94 92 71 74 82 85 94 94 83 81 83 85 88 86 89 90 97 88 76
93 88 84 83 81 85 78 80 77 69 68 61 64 69 64 69 67 63 67 74 66 80 88 91 89 84 95 90 87 89 91 95 89 92 68 79 90 82 84 85 74 83 80 74
92 86 85 84 83 72 80 87 76 60 66 65 68 71 70 67 65 59 58 65 74 83 80 79 66 69 74 75 90 87 82 94 94 93 72 70 85 81 84 78 71 67 78 64
93 86 85 84 84 70 69 78 74 59 65 62 62 62 62 68 66 69 62 60 68 72 76 87 90 92 85 76 76 85 97 88 87 92 72 84 63 52 61 65 60 63 63 61
92 85 83 83 83 72 72 84 68 62 68 66 66 65 66 69 69 68 65 65 64 76 90 94 94 97 93 87 88 90 94 89 90 89 88 70 72 68 66 68 79 66 71 71
90 85 81 82 82 76 83 91 86 67 64 63 57 68 70 82 86 79 70 66 72 83 78 97 91 93 85 88 84 79 82 83 88 91 89 80 77 64 58 62 91 80 70 68
86 81 80 82 83 78 79 92 88 73 80 80 66 70 75 72 82 85 77 77 88 86 96 86 94 74 84 85 88 87 87 87 90 88 90 74 69 69 65 74 76 70 64 70
84 81 82 83 83 73 75 89 81 75 90 86 74 71 72 77 80 80 74 87 89 95 90 77 76 88 88 90 80 78 76 85 88 87 91 89 66 71 84 72 74 78 70 76
81 82 81 82 76 73 74 83 71 70 84 88 74 74 76 72 73 79 86 84 86 92 95 91 86 82 91 86 70 81 76 74 83 74 75 60 69 64 66 57 59 84 80 79
82 80 78 78 73 70 73 84 86 80 85 84 83 82 72 66 72 70 86 90 76 82 86 87 89 76 79 89 93 95 82 75 72 71 80 83 76 77 76 76 78 82 81 80
83 78 76 78 77 73 75 87 92 76 81 88 86 65 76 70 70 70 73 75 75 78 85 89 83 84 84 76 91 93 83 78 81 86 84 80 72 76 81 78 78 79 80 85
82 83 81 79 78 78 84 94 91 82 70 91 90 76 70 70 74 76 72 74 82 91 88 92 90 81 81 74 80 94 88 85 91 93 85 87 86 87 79 80 81 80 83 85
90 89 84 79 75 74 71 65 75 85 81 88 90 84 79 75 77 78 76 77 82 89 89 91 82 72 79 93 73 80 70 79 78 75 81 74 71 76 76 83 80 79 85 82
90 89 85 80 80 94 90 70 78 76 81 86 91 89 76 82 84 78 78 74 84 87 89 88 91 84 86 95 96 79 86 85 90 92 87 87 82 84 77 81 81 82 87 86
91 87 80 76 73 77 88 89 78 76 85 80 95 97 91 81 78 85 81 82 83 87 86 91 89 87 91 93 79 88 93 90 93 93 92 95 92 90 89 84 81 85 88 85
89 83 76 81 92 94 91 74 80 89 76 94 86 93 95 77 85 90 90 86 97 89 93 90 86 88 94 78 76 91 92 90 92 90 77 88 92 91 84 91 86 88 88 82
82 80 89 99 99 78 79 82 79 89 92 92 95 93 97 86 83 88 94 93 89 100 90 86 93 93 77 79 83 88 90 90 87 90 87 85 82 80 87 90 81 81 82 80
95 98 99 99 81 89 88 96 86 95 85 92 96 92 95 89 90 87 80 96 94 98 89 89 97 96 86 93 93 91 90 91 90 90 87 85 89 96 96 90 91 95 97 98
90 91 91 94 91 96 92 93 97 94 79 96 96 97 97 96 87 80 86 90 91 89 89 84 90 81 89 96 93 93 92 92 88 84 87 87 88 96 97 98 97 98 98 96
93 93 99 94 99 98 99 90 97 99 97 99 99 99 96 94 88 79 84 82 95 87 87 87 92 88 95 93 94 92 90 86 86 88 88 86 85 86 90 95 93 89 84 75
97 98 98 97 99 97 92 86 91 95 96 92 95 99 95 91 93 78 88 83 94 94 97 97 94 93 93 94 92 90 90 84 84 88 87 86 86 90 93 77 68 65 73 75
99 99 97 99 97 99 99 99 97 98 84 92 95 95 86 95 90 86 92 92 84 91 94 92 95 95 94 96 93 89 88 84 89 84 93 93 91 90 90 86 94 85 74 79
99 98 99 94 97 100 99 97 97 92 85 92 93 96 95 94 92 91 90 91 92 87 93 96 99 97 95 94 91 93 92 88 88 94 96 94 95 94 95 93 96 96 95 98
98 99 96 96 97 97 98 91 92 89 89 96 94 85 84 93 97 98 91 91 90 92 97 99 98 98 98 95 94 93 94 93 92 91 89 94 93 94 98 100 97 98 97 97

GFSNW_sfc_rhum_105.txt.gz
RH
82 87 94 93 84 86 87 96 99 97 89 94 96 92 67 58 60 64 80 82 76 82 84 85 85 98 92 79 86 90 91 87 99 86 78 82 78 83 91 92 92 95 92 79
88 89 93 88 84 84 95 90 98 92 77 93 94 65 61 56 64 62 68 69 74 75 83 86 62 92 74 85 82 88 85 90 95 84 84 78 92 86 88 87 90 94 91 81
88 90 95 85 86 81 82 80 96 97 95 78 75 74 66 66 59 60 60 73 75 84 85 90 97 98 76 81 83 78 84 95 90 88 71 84 96 92 91 87 95 93 96 86
89 94 91 83 86 84 74 82 83 78 87 78 75 70 66 68 64 60 64 79 78 88 92 90 94 95 79 73 76 78 86 99 99 84 74 88 86 89 91 89 92 92 91 84
87 93 91 83 85 83 71 80 82 69 70 70 71 69 69 68 69 64 70 79 70 80 91 91 90 89 91 94 81 84 85 93 94 90 73 84 92 88 88 86 91 89 87 87
92 94 86 83 84 79 74 81 71 59 67 68 68 75 71 68 66 62 62 69 80 85 80 79 68 79 78 86 86 86 82 92 94 88 73 78 84 73 90 84 80 85 85 74
94 93 86 84 84 78 67 74 63 61 65 64 62 66 67 72 68 69 66 65 75 75 77 88 91 90 82 80 80 85 94 90 89 92 72 84 63 58 70 73 68 69 67 66
90 92 87 84 84 76 69 81 64 67 73 67 69 66 74 74 71 72 67 68 66 75 91 91 84 91 91 86 88 93 92 93 90 88 88 76 80 71 75 68 84 76 77 74
88 94 88 85 86 71 80 94 78 68 65 66 61 73 76 84 85 80 75 72 78 87 78 96 91 94 87 90 86 88 94 91 90 92 89 84 79 68 62 66 92 80 70 68
92 89 86 84 82 73 78 94 82 70 80 83 68 74 75 76 82 86 82 80 90 87 98 90 94 86 84 88 89 92 89 90 89 90 94 80 67 74 65 77 71 76 65 72
89 86 83 84 82 74 77 92 85 73 91 91 80 72 77 82 82 82 78 88 90 96 86 88 91 91 90 90 83 81 81 88 91 90 93 91 64 75 83 70 80 86 76 78
87 83 82 85 84 72 72 83 71 70 84 89 78 78 80 78 75 83 88 83 90 92 92 93 90 89 96 88 86 83 81 76 86 78 78 75 85 84 86 81 65 84 82 79
87 82 83 85 80 69 71 85 84 79 84 85 84 85 73 72 79 73 85 92 81 86 88 94 94 82 92 93 91 95 86 82 77 82 86 88 86 85 87 86 86 84 86 82
77 78 85 78 74 71 71 82 91 76 79 87 88 66 80 72 74 74 75 78 81 82 89 92 92 91 86 92 90 92 86 84 85 88 85 84 84 90 89 86 84 84 84 91
84 81 80 80 78 75 81 90 92 81 66 92 93 78 71 78 77 74 73 76 85 91 87 91 90 91 85 86 88 93 87 85 91 87 85 85 86 90 83 85 87 84 86 88
86 87 84 78 76 69 62 63 76 84 81 88 92 86 79 84 81 82 82 82 88 93 90 92 89 79 82 92 89 76 82 84 84 82 89 83 80 83 83 84 87 86 87 86
88 88 82 78 79 94 82 63 75 78 77 86 92 89 79 86 86 84 85 84 90 89 92 90 92 88 85 93 95 77 86 87 93 95 90 87 89 92 93 92 87 83 89 89
90 83 79 75 71 75 83 86 77 78 81 80 95 95 92 78 78 87 83 89 92 88 93 92 90 89 93 97 83 86 90 93 95 95 93 92 93 91 90 92 88 88 89 88
88 80 74 79 90 87 84 74 76 87 76 90 86 96 98 79 90 93 91 92 96 92 92 92 86 89 95 79 79 90 92 90 90 91 89 86 89 91 90 92 85 86 86 84
77 82 88 95 95 76 74 76 71 86 91 92 88 91 95 92 86 92 96 95 97 98 89 90 94 93 78 74 74 82 90 90 90 92 92 89 87 80 87 92 83 83 84 83
93 98 99 98 80 88 85 91 80 90 79 93 97 93 94 87 93 96 87 98 97 97 87 92 97 98 88 82 89 92 92 91 91 89 83 84 85 89 88 85 91 95 96 97
87 88 91 95 91 96 89 92 95 88 72 98 97 97 97 97 88 90 88 93 92 97 88 87 92 82 82 94 95 95 93 92 94 93 85 85 84 91 95 96 95 98 98 98
91 91 96 87 95 98 98 97 94 98 98 99 99 99 96 94 86 82 86 89 97 85 93 93 90 86 94 95 95 95 93 92 88 90 86 85 85 84 87 94 94 93 89 80
97 99 98 96 99 97 95 92 93 93 96 93 98 99 95 92 93 83 92 84 93 96 98 98 94 87 94 95 94 94 95 92 87 84 87 85 85 86 87 87 75 69 83 73
100 98 97 99 97 99 99 99 98 99 85 93 95 96 86 97 93 88 93 95 93 89 95 93 93 94 94 96 96 94 94 92 91 87 90 92 91 90 90 85 88 90 76 76
99 97 97 94 98 100 99 99 98 94 83 96 93 94 96 96 93 97 93 92 92 87 94 94 99 97 95 95 93 93 93 94 93 92 88 91 95 95 93 92 94 97 95 90
98 99 91 95 97 98 99 94 94 81 87 90 94 82 79 93 97 98 91 92 89 92 95 97 99 93 94 94 93 93 94 94 96 92 87 88 89 93 97 99 97 97 96 96

GFSNW_sfc_rhum_108.txt.gz
RH
71 77 77 82 82 88 84 94 99 96 86 93 96 93 71 59 63 76 80 82 83 71 81 89 91 96 92 80 87 89 92 87 98 84 77 85 80 83 91 93 92 95 93 82
67 81 80 86 89 84 95 97 97 96 86 95 95 69 66 59 65 65 72 75 74 72 76 86 79 96 74 88 90 95 91 92 94 76 71 77 89 87 89 85 90 93 90 80
68 84 82 86 88 83 79 92 98 99 95 79 76 75 68 68 61 62 68 78 78 79 80 90 95 98 77 82 84 78 82 90 89 96 85 83 93 89 92 87 95 96 94 81
78 86 86 87 91 81 72 83 91 86 98 84 80 70 68 67 64 63 71 83 82 88 96 94 94 97 75 71 71 75 88 96 88 84 75 87 88 89 91 94 93 88 85 81
82 86 93 90 84 84 74 80 89 70 73 76 71 70 72 66 68 67 69 80 78 84 90 86 92 83 85 95 79 84 84 94 93 87 75 85 93 89 90 88 91 89 87 83
75 83 90 87 87 80 76 78 60 61 70 72 70 76 74 66 66 65 64 74 86 86 83 79 82 84 85 88 82 85 83 92 93 87 75 85 84 75 89 83 82 85 78 80
85 92 92 89 84 71 71 73 61 62 65 65 62 70 68 71 66 70 71 68 81 80 82 87 89 88 80 86 82 86 92 92 89 92 76 89 68 69 69 78 75 70 67 68
91 90 87 86 86 66 75 76 63 68 73 68 70 69 79 78 74 73 70 71 74 78 90 88 82 89 89 88 89 95 92 93 91 88 88 78 82 77 88 84 90 86 83 78
84 91 87 84 86 71 81 93 83 69 69 70 66 78 80 85 87 80 80 79 84 88 77 86 93 94 87 92 91 93 96 90 91 93 88 88 82 76 67 67 91 84 72 72
83 88 91 85 84 73 77 93 87 74 86 87 73 76 72 75 79 84 85 85 90 88 97 91 95 90 86 91 90 94 90 91 89 90 94 82 71 75 76 79 69 85 69 79
86 91 87 86 85 74 78 92 84 78 95 93 85 76 79 84 84 85 82 90 91 97 87 88 93 91 90 91 83 84 83 89 92 92 94 92 77 76 80 72 80 87 82 80
89 88 86 86 81 74 72 78 73 69 86 91 83 82 85 85 77 85 90 83 91 92 92 93 92 89 98 87 91 85 84 77 86 78 80 81 88 89 89 89 79 88 86 82
92 86 85 85 82 70 69 83 82 79 84 85 86 86 76 76 84 79 85 92 85 89 89 94 93 84 92 94 91 95 89 84 82 87 88 87 90 87 90 91 90 88 90 86
86 84 83 84 80 70 67 78 86 74 75 85 90 70 82 73 77 76 77 82 83 85 91 93 93 91 87 92 90 92 87 86 86 87 87 86 85 90 90 88 87 88 86 91
82 83 86 85 76 74 81 91 92 76 64 91 94 82 75 84 78 78 76 78 86 90 86 91 90 93 88 92 90 93 88 84 91 90 83 83 85 90 88 88 90 89 92 86
86 83 81 81 76 71 64 64 78 81 80 88 93 87 85 84 80 82 82 84 91 94 89 94 92 83 84 92 92 75 84 84 84 87 88 85 84 87 92 90 89 89 90 89
85 84 82 77 75 92 72 62 75 73 78 86 93 92 84 87 86 89 88 88 93 90 93 92 92 89 85 91 94 73 86 88 92 93 87 87 90 91 93 93 89 85 90 89
85 83 77 74 72 75 80 85 76 76 79 79 96 94 88 82 91 94 92 92 93 91 94 94 90 92 94 97 83 83 89 92 94 94 92 91 93 92 91 92 89 90 90 89
83 81 74 72 86 82 79 73 74 86 71 88 87 96 98 82 95 93 92 93 96 95 92 91 84 88 94 74 79 86 94 90 86 92 90 90 92 92 90 93 93 90 84 84
84 82 81 93 91 74 69 72 68 83 89 89 90 92 97 93 93 97 96 96 98 96 87 93 97 93 79 75 77 77 90 88 92 93 94 93 93 82 77 83 78 89 89 86
96 96 98 95 82 84 81 87 78 84 80 93 97 93 98 89 93 97 87 99 98 96 87 94 96 96 91 83 81 85 90 91 89 85 85 82 77 80 82 85 88 96 96 98
86 86 91 93 92 96 78 91 91 82 69 99 97 96 96 97 89 91 95 93 94 98 89 94 97 84 78 89 92 95 94 92 94 92 92 90 86 89 90 93 93 97 97 97
92 92 96 91 94 97 93 98 98 96 99 99 99 99 95 94 88 93 91 92 97 81 93 90 90 85 88 93 96 97 94 93 93 92 89 88 85 83 84 92 92 92 92 87
96 97 99 94 99 96 94 95 92 93 97 96 97 99 94 92 93 93 89 84 90 98 97 95 94 88 91 95 95 95 97 94 92 92 91 86 84 84 85 84 73 74 84 89
100 99 98 99 97 98 99 98 99 99 86 94 96 95 86 97 94 85 92 98 94 94 92 92 93 92 95 97 96 95 95 95 94 94 92 90 86 88 90 86 86 87 82 78
100 98 98 95 98 100 100 99 100 96 83 95 92 96 95 97 93 98 95 92 93 85 94 94 98 97 96 95 94 94 94 93 93 94 93 89 92 94 93 92 92 93 94 96
98 98 92 97 98 99 99 96 95 84 88 94 94 78 76 94 98 98 90 92 88 92 94 98 98 93 94 94 93 94 94 94 95 95 94 94 87 89 97 98 95 95 94 95

GFSNW_sfc_rhum_111.txt.gz
RH
72 80 73 73 72 87 86 88 99 97 87 96 94 93 69 60 68 80 80 82 83 76 88 87 96 92 89 78 86 93 92 84 98 86 74 84 76 87 89 89 89 89 84 86
73 78 70 74 72 86 96 97 99 98 89 98 96 71 68 62 66 70 74 78 76 77 82 85 83 98 71 85 90 88 89 90 91 75 64 70 85 83 88 81 85 96 90 76
74 79 71 78 77 86 88 93 99 100 99 73 77 75 69 69 63 65 70 80 81 83 84 91 91 98 75 80 81 73 75 90 90 95 88 85 92 83 88 86 90 89 88 70
76 81 75 77 85 89 82 86 98 91 96 95 79 72 68 69 67 66 78 83 82 90 97 94 93 95 78 66 68 78 84 89 96 79 79 80 87 88 87 95 90 87 79 74
78 85 79 79 83 89 94 91 94 72 82 88 77 72 74 67 68 70 74 82 81 86 91 82 89 84 88 95 82 89 87 94 89 84 83 81 82 84 84 84 82 84 78 78
82 87 87 84 89 90 84 82 63 64 74 79 72 78 75 64 67 69 67 76 85 86 82 81 84 86 86 89 88 89 90 90 87 87 73 78 81 72 82 78 82 77 83 76
85 86 85 85 86 76 71 74 61 67 75 67 64 70 68 70 66 72 76 74 81 81 84 86 88 87 86 83 85 89 93 92 86 90 67 87 65 70 67 75 82 75 74 72
87 86 88 89 82 67 70 78 62 69 76 72 73 71 80 79 78 75 73 74 81 82 90 90 86 92 90 91 93 92 92 92 90 83 87 74 83 74 82 73 92 81 76 67
89 93 87 82 77 72 84 92 83 71 68 73 68 82 81 84 87 83 85 83 86 88 84 90 93 94 88 93 92 92 94 88 86 90 86 87 83 70 68 75 94 80 66 69
90 91 84 86 81 72 82 92 87 76 86 91 77 81 75 76 78 85 87 89 91 88 96 92 95 91 86 93 93 95 91 90 87 91 92 79 67 72 72 74 70 86 71 77
78 78 92 89 84 73 75 85 86 80 97 95 88 81 79 82 82 81 83 90 92 97 89 88 94 90 90 91 85 87 84 88 91 91 93 89 84 79 76 66 78 87 80 76
83 86 87 82 85 72 68 79 74 72 89 93 86 86 87 86 78 88 92 82 91 92 91 94 94 91 98 87 90 86 84 76 83 77 76 75 90 90 90 89 83 91 89 85
84 89 85 85 76 67 66 81 84 82 89 88 87 88 78 77 86 84 85 92 86 89 88 93 92 84 92 95 90 94 90 84 83 85 88 89 89 89 91 92 90 91 92 90
82 88 85 79 73 67 65 77 88 78 80 86 91 72 83 77 79 80 80 83 86 88 92 92 92 92 88 92 87 91 88 84 86 88 90 87 85 90 91 89 88 87 87 92
90 87 81 81 74 71 79 89 91 76 63 92 94 83 78 84 80 79 78 79 85 90 86 90 89 95 91 94 91 94 90 86 90 87 81 80 82 88 86 86 89 90 91 90
87 85 84 79 75 68 63 62 81 79 80 89 92 86 86 84 82 82 83 86 92 93 90 94 94 85 87 94 92 77 84 84 82 86 87 86 90 88 92 91 90 90 91 92
84 84 81 77 71 90 70 60 74 69 77 85 92 94 86 87 87 90 89 89 94 90 94 92 92 92 87 91 93 69 85 88 91 89 83 88 89 92 94 94 91 87 90 90
85 80 79 78 74 76 79 85 74 73 79 80 96 94 88 85 93 92 94 91 91 93 95 96 91 93 94 96 81 80 89 93 93 92 89 85 92 90 93 92 92 91 88 89
79 76 70 70 83 82 76 72 73 86 70 90 89 96 98 90 96 94 93 92 95 96 91 91 85 87 91 69 78 85 94 90 90 94 93 93 91 91 90 93 92 95 94 90
73 85 82 86 94 72 66 72 67 83 91 87 92 92 95 94 94 98 96 95 97 95 87 94 98 93 77 72 74 75 89 87 90 95 96 94 93 88 86 88 79 82 89 92
96 96 93 92 84 79 78 86 76 82 82 88 95 93 97 91 94 97 88 98 98 94 86 95 95 95 89 83 80 85 88 90 87 82 84 85 84 88 84 81 88 91 96 96
88 85 90 91 90 94 73 83 87 83 68 98 96 95 95 96 90 94 96 93 93 89 88 97 98 84 78 87 84 90 91 91 91 89 89 89 90 92 90 87 91 94 95 97
94 91 97 91 94 98 91 80 93 93 97 98 99 98 94 94 88 95 91 93 93 89 93 94 90 84 83 91 94 97 94 92 94 93 90 90 91 88 83 91 91 90 91 87
92 95 99 93 97 95 91 91 93 91 98 96 97 98 94 89 93 91 90 84 93 92 99 89 93 90 90 94 95 96 97 95 94 92 92 91 90 89 83 82 77 70 85 92
100 99 89 99 96 97 99 99 99 99 89 93 96 95 86 98 94 83 93 94 92 94 89 90 93 92 95 97 96 96 96 96 95 96 95 93 92 89 87 85 84 81 82 76
100 99 98 97 98 100 99 100 99 97 86 95 91 95 93 96 92 97 92 90 90 82 94 95 97 97 97 95 94 94 95 95 95 95 93 90 94 92 91 92 92 91 90 93
99 98 95 98 98 99 98 96 95 89 89 91 94 75 72 93 98 96 89 89 86 92 94 97 98 91 95 95 94 95 95 95 95 95 94 94 88 89 98 99 96 95 94 94

GFSNW_sfc_rhum_114.txt.gz
RH
73 74 72 75 73 87 85 96 100 97 91 94 84 84 52 55 54 62 61 61 61 58 62 62 90 82 70 65 79 72 71 69 85 84 60 72 65 74 73 80 71 72 62 89
77 72 73 75 75 86 96 98 98 98 93 90 90 56 57 49 55 60 59 64 59 57 63 68 61 98 57 65 77 72 68 74 81 72 66 60 66 64 70 66 70 87 72 83
75 73 74 76 78 82 96 94 100 99 96 65 57 61 58 57 51 53 54 60 60 61 60 65 62 96 60 68 66 71 66 68 91 82 78 75 90 68 66 86 80 64 68 59
74 77 75 75 78 74 94 86 92 82 96 93 61 54 50 56 56 52 59 63 66 84 72 67 65 79 62 54 64 64 61 91 73 66 66 67 72 69 63 92 65 82 60 62
76 78 79 77 74 78 94 82 92 76 69 69 72 57 53 51 55 53 58 61 63 70 73 67 70 62 73 81 56 65 61 79 68 76 55 52 62 62 56 61 56 56 54 62
74 81 81 80 81 90 92 75 58 48 73 71 70 51 49 48 51 54 52 56 65 68 62 58 57 58 61 63 68 64 67 65 66 75 57 59 65 70 66 62 60 56 63 59
75 80 86 85 84 88 66 57 49 48 60 61 59 51 47 49 50 54 62 58 59 64 57 63 61 60 61 59 65 65 70 68 62 58 48 66 58 57 60 66 66 57 58 55
76 78 82 82 84 82 60 60 46 49 54 47 53 52 54 58 57 60 59 60 63 58 69 63 68 63 64 69 72 70 69 65 58 56 58 61 60 61 74 67 75 60 53 51
80 84 84 86 86 77 67 75 64 50 50 48 48 55 49 54 57 59 69 68 66 71 67 66 69 66 64 66 70 69 69 60 56 63 64 66 56 54 54 54 76 61 52 54
90 91 89 82 77 71 72 74 72 55 59 65 56 49 45 50 51 56 64 72 78 71 69 68 71 60 63 62 63 66 59 58 63 59 64 55 48 53 54 55 70 66 56 58
92 79 76 78 76 69 68 72 70 58 68 75 73 64 53 54 50 47 64 65 77 80 72 62 68 59 60 62 60 61 56 55 54 62 66 69 58 60 54 57 62 65 61 61
81 92 81 84 74 68 65 64 62 60 69 75 68 69 68 68 60 60 72 62 73 68 62 63 62 63 77 60 53 62 55 50 49 51 51 65 69 68 67 63 63 70 66 65
83 88 79 86 75 67 64 66 67 64 62 66 61 70 61 57 65 66 60 64 66 68 65 62 63 62 54 57 58 62 62 62 53 62 66 67 66 68 70 68 68 70 71 67
81 86 85 84 73 64 63 65 69 61 57 59 70 56 64 61 61 63 63 65 67 65 60 60 62 62 69 56 60 63 54 60 58 64 68 66 64 65 68 70 68 69 68 73
86 83 82 77 72 69 72 73 70 60 52 67 68 65 62 61 61 63 61 60 62 57 56 57 59 67 67 66 65 65 59 58 55 51 50 49 52 61 65 64 68 71 71 70
89 81 76 77 72 65 57 59 68 68 67 70 68 66 69 66 62 64 65 66 66 61 60 63 63 66 61 64 55 44 53 55 51 52 52 62 63 65 67 64 69 71 70 73
81 80 76 77 73 81 66 57 66 64 64 67 81 78 68 69 67 70 66 67 68 61 68 66 65 69 68 64 55 41 52 56 66 59 63 73 69 65 71 71 73 74 71 70
81 78 76 78 75 74 75 71 69 64 65 64 88 86 73 68 69 68 76 66 66 72 71 74 67 70 71 72 49 52 59 66 70 65 62 57 64 70 74 72 73 75 71 70
78 77 74 67 74 75 71 68 70 74 63 80 77 87 90 73 77 74 77 72 72 76 67 66 68 62 70 48 48 55 71 71 70 73 71 71 70 72 74 75 76 75 74 74
75 80 73 82 87 75 65 68 66 76 80 73 74 71 88 74 74 80 78 78 75 84 65 74 78 64 50 48 47 47 65 64 71 79 85 79 76 74 70 68 64 65 71 77
91 87 86 87 81 74 71 75 73 66 77 73 78 72 84 76 80 78 70 91 86 82 71 77 73 66 61 63 55 55 64 67 65 61 58 60 56 64 67 68 67 71 79 84
85 83 86 85 84 86 76 74 75 73 60 85 81 79 78 82 76 78 84 86 89 75 74 86 74 53 59 66 61 64 66 68 66 62 63 63 64 62 63 66 72 78 83 89
88 85 97 86 91 95 87 77 80 84 91 92 91 94 81 82 77 84 80 86 82 74 90 78 66 64 66 70 67 76 69 69 70 73 70 70 75 72 71 77 75 77 80 80
94 100 97 95 92 85 88 78 86 86 89 91 86 93 80 75 82 79 81 72 79 91 92 75 64 76 73 76 73 82 83 77 80 81 80 77 75 73 69 70 69 72 76 80
100 100 87 94 85 94 94 93 94 93 84 84 86 86 72 86 87 72 87 94 93 80 75 69 72 78 91 91 91 91 94 93 93 91 91 90 85 82 80 74 68 70 75 69
100 100 100 92 97 100 98 97 95 92 80 82 81 86 86 81 81 91 88 75 75 75 85 80 73 80 91 87 87 91 93 94 94 95 91 86 90 90 89 84 87 85 84 86
100 98 86 91 94 95 91 82 80 75 76 85 86 80 73 84 89 84 73 80 79 82 79 74 76 74 80 83 84 86 89 89 90 88 87 84 79 80 86 90 92 94 92 86

GFSNW_sfc_rhum_117.txt.gz
RH
72 78 74 70 78 78 85 95 100 94 88 88 75 77 42 53 48 54 52 51 52 50 48 52 85 80 58 57 67 70 58 69 94 75 51 55 67 69 65 93 68 69 61 95
75 77 73 75 78 76 92 98 98 97 90 89 85 50 51 45 50 53 53 55 52 47 52 63 56 93 47 52 64 79 63 70 96 78 53 50 68 53 56 56 68 73 74 93
76 74 72 78 78 85 95 98 100 99 97 62 53 51 50 53 48 49 46 51 50 50 50 48 57 92 49 56 56 70 67 65 87 82 73 73 90 54 58 88 81 75 85 76
71 74 78 78 83 83 92 88 87 76 96 73 48 43 42 48 52 46 47 54 56 69 60 51 53 73 56 47 56 54 55 81 59 53 57 52 57 56 51 75 55 82 63 64
69 77 76 81 79 76 82 69 77 68 63 56 54 48 43 43 47 47 51 58 51 58 62 63 59 54 67 71 48 52 49 68 59 65 48 49 65 58 54 54 50 52 54 62
68 80 77 82 77 82 92 53 54 46 63 61 57 43 39 40 43 49 46 44 56 60 54 48 44 44 47 53 58 55 56 56 61 67 51 50 58 70 62 58 54 51 67 55
73 79 78 81 81 80 69 45 45 41 51 49 49 42 39 39 43 48 51 48 51 56 46 50 47 46 49 49 54 54 56 55 55 51 43 60 58 53 58 61 58 49 49 48
75 77 81 81 84 82 72 46 37 37 40 40 46 41 38 44 48 52 53 55 55 46 58 54 57 55 58 58 57 56 54 54 50 52 52 56 56 55 66 79 67 48 47 44
77 77 79 81 81 78 53 54 48 40 38 41 36 41 41 43 47 56 64 58 57 64 57 55 58 56 49 53 58 56 53 50 51 53 60 59 48 50 48 48 82 52 48 49
79 79 79 80 84 81 54 60 60 42 46 54 42 39 38 36 42 50 58 62 72 64 57 56 62 47 53 49 49 51 46 45 51 48 56 52 44 47 47 62 79 54 51 52
91 91 89 85 87 76 56 64 58 51 51 63 59 52 42 45 40 46 54 56 66 72 64 53 53 47 47 49 49 48 45 45 43 48 51 65 49 52 54 59 59 53 54 55
87 88 87 82 74 66 59 56 49 48 56 67 56 57 56 58 55 49 58 56 59 55 54 52 50 49 65 46 38 49 45 44 44 49 54 59 58 59 58 50 54 59 57 58
79 78 77 76 70 65 60 54 55 46 52 56 51 60 52 48 54 54 55 53 57 58 58 52 52 53 45 42 42 43 48 47 44 53 56 58 58 60 58 56 60 62 62 59
83 86 79 75 71 68 61 55 56 47 42 46 60 47 56 51 50 54 54 56 56 53 50 50 50 54 58 44 52 50 43 50 45 50 54 56 56 54 58 61 60 61 62 64
81 87 82 77 73 68 64 60 58 51 52 51 55 55 54 50 50 54 52 53 54 50 50 48 48 52 54 51 54 48 47 42 45 36 38 40 41 50 57 59 61 62 62 64
87 86 81 78 74 66 46 53 58 53 52 55 57 57 58 54 52 54 55 57 54 50 51 49 51 58 58 53 41 28 37 37 33 39 38 41 44 52 52 54 59 60 59 64
86 82 80 76 75 67 57 56 62 57 54 56 72 63 58 60 56 57 55 54 55 52 55 55 53 59 65 56 44 28 37 43 50 44 56 64 60 60 58 57 60 67 61 61
80 78 79 76 73 72 62 60 67 63 50 51 84 77 61 59 55 58 62 56 54 58 56 62 58 60 62 65 39 37 40 47 54 53 51 46 52 54 61 61 64 66 63 61
79 76 71 51 58 54 62 70 67 67 58 73 71 85 86 62 64 62 66 61 66 65 58 55 61 50 66 45 34 40 48 58 59 54 57 59 61 62 64 65 65 64 59 62
69 59 58 72 71 78 66 62 59 70 71 61 63 59 82 66 62 68 70 67 63 93 56 63 68 56 42 35 36 33 46 50 57 70 75 67 65 63 60 61 56 57 60 67
84 78 78 79 77 65 60 74 74 60 80 60 62 58 75 69 75 69 58 86 79 85 68 68 68 56 50 46 42 37 47 52 58 52 53 53 50 55 54 55 56 58 62 68
81 78 76 74 71 72 88 81 73 74 65 72 72 71 68 73 65 71 74 87 85 79 64 77 70 45 49 52 45 43 50 55 56 52 52 51 49 48 51 55 59 65 69 76
88 86 93 77 87 93 85 78 78 82 81 88 84 89 71 74 71 76 77 88 79 63 88 74 63 64 58 57 51 51 52 56 57 56 54 55 60 55 56 63 61 64 68 71
88 100 100 96 98 79 88 74 89 79 86 86 79 84 73 65 80 75 83 65 70 86 86 71 58 79 70 61 57 63 68 63 65 69 68 67 65 64 61 61 61 66 68 73
100 100 100 99 79 93 94 97 90 90 79 79 80 80 65 80 85 66 81 89 88 70 75 69 74 87 92 86 80 85 90 84 88 84 85 85 79 75 73 66 63 64 70 70
100 100 100 88 95 96 96 98 97 85 78 85 80 88 88 82 78 83 86 72 75 85 93 78 68 79 90 82 84 93 98 99 99 99 94 88 92 93 93 83 82 83 83 84
100 100 90 86 97 96 86 74 71 68 73 93 92 85 79 77 82 78 69 82 90 96 81 72 71 72 76 80 81 89 90 91 92 88 83 81 80 78 85 89 91 94 93 85

GFSNW_sfc_rhum_120.txt.gz
RH
72 71 76 70 75 76 78 96 100 97 92 92 84 88 49 54 48 54 50 52 58 56 51 59 90 89 65 58 62 83 80 82 98 87 54 62 66 97 68 96 96 99 96 99
73 71 74 75 73 73 88 98 98 93 93 96 86 57 48 45 49 53 51 56 53 49 58 72 62 94 51 58 62 74 72 88 95 89 71 62 79 62 57 68 81 94 97 99
73 74 75 78 74 77 91 98 100 98 97 78 65 63 60 56 53 51 47 53 52 54 53 52 65 97 57 61 59 65 72 69 88 99 99 90 90 58 65 87 90 92 94 86
71 74 77 77 77 77 91 92 94 83 99 82 61 52 50 53 56 51 50 59 59 86 72 57 61 84 68 54 57 57 64 83 64 58 57 65 71 66 67 75 71 94 77 77
72 76 81 78 78 75 90 79 84 73 76 69 60 56 54 50 51 52 56 62 53 65 72 75 69 64 78 82 54 64 57 77 70 70 53 62 76 77 70 88 95 66 76 76
72 76 82 82 81 81 87 63 63 66 65 68 67 58 47 48 49 54 49 51 64 69 61 53 53 54 56 66 67 68 64 72 80 83 61 58 84 89 70 65 59 61 82 66
76 75 83 84 82 80 73 58 58 60 68 61 60 47 44 46 53 57 54 54 63 64 55 58 56 58 58 58 64 61 73 66 72 84 64 86 65 58 62 61 58 55 56 60
78 76 80 79 79 80 80 62 62 59 55 52 49 44 45 54 55 60 62 62 62 57 70 74 68 73 73 68 64 66 65 72 77 82 81 74 68 66 65 68 73 60 61 56
81 79 82 82 83 80 79 73 70 60 60 65 46 47 50 62 69 70 71 66 66 76 79 72 78 82 64 77 82 65 60 66 79 72 78 81 73 64 58 60 86 63 62 64
82 83 85 85 84 81 71 76 71 68 66 66 62 55 52 51 61 74 72 76 86 80 86 77 91 73 65 69 71 76 70 64 74 69 83 71 60 62 58 81 84 65 64 69
78 80 83 84 85 82 73 76 68 73 72 76 64 62 65 58 58 70 71 76 82 91 86 74 76 76 69 71 70 73 61 70 68 71 76 86 63 66 79 79 70 66 71 72
89 83 83 85 87 84 69 76 57 56 77 80 62 61 60 64 68 78 70 71 73 85 87 76 70 73 88 65 69 69 70 66 70 72 79 72 74 76 70 65 72 78 76 74
92 87 83 82 84 73 70 74 71 68 73 77 73 69 60 55 60 62 82 74 69 70 75 82 77 79 71 71 64 69 71 62 66 70 77 78 76 78 76 71 77 77 75 72
87 86 85 84 77 71 66 76 73 78 60 69 79 51 67 57 58 62 64 68 66 69 73 78 76 84 75 74 74 76 67 64 59 71 76 75 72 72 74 74 71 73 76 77
77 76 75 74 74 71 72 78 72 67 75 70 76 63 64 57 59 64 63 63 70 76 80 80 78 74 79 70 77 76 66 63 68 64 61 67 68 69 69 75 75 75 75 79
86 82 79 75 72 69 79 80 75 67 78 78 80 71 73 66 65 65 66 71 73 76 82 77 75 71 84 86 68 42 53 46 52 53 56 57 63 70 69 68 71 71 74 77
86 83 76 74 69 80 76 77 79 68 76 78 88 85 74 72 70 73 74 68 77 81 79 81 79 79 86 86 78 41 51 56 62 68 68 75 73 78 68 70 71 73 73 76
82 79 78 76 72 75 79 78 72 77 72 71 95 91 82 73 74 84 80 80 78 81 84 84 84 83 87 91 64 53 50 61 66 72 70 70 71 74 75 76 77 81 80 77
79 77 74 69 76 77 84 72 76 84 81 94 89 94 97 79 80 82 87 82 92 86 88 77 80 78 88 68 58 50 54 69 73 71 69 73 77 80 82 82 81 82 78 74
75 66 70 82 90 78 74 79 79 84 87 82 88 82 97 86 84 88 92 87 89 96 86 85 90 85 56 54 50 48 55 66 71 82 84 82 83 82 82 81 76 73 73 80
85 89 90 92 77 83 76 92 91 88 90 82 79 82 95 84 94 95 78 97 94 97 91 89 94 88 70 58 52 50 60 66 72 74 70 72 74 76 73 72 68 70 73 82
86 85 85 88 86 88 84 86 86 87 79 88 92 88 92 92 86 93 89 95 94 94 85 93 95 77 65 64 60 55 65 71 75 70 70 66 61 65 65 69 73 78 82 89
87 87 94 86 92 90 93 76 89 93 93 94 95 96 94 92 92 94 93 96 94 80 97 94 86 84 71 70 64 63 70 72 71 68 68 66 68 66 71 75 77 83 87 89
93 98 84 88 96 92 90 93 94 95 96 91 93 96 94 88 95 94 94 86 89 97 98 82 92 86 77 75 70 72 81 78 77 78 78 79 77 77 76 78 81 85 87 87
100 100 98 98 90 98 98 99 96 96 91 90 94 96 88 95 95 85 92 96 98 89 82 89 96 91 92 90 85 86 87 87 88 88 88 87 85 83 84 80 80 83 83 84
100 100 99 95 98 99 99 99 98 96 88 91 96 93 97 91 92 96 91 88 80 78 92 97 93 93 96 90 90 94 93 92 93 92 91 91 91 90 91 88 90 89 89 92
100 99 99 98 99 98 97 93 93 82 90 96 97 96 74 92 97 96 87 88 85 98 97 95 83 84 89 92 95 96 96 95 95 93 92 91 91 92 94 96 96 97 95 90

GFSNW_sfc_rhum_123.txt.gz
RH
74 71 72 72 73 73 84 97 99 95 92 95 96 96 60 59 59 61 57 62 62 67 60 72 95 88 77 59 64 85 85 95 98 94 61 71 71 85 79 96 93 97 98 99
74 74 73 74 72 74 96 98 99 89 93 97 94 62 59 58 58 62 59 65 59 56 62 78 87 97 62 65 65 82 79 91 95 80 69 74 97 67 68 68 82 97 98 98
74 75 76 74 74 72 94 98 99 98 93 96 91 72 67 68 58 58 54 62 61 64 61 57 84 94 67 66 64 64 74 79 95 98 100 95 94 82 80 84 96 93 98 91
74 78 76 76 74 73 93 96 98 92 99 90 87 64 58 67 66 59 57 66 72 86 76 65 80 86 74 64 60 59 74 84 86 73 66 79 92 95 96 94 98 97 95 89
76 78 78 77 76 73 92 94 95 92 95 90 80 66 58 62 58 65 65 71 67 69 80 80 82 74 84 84 66 66 64 78 78 74 66 73 95 81 77 84 72 79 86 89
78 80 82 79 77 83 92 80 78 78 74 79 82 78 58 61 62 57 57 66 72 79 72 68 68 70 66 76 77 79 76 78 86 86 66 65 86 92 71 70 68 72 93 86
76 80 82 81 80 84 91 79 78 79 83 82 73 53 56 66 66 66 69 70 74 69 60 66 70 70 64 67 72 69 82 79 80 88 72 93 76 62 65 73 67 66 67 77
76 80 80 80 78 80 85 84 79 77 76 69 54 55 65 70 70 75 77 74 73 80 80 87 78 81 79 76 76 76 75 82 82 80 91 85 82 73 66 77 83 72 73 71
82 83 82 79 79 78 88 89 90 78 74 76 71 61 66 79 84 84 80 72 73 83 93 84 82 88 72 78 75 75 67 75 82 76 84 85 80 70 64 68 90 72 75 80
82 84 85 86 83 84 82 85 84 79 84 85 80 68 65 66 79 88 84 83 87 83 93 85 92 82 75 76 77 76 70 72 77 79 87 80 65 64 65 84 84 78 80 85
82 84 87 87 87 74 78 82 79 75 93 88 76 74 80 71 78 85 80 79 86 93 87 84 85 86 78 77 74 74 67 74 76 77 82 77 70 73 75 75 76 77 83 86
83 84 87 86 84 82 73 78 70 72 86 85 72 72 72 75 77 82 83 81 81 92 92 90 86 81 92 76 74 75 67 64 68 70 69 76 82 80 80 74 81 84 82 82
85 84 80 81 84 83 76 83 82 80 89 89 84 80 70 62 68 70 82 87 79 80 84 91 87 82 82 80 75 74 74 68 72 73 76 82 82 80 78 81 84 83 79 78
91 81 79 85 86 76 68 79 86 84 76 82 80 60 76 63 66 67 70 74 75 78 85 89 89 90 78 84 73 79 68 68 70 77 84 82 81 81 82 83 82 84 83 78
90 83 84 88 80 72 78 87 84 79 76 75 87 72 68 65 67 70 71 73 79 89 86 88 83 87 82 84 84 91 72 69 73 75 73 76 78 80 80 83 84 84 84 85
85 85 82 79 77 73 85 76 82 76 81 81 74 80 80 75 74 73 73 74 81 86 86 86 87 79 82 92 85 59 66 62 54 55 63 66 72 79 80 82 81 80 83 83
81 79 76 73 73 84 74 69 79 72 83 78 92 88 81 80 78 82 83 79 85 86 88 85 88 86 84 92 91 52 55 60 71 71 70 80 82 85 79 76 77 76 83 83
80 76 74 74 73 75 75 83 74 82 76 81 94 93 87 80 85 89 90 88 88 86 86 89 86 89 91 93 74 63 63 73 79 75 75 74 78 82 84 84 86 86 87 85
79 77 80 78 77 79 84 75 78 89 83 90 92 85 87 86 88 91 89 90 94 88 84 86 85 84 88 61 58 66 66 73 74 79 79 83 83 86 88 86 88 87 87 85
78 72 70 81 88 79 78 80 79 86 89 89 84 92 93 87 92 93 94 93 92 94 88 88 89 84 59 59 60 55 57 72 78 83 87 87 90 88 89 87 86 83 80 85
79 81 82 90 78 79 82 89 83 85 78 87 88 89 94 87 91 93 87 96 96 94 85 87 93 94 81 67 60 57 61 75 73 78 76 79 80 86 87 86 81 79 85 88
82 83 86 89 82 86 70 82 85 86 71 88 88 88 93 91 91 93 88 92 94 78 88 95 92 72 69 67 66 60 73 80 80 77 79 79 79 80 79 80 79 81 84 89
87 83 86 76 85 74 74 64 85 95 94 96 96 96 92 89 94 96 95 96 91 85 98 91 78 80 73 70 67 70 79 81 77 81 78 73 78 74 75 80 82 88 91 92
89 87 74 83 92 92 88 84 88 91 96 95 95 97 95 93 96 95 95 84 91 99 100 77 86 86 75 76 72 82 86 83 79 81 79 78 78 80 81 83 89 91 92 93
100 100 96 95 91 98 99 99 95 96 93 95 92 93 83 96 94 90 93 97 98 86 76 82 91 89 90 89 82 87 88 86 83 86 83 85 85 85 88 89 90 89 90 92
100 100 100 97 97 99 100 100 99 96 90 93 95 93 96 92 93 99 97 85 78 71 90 91 96 96 95 84 84 90 90 86 88 88 87 87 88 87 89 89 90 90 90 91
100 99 99 98 98 95 98 95 94 91 86 91 94 92 74 88 97 97 87 88 82 93 96 94 86 76 84 90 89 91 92 91 91 91 90 90 90 92 92 93 95 93 92 87